<?xml version="1.0" encoding="UTF-8" standalone="no" ?>
<gpx xmlns="http://www.topografix.com/GPX/1/1" xmlns:xsi="http://www.w3.org/2001/XMLSchema-instance" xsi:schemaLocation="http://www.topografix.com/GPX/1/1 http://www.topografix.com/GPX/1/1/gpx.xsd" version="1.1" creator="VisuGPX - https://www.visugpx.com">
  <metadata>
    <name>Saverne Marmoutier</name>
    <desc><![CDATA[Sortie VTT 20 Km le 29/05/2010]]></desc>
  </metadata>
  <trk>
    <name><![CDATA[Holux2010/05/29_13:53-2]]></name>
    <trkseg>
      <trkpt lat="48.73137" lon="7.35224">
        <ele>241.855652</ele>
        <time>2010-05-29T12:02:54Z</time>
      </trkpt>
      <trkpt lat="48.73133" lon="7.3524">
        <ele>238.711121</ele>
        <time>2010-05-29T12:20:53Z</time>
      </trkpt>
      <trkpt lat="48.73125" lon="7.3525">
        <ele>238.375183</ele>
        <time>2010-05-29T12:20:56Z</time>
      </trkpt>
      <trkpt lat="48.73116" lon="7.3526">
        <ele>238.164246</ele>
        <time>2010-05-29T12:20:59Z</time>
      </trkpt>
      <trkpt lat="48.73104" lon="7.3527">
        <ele>238.687683</ele>
        <time>2010-05-29T12:21:02Z</time>
      </trkpt>
      <trkpt lat="48.73093" lon="7.35273">
        <ele>238.617371</ele>
        <time>2010-05-29T12:21:04Z</time>
      </trkpt>
      <trkpt lat="48.73082" lon="7.35273">
        <ele>238.757996</ele>
        <time>2010-05-29T12:21:06Z</time>
      </trkpt>
      <trkpt lat="48.73072" lon="7.3527">
        <ele>238.910339</ele>
        <time>2010-05-29T12:21:08Z</time>
      </trkpt>
      <trkpt lat="48.73062" lon="7.35266">
        <ele>239.109558</ele>
        <time>2010-05-29T12:21:10Z</time>
      </trkpt>
      <trkpt lat="48.73053" lon="7.35262">
        <ele>239.562683</ele>
        <time>2010-05-29T12:21:12Z</time>
      </trkpt>
      <trkpt lat="48.7304" lon="7.35255">
        <ele>239.527527</ele>
        <time>2010-05-29T12:21:15Z</time>
      </trkpt>
      <trkpt lat="48.73032" lon="7.35247">
        <ele>239.457214</ele>
        <time>2010-05-29T12:21:17Z</time>
      </trkpt>
      <trkpt lat="48.73025" lon="7.35235">
        <ele>239.554871</ele>
        <time>2010-05-29T12:21:19Z</time>
      </trkpt>
      <trkpt lat="48.73019" lon="7.35224">
        <ele>239.558777</ele>
        <time>2010-05-29T12:21:21Z</time>
      </trkpt>
      <trkpt lat="48.7301" lon="7.35208">
        <ele>239.472839</ele>
        <time>2010-05-29T12:21:24Z</time>
      </trkpt>
      <trkpt lat="48.73004" lon="7.35197">
        <ele>239.625183</ele>
        <time>2010-05-29T12:21:26Z</time>
      </trkpt>
      <trkpt lat="48.72997" lon="7.35188">
        <ele>239.754089</ele>
        <time>2010-05-29T12:21:28Z</time>
      </trkpt>
      <trkpt lat="48.72987" lon="7.35175">
        <ele>240.179871</ele>
        <time>2010-05-29T12:21:31Z</time>
      </trkpt>
      <trkpt lat="48.72979" lon="7.35161">
        <ele>240.218933</ele>
        <time>2010-05-29T12:21:34Z</time>
      </trkpt>
      <trkpt lat="48.72972" lon="7.35148">
        <ele>240.285339</ele>
        <time>2010-05-29T12:21:37Z</time>
      </trkpt>
      <trkpt lat="48.72963" lon="7.35137">
        <ele>240.929871</ele>
        <time>2010-05-29T12:21:40Z</time>
      </trkpt>
      <trkpt lat="48.72954" lon="7.35124">
        <ele>241.429871</ele>
        <time>2010-05-29T12:21:43Z</time>
      </trkpt>
      <trkpt lat="48.72947" lon="7.3511">
        <ele>242.086121</ele>
        <time>2010-05-29T12:21:46Z</time>
      </trkpt>
      <trkpt lat="48.72939" lon="7.35103">
        <ele>243.191589</ele>
        <time>2010-05-29T12:21:50Z</time>
      </trkpt>
      <trkpt lat="48.7293" lon="7.35111">
        <ele>241.972839</ele>
        <time>2010-05-29T12:21:53Z</time>
      </trkpt>
      <trkpt lat="48.7292" lon="7.35124">
        <ele>240.890808</ele>
        <time>2010-05-29T12:21:56Z</time>
      </trkpt>
      <trkpt lat="48.72913" lon="7.35135">
        <ele>240.191589</ele>
        <time>2010-05-29T12:21:58Z</time>
      </trkpt>
      <trkpt lat="48.72906" lon="7.35146">
        <ele>239.406433</ele>
        <time>2010-05-29T12:22:00Z</time>
      </trkpt>
      <trkpt lat="48.72897" lon="7.35159">
        <ele>238.816589</ele>
        <time>2010-05-29T12:22:02Z</time>
      </trkpt>
      <trkpt lat="48.72888" lon="7.3517">
        <ele>238.066589</ele>
        <time>2010-05-29T12:22:04Z</time>
      </trkpt>
      <trkpt lat="48.72879" lon="7.3518">
        <ele>237.699402</ele>
        <time>2010-05-29T12:22:06Z</time>
      </trkpt>
      <trkpt lat="48.72873" lon="7.3519">
        <ele>237.679871</ele>
        <time>2010-05-29T12:22:08Z</time>
      </trkpt>
      <trkpt lat="48.72866" lon="7.35199">
        <ele>236.968933</ele>
        <time>2010-05-29T12:22:11Z</time>
      </trkpt>
      <trkpt lat="48.7286" lon="7.35211">
        <ele>236.363464</ele>
        <time>2010-05-29T12:22:14Z</time>
      </trkpt>
      <trkpt lat="48.72852" lon="7.35221">
        <ele>236.890808</ele>
        <time>2010-05-29T12:22:17Z</time>
      </trkpt>
      <trkpt lat="48.72843" lon="7.35231">
        <ele>236.117371</ele>
        <time>2010-05-29T12:22:20Z</time>
      </trkpt>
      <trkpt lat="48.72834" lon="7.35241">
        <ele>236.465027</ele>
        <time>2010-05-29T12:22:23Z</time>
      </trkpt>
      <trkpt lat="48.72827" lon="7.3525">
        <ele>235.855652</ele>
        <time>2010-05-29T12:22:25Z</time>
      </trkpt>
      <trkpt lat="48.72818" lon="7.3526">
        <ele>235.461121</ele>
        <time>2010-05-29T12:22:27Z</time>
      </trkpt>
      <trkpt lat="48.7281" lon="7.35272">
        <ele>233.718933</ele>
        <time>2010-05-29T12:22:29Z</time>
      </trkpt>
      <trkpt lat="48.72803" lon="7.35282">
        <ele>234.601746</ele>
        <time>2010-05-29T12:22:31Z</time>
      </trkpt>
      <trkpt lat="48.72796" lon="7.35292">
        <ele>234.191589</ele>
        <time>2010-05-29T12:22:33Z</time>
      </trkpt>
      <trkpt lat="48.72789" lon="7.35301">
        <ele>233.609558</ele>
        <time>2010-05-29T12:22:35Z</time>
      </trkpt>
      <trkpt lat="48.72781" lon="7.3531">
        <ele>232.574402</ele>
        <time>2010-05-29T12:22:37Z</time>
      </trkpt>
      <trkpt lat="48.72774" lon="7.35318">
        <ele>233.074402</ele>
        <time>2010-05-29T12:22:40Z</time>
      </trkpt>
      <trkpt lat="48.72766" lon="7.35326">
        <ele>232.101746</ele>
        <time>2010-05-29T12:24:17Z</time>
      </trkpt>
      <trkpt lat="48.72758" lon="7.35318">
        <ele>233.164246</ele>
        <time>2010-05-29T12:24:22Z</time>
      </trkpt>
      <trkpt lat="48.72752" lon="7.35305">
        <ele>233.011902</ele>
        <time>2010-05-29T12:24:26Z</time>
      </trkpt>
      <trkpt lat="48.72744" lon="7.35291">
        <ele>232.968933</ele>
        <time>2010-05-29T12:24:29Z</time>
      </trkpt>
      <trkpt lat="48.72737" lon="7.35276">
        <ele>233.035339</ele>
        <time>2010-05-29T12:24:32Z</time>
      </trkpt>
      <trkpt lat="48.72726" lon="7.35267">
        <ele>233.222839</ele>
        <time>2010-05-29T12:24:35Z</time>
      </trkpt>
      <trkpt lat="48.72716" lon="7.35278">
        <ele>232.703308</ele>
        <time>2010-05-29T12:24:38Z</time>
      </trkpt>
      <trkpt lat="48.72709" lon="7.35287">
        <ele>232.531433</ele>
        <time>2010-05-29T12:24:40Z</time>
      </trkpt>
      <trkpt lat="48.72702" lon="7.35296">
        <ele>232.230652</ele>
        <time>2010-05-29T12:24:42Z</time>
      </trkpt>
      <trkpt lat="48.72694" lon="7.35305">
        <ele>231.941589</ele>
        <time>2010-05-29T12:24:44Z</time>
      </trkpt>
      <trkpt lat="48.72684" lon="7.35317">
        <ele>231.535339</ele>
        <time>2010-05-29T12:24:47Z</time>
      </trkpt>
      <trkpt lat="48.72677" lon="7.35326">
        <ele>231.109558</ele>
        <time>2010-05-29T12:24:49Z</time>
      </trkpt>
      <trkpt lat="48.72669" lon="7.35334">
        <ele>230.847839</ele>
        <time>2010-05-29T12:24:51Z</time>
      </trkpt>
      <trkpt lat="48.72659" lon="7.35345">
        <ele>230.410339</ele>
        <time>2010-05-29T12:24:54Z</time>
      </trkpt>
      <trkpt lat="48.7265" lon="7.35356">
        <ele>230.593933</ele>
        <time>2010-05-29T12:24:57Z</time>
      </trkpt>
      <trkpt lat="48.7264" lon="7.35367">
        <ele>230.429871</ele>
        <time>2010-05-29T12:25:00Z</time>
      </trkpt>
      <trkpt lat="48.72629" lon="7.35378">
        <ele>230.336121</ele>
        <time>2010-05-29T12:25:03Z</time>
      </trkpt>
      <trkpt lat="48.72621" lon="7.35387">
        <ele>230.117371</ele>
        <time>2010-05-29T12:25:05Z</time>
      </trkpt>
      <trkpt lat="48.72612" lon="7.35396">
        <ele>229.804871</ele>
        <time>2010-05-29T12:25:07Z</time>
      </trkpt>
      <trkpt lat="48.72604" lon="7.35406">
        <ele>229.465027</ele>
        <time>2010-05-29T12:25:09Z</time>
      </trkpt>
      <trkpt lat="48.72596" lon="7.35416">
        <ele>229.336121</ele>
        <time>2010-05-29T12:25:11Z</time>
      </trkpt>
      <trkpt lat="48.72589" lon="7.35424">
        <ele>228.941589</ele>
        <time>2010-05-29T12:25:13Z</time>
      </trkpt>
      <trkpt lat="48.72582" lon="7.35432">
        <ele>228.632996</ele>
        <time>2010-05-29T12:25:15Z</time>
      </trkpt>
      <trkpt lat="48.72574" lon="7.35442">
        <ele>228.082214</ele>
        <time>2010-05-29T12:25:17Z</time>
      </trkpt>
      <trkpt lat="48.72567" lon="7.35451">
        <ele>227.539246</ele>
        <time>2010-05-29T12:25:19Z</time>
      </trkpt>
      <trkpt lat="48.7256" lon="7.35459">
        <ele>227.449402</ele>
        <time>2010-05-29T12:25:21Z</time>
      </trkpt>
      <trkpt lat="48.72549" lon="7.3547">
        <ele>227.062683</ele>
        <time>2010-05-29T12:25:24Z</time>
      </trkpt>
      <trkpt lat="48.7254" lon="7.35481">
        <ele>226.953308</ele>
        <time>2010-05-29T12:25:27Z</time>
      </trkpt>
      <trkpt lat="48.7253" lon="7.35494">
        <ele>226.761902</ele>
        <time>2010-05-29T12:25:30Z</time>
      </trkpt>
      <trkpt lat="48.7252" lon="7.35507">
        <ele>227.293152</ele>
        <time>2010-05-29T12:25:33Z</time>
      </trkpt>
      <trkpt lat="48.7251" lon="7.35518">
        <ele>227.390808</ele>
        <time>2010-05-29T12:25:36Z</time>
      </trkpt>
      <trkpt lat="48.72501" lon="7.35529">
        <ele>227.218933</ele>
        <time>2010-05-29T12:25:39Z</time>
      </trkpt>
      <trkpt lat="48.72493" lon="7.35537">
        <ele>227.250183</ele>
        <time>2010-05-29T12:25:42Z</time>
      </trkpt>
      <trkpt lat="48.72485" lon="7.35548">
        <ele>227.601746</ele>
        <time>2010-05-29T12:25:46Z</time>
      </trkpt>
      <trkpt lat="48.72475" lon="7.35557">
        <ele>228.090027</ele>
        <time>2010-05-29T12:25:50Z</time>
      </trkpt>
      <trkpt lat="48.72466" lon="7.35565">
        <ele>227.914246</ele>
        <time>2010-05-29T12:25:53Z</time>
      </trkpt>
      <trkpt lat="48.72458" lon="7.35574">
        <ele>227.914246</ele>
        <time>2010-05-29T12:25:56Z</time>
      </trkpt>
      <trkpt lat="48.7245" lon="7.35582">
        <ele>227.664246</ele>
        <time>2010-05-29T12:25:59Z</time>
      </trkpt>
      <trkpt lat="48.72441" lon="7.35591">
        <ele>227.097839</ele>
        <time>2010-05-29T12:26:02Z</time>
      </trkpt>
      <trkpt lat="48.72433" lon="7.356">
        <ele>226.468933</ele>
        <time>2010-05-29T12:26:05Z</time>
      </trkpt>
      <trkpt lat="48.72424" lon="7.35608">
        <ele>225.984558</ele>
        <time>2010-05-29T12:26:08Z</time>
      </trkpt>
      <trkpt lat="48.72413" lon="7.35617">
        <ele>225.183777</ele>
        <time>2010-05-29T12:26:11Z</time>
      </trkpt>
      <trkpt lat="48.72405" lon="7.35625">
        <ele>224.590027</ele>
        <time>2010-05-29T12:26:13Z</time>
      </trkpt>
      <trkpt lat="48.72397" lon="7.35633">
        <ele>224.277527</ele>
        <time>2010-05-29T12:26:15Z</time>
      </trkpt>
      <trkpt lat="48.72388" lon="7.35642">
        <ele>223.519714</ele>
        <time>2010-05-29T12:26:17Z</time>
      </trkpt>
      <trkpt lat="48.72378" lon="7.35651">
        <ele>223.058777</ele>
        <time>2010-05-29T12:26:19Z</time>
      </trkpt>
      <trkpt lat="48.72368" lon="7.35661">
        <ele>222.324402</ele>
        <time>2010-05-29T12:26:21Z</time>
      </trkpt>
      <trkpt lat="48.72357" lon="7.35672">
        <ele>221.789246</ele>
        <time>2010-05-29T12:26:23Z</time>
      </trkpt>
      <trkpt lat="48.72347" lon="7.35683">
        <ele>221.336121</ele>
        <time>2010-05-29T12:26:25Z</time>
      </trkpt>
      <trkpt lat="48.72335" lon="7.35694">
        <ele>220.586121</ele>
        <time>2010-05-29T12:26:27Z</time>
      </trkpt>
      <trkpt lat="48.72324" lon="7.35707">
        <ele>219.918152</ele>
        <time>2010-05-29T12:26:29Z</time>
      </trkpt>
      <trkpt lat="48.72314" lon="7.35719">
        <ele>219.640808</ele>
        <time>2010-05-29T12:26:31Z</time>
      </trkpt>
      <trkpt lat="48.72302" lon="7.35731">
        <ele>219.652527</ele>
        <time>2010-05-29T12:26:33Z</time>
      </trkpt>
      <trkpt lat="48.72292" lon="7.35742">
        <ele>219.429871</ele>
        <time>2010-05-29T12:26:35Z</time>
      </trkpt>
      <trkpt lat="48.72282" lon="7.35752">
        <ele>219.402527</ele>
        <time>2010-05-29T12:26:37Z</time>
      </trkpt>
      <trkpt lat="48.72272" lon="7.35762">
        <ele>219.500183</ele>
        <time>2010-05-29T12:26:39Z</time>
      </trkpt>
      <trkpt lat="48.72263" lon="7.35772">
        <ele>219.453308</ele>
        <time>2010-05-29T12:26:41Z</time>
      </trkpt>
      <trkpt lat="48.72255" lon="7.35781">
        <ele>219.586121</ele>
        <time>2010-05-29T12:26:43Z</time>
      </trkpt>
      <trkpt lat="48.72245" lon="7.35792">
        <ele>219.929871</ele>
        <time>2010-05-29T12:26:46Z</time>
      </trkpt>
      <trkpt lat="48.72235" lon="7.35804">
        <ele>219.961121</ele>
        <time>2010-05-29T12:26:49Z</time>
      </trkpt>
      <trkpt lat="48.72225" lon="7.35813">
        <ele>220.332214</ele>
        <time>2010-05-29T12:26:52Z</time>
      </trkpt>
      <trkpt lat="48.72214" lon="7.3582">
        <ele>221.242371</ele>
        <time>2010-05-29T12:26:55Z</time>
      </trkpt>
      <trkpt lat="48.72202" lon="7.35825">
        <ele>221.871277</ele>
        <time>2010-05-29T12:26:58Z</time>
      </trkpt>
      <trkpt lat="48.72192" lon="7.35828">
        <ele>221.984558</ele>
        <time>2010-05-29T12:27:01Z</time>
      </trkpt>
      <trkpt lat="48.72183" lon="7.35833">
        <ele>221.961121</ele>
        <time>2010-05-29T12:27:04Z</time>
      </trkpt>
      <trkpt lat="48.72173" lon="7.35837">
        <ele>222.644714</ele>
        <time>2010-05-29T12:27:09Z</time>
      </trkpt>
      <trkpt lat="48.72163" lon="7.35844">
        <ele>222.203308</ele>
        <time>2010-05-29T12:27:51Z</time>
      </trkpt>
      <trkpt lat="48.72152" lon="7.35845">
        <ele>221.609558</ele>
        <time>2010-05-29T12:27:54Z</time>
      </trkpt>
      <trkpt lat="48.72142" lon="7.35849">
        <ele>220.609558</ele>
        <time>2010-05-29T12:27:56Z</time>
      </trkpt>
      <trkpt lat="48.72131" lon="7.35855">
        <ele>219.351746</ele>
        <time>2010-05-29T12:27:58Z</time>
      </trkpt>
      <trkpt lat="48.72117" lon="7.35861">
        <ele>217.797058</ele>
        <time>2010-05-29T12:28:00Z</time>
      </trkpt>
      <trkpt lat="48.72102" lon="7.35869">
        <ele>216.062683</ele>
        <time>2010-05-29T12:28:02Z</time>
      </trkpt>
      <trkpt lat="48.72086" lon="7.35875">
        <ele>214.496277</ele>
        <time>2010-05-29T12:28:04Z</time>
      </trkpt>
      <trkpt lat="48.72073" lon="7.35883">
        <ele>213.297058</ele>
        <time>2010-05-29T12:28:06Z</time>
      </trkpt>
      <trkpt lat="48.7206" lon="7.3589">
        <ele>211.800964</ele>
        <time>2010-05-29T12:28:08Z</time>
      </trkpt>
      <trkpt lat="48.72047" lon="7.35897">
        <ele>210.523621</ele>
        <time>2010-05-29T12:28:10Z</time>
      </trkpt>
      <trkpt lat="48.72036" lon="7.35904">
        <ele>209.586121</ele>
        <time>2010-05-29T12:28:12Z</time>
      </trkpt>
      <trkpt lat="48.72028" lon="7.35908">
        <ele>208.937683</ele>
        <time>2010-05-29T12:28:14Z</time>
      </trkpt>
      <trkpt lat="48.72018" lon="7.35913">
        <ele>208.285339</ele>
        <time>2010-05-29T12:28:17Z</time>
      </trkpt>
      <trkpt lat="48.7201" lon="7.35918">
        <ele>207.504089</ele>
        <time>2010-05-29T12:28:20Z</time>
      </trkpt>
      <trkpt lat="48.71999" lon="7.35923">
        <ele>206.355652</ele>
        <time>2010-05-29T12:28:23Z</time>
      </trkpt>
      <trkpt lat="48.71989" lon="7.35928">
        <ele>205.300964</ele>
        <time>2010-05-29T12:28:25Z</time>
      </trkpt>
      <trkpt lat="48.71977" lon="7.35936">
        <ele>204.050964</ele>
        <time>2010-05-29T12:28:27Z</time>
      </trkpt>
      <trkpt lat="48.71964" lon="7.35946">
        <ele>202.656433</ele>
        <time>2010-05-29T12:28:29Z</time>
      </trkpt>
      <trkpt lat="48.7195" lon="7.35956">
        <ele>201.332214</ele>
        <time>2010-05-29T12:28:31Z</time>
      </trkpt>
      <trkpt lat="48.71937" lon="7.35968">
        <ele>200.203308</ele>
        <time>2010-05-29T12:28:33Z</time>
      </trkpt>
      <trkpt lat="48.71925" lon="7.35974">
        <ele>199.304871</ele>
        <time>2010-05-29T12:28:35Z</time>
      </trkpt>
      <trkpt lat="48.71913" lon="7.35981">
        <ele>199.632996</ele>
        <time>2010-05-29T12:28:37Z</time>
      </trkpt>
      <trkpt lat="48.71903" lon="7.35989">
        <ele>200.058777</ele>
        <time>2010-05-29T12:28:39Z</time>
      </trkpt>
      <trkpt lat="48.71893" lon="7.35997">
        <ele>200.379089</ele>
        <time>2010-05-29T12:28:41Z</time>
      </trkpt>
      <trkpt lat="48.71883" lon="7.36005">
        <ele>200.828308</ele>
        <time>2010-05-29T12:28:43Z</time>
      </trkpt>
      <trkpt lat="48.71872" lon="7.36014">
        <ele>201.031433</ele>
        <time>2010-05-29T12:28:45Z</time>
      </trkpt>
      <trkpt lat="48.71863" lon="7.36021">
        <ele>201.457214</ele>
        <time>2010-05-29T12:28:47Z</time>
      </trkpt>
      <trkpt lat="48.71854" lon="7.36028">
        <ele>201.183777</ele>
        <time>2010-05-29T12:28:49Z</time>
      </trkpt>
      <trkpt lat="48.71845" lon="7.36033">
        <ele>201.062683</ele>
        <time>2010-05-29T12:28:51Z</time>
      </trkpt>
      <trkpt lat="48.71836" lon="7.36039">
        <ele>200.984558</ele>
        <time>2010-05-29T12:28:53Z</time>
      </trkpt>
      <trkpt lat="48.71827" lon="7.36044">
        <ele>200.812683</ele>
        <time>2010-05-29T12:28:55Z</time>
      </trkpt>
      <trkpt lat="48.71818" lon="7.36049">
        <ele>200.621277</ele>
        <time>2010-05-29T12:28:57Z</time>
      </trkpt>
      <trkpt lat="48.71809" lon="7.36053">
        <ele>200.359558</ele>
        <time>2010-05-29T12:28:59Z</time>
      </trkpt>
      <trkpt lat="48.718" lon="7.36056">
        <ele>200.152527</ele>
        <time>2010-05-29T12:29:01Z</time>
      </trkpt>
      <trkpt lat="48.71788" lon="7.36063">
        <ele>199.222839</ele>
        <time>2010-05-29T12:29:04Z</time>
      </trkpt>
      <trkpt lat="48.71789" lon="7.36082">
        <ele>198.269714</ele>
        <time>2010-05-29T12:29:07Z</time>
      </trkpt>
      <trkpt lat="48.71791" lon="7.36097">
        <ele>197.980652</ele>
        <time>2010-05-29T12:29:09Z</time>
      </trkpt>
      <trkpt lat="48.71793" lon="7.36112">
        <ele>197.441589</ele>
        <time>2010-05-29T12:29:11Z</time>
      </trkpt>
      <trkpt lat="48.71794" lon="7.36129">
        <ele>197.082214</ele>
        <time>2010-05-29T12:29:13Z</time>
      </trkpt>
      <trkpt lat="48.71796" lon="7.36146">
        <ele>196.906433</ele>
        <time>2010-05-29T12:29:15Z</time>
      </trkpt>
      <trkpt lat="48.71798" lon="7.3616">
        <ele>196.730652</ele>
        <time>2010-05-29T12:29:17Z</time>
      </trkpt>
      <trkpt lat="48.718" lon="7.36176">
        <ele>197.054871</ele>
        <time>2010-05-29T12:29:20Z</time>
      </trkpt>
      <trkpt lat="48.71802" lon="7.3619">
        <ele>197.175964</ele>
        <time>2010-05-29T12:29:24Z</time>
      </trkpt>
      <trkpt lat="48.71799" lon="7.36203">
        <ele>198.925964</ele>
        <time>2010-05-29T12:29:31Z</time>
      </trkpt>
      <trkpt lat="48.71792" lon="7.36213">
        <ele>203.781433</ele>
        <time>2010-05-29T12:31:00Z</time>
      </trkpt>
      <trkpt lat="48.71783" lon="7.3622">
        <ele>203.453308</ele>
        <time>2010-05-29T12:31:03Z</time>
      </trkpt>
      <trkpt lat="48.71772" lon="7.36226">
        <ele>202.754089</ele>
        <time>2010-05-29T12:31:06Z</time>
      </trkpt>
      <trkpt lat="48.7176" lon="7.3623">
        <ele>202.168152</ele>
        <time>2010-05-29T12:31:09Z</time>
      </trkpt>
      <trkpt lat="48.71751" lon="7.36234">
        <ele>201.949402</ele>
        <time>2010-05-29T12:31:12Z</time>
      </trkpt>
      <trkpt lat="48.7174" lon="7.3624">
        <ele>202.343933</ele>
        <time>2010-05-29T12:31:15Z</time>
      </trkpt>
      <trkpt lat="48.7173" lon="7.36244">
        <ele>202.007996</ele>
        <time>2010-05-29T12:31:17Z</time>
      </trkpt>
      <trkpt lat="48.71722" lon="7.3625">
        <ele>200.386902</ele>
        <time>2010-05-29T12:31:19Z</time>
      </trkpt>
      <trkpt lat="48.71711" lon="7.36257">
        <ele>200.238464</ele>
        <time>2010-05-29T12:31:22Z</time>
      </trkpt>
      <trkpt lat="48.71701" lon="7.36262">
        <ele>201.277527</ele>
        <time>2010-05-29T12:31:25Z</time>
      </trkpt>
      <trkpt lat="48.71689" lon="7.36268">
        <ele>201.523621</ele>
        <time>2010-05-29T12:31:28Z</time>
      </trkpt>
      <trkpt lat="48.71679" lon="7.36275">
        <ele>201.000183</ele>
        <time>2010-05-29T12:31:31Z</time>
      </trkpt>
      <trkpt lat="48.71668" lon="7.3628">
        <ele>200.543152</ele>
        <time>2010-05-29T12:31:34Z</time>
      </trkpt>
      <trkpt lat="48.71657" lon="7.36286">
        <ele>200.164246</ele>
        <time>2010-05-29T12:31:37Z</time>
      </trkpt>
      <trkpt lat="48.71647" lon="7.3629">
        <ele>199.910339</ele>
        <time>2010-05-29T12:31:40Z</time>
      </trkpt>
      <trkpt lat="48.71639" lon="7.36294">
        <ele>199.597839</ele>
        <time>2010-05-29T12:31:43Z</time>
      </trkpt>
      <trkpt lat="48.71627" lon="7.36299">
        <ele>199.789246</ele>
        <time>2010-05-29T12:31:47Z</time>
      </trkpt>
      <trkpt lat="48.71618" lon="7.36303">
        <ele>200.648621</ele>
        <time>2010-05-29T12:31:50Z</time>
      </trkpt>
      <trkpt lat="48.71606" lon="7.36308">
        <ele>201.507996</ele>
        <time>2010-05-29T12:31:54Z</time>
      </trkpt>
      <trkpt lat="48.71595" lon="7.36313">
        <ele>202.476746</ele>
        <time>2010-05-29T12:31:58Z</time>
      </trkpt>
      <trkpt lat="48.71585" lon="7.36317">
        <ele>203.785339</ele>
        <time>2010-05-29T12:32:02Z</time>
      </trkpt>
      <trkpt lat="48.71576" lon="7.36321">
        <ele>204.410339</ele>
        <time>2010-05-29T12:32:06Z</time>
      </trkpt>
      <trkpt lat="48.71566" lon="7.36325">
        <ele>205.297058</ele>
        <time>2010-05-29T12:32:10Z</time>
      </trkpt>
      <trkpt lat="48.71555" lon="7.36329">
        <ele>206.273621</ele>
        <time>2010-05-29T12:32:14Z</time>
      </trkpt>
      <trkpt lat="48.71546" lon="7.36333">
        <ele>207.140808</ele>
        <time>2010-05-29T12:32:18Z</time>
      </trkpt>
      <trkpt lat="48.71535" lon="7.36338">
        <ele>207.882996</ele>
        <time>2010-05-29T12:32:22Z</time>
      </trkpt>
      <trkpt lat="48.71525" lon="7.36341">
        <ele>208.824402</ele>
        <time>2010-05-29T12:32:26Z</time>
      </trkpt>
      <trkpt lat="48.71516" lon="7.36346">
        <ele>209.754089</ele>
        <time>2010-05-29T12:32:30Z</time>
      </trkpt>
      <trkpt lat="48.71507" lon="7.3635">
        <ele>210.480652</ele>
        <time>2010-05-29T12:32:34Z</time>
      </trkpt>
      <trkpt lat="48.71498" lon="7.36354">
        <ele>211.164246</ele>
        <time>2010-05-29T12:32:38Z</time>
      </trkpt>
      <trkpt lat="48.71489" lon="7.36358">
        <ele>211.843933</ele>
        <time>2010-05-29T12:32:42Z</time>
      </trkpt>
      <trkpt lat="48.71479" lon="7.36363">
        <ele>212.105652</ele>
        <time>2010-05-29T12:32:46Z</time>
      </trkpt>
      <trkpt lat="48.71469" lon="7.36368">
        <ele>213.078308</ele>
        <time>2010-05-29T12:32:50Z</time>
      </trkpt>
      <trkpt lat="48.71459" lon="7.36373">
        <ele>213.629089</ele>
        <time>2010-05-29T12:32:54Z</time>
      </trkpt>
      <trkpt lat="48.7145" lon="7.36378">
        <ele>214.324402</ele>
        <time>2010-05-29T12:32:58Z</time>
      </trkpt>
      <trkpt lat="48.7144" lon="7.36383">
        <ele>214.957214</ele>
        <time>2010-05-29T12:33:02Z</time>
      </trkpt>
      <trkpt lat="48.71429" lon="7.36387">
        <ele>215.636902</ele>
        <time>2010-05-29T12:33:06Z</time>
      </trkpt>
      <trkpt lat="48.71419" lon="7.3639">
        <ele>216.136902</ele>
        <time>2010-05-29T12:33:10Z</time>
      </trkpt>
      <trkpt lat="48.71408" lon="7.36392">
        <ele>217.019714</ele>
        <time>2010-05-29T12:33:14Z</time>
      </trkpt>
      <trkpt lat="48.71397" lon="7.36394">
        <ele>217.340027</ele>
        <time>2010-05-29T12:33:18Z</time>
      </trkpt>
      <trkpt lat="48.71386" lon="7.36396">
        <ele>217.980652</ele>
        <time>2010-05-29T12:33:22Z</time>
      </trkpt>
      <trkpt lat="48.71374" lon="7.36397">
        <ele>218.590027</ele>
        <time>2010-05-29T12:33:26Z</time>
      </trkpt>
      <trkpt lat="48.71363" lon="7.36399">
        <ele>218.449402</ele>
        <time>2010-05-29T12:33:30Z</time>
      </trkpt>
      <trkpt lat="48.71351" lon="7.36401">
        <ele>218.496277</ele>
        <time>2010-05-29T12:33:34Z</time>
      </trkpt>
      <trkpt lat="48.7134" lon="7.36403">
        <ele>218.269714</ele>
        <time>2010-05-29T12:33:38Z</time>
      </trkpt>
      <trkpt lat="48.71329" lon="7.36403">
        <ele>218.945496</ele>
        <time>2010-05-29T12:33:42Z</time>
      </trkpt>
      <trkpt lat="48.7132" lon="7.36404">
        <ele>219.246277</ele>
        <time>2010-05-29T12:33:45Z</time>
      </trkpt>
      <trkpt lat="48.7131" lon="7.36403">
        <ele>219.558777</ele>
        <time>2010-05-29T12:33:48Z</time>
      </trkpt>
      <trkpt lat="48.71301" lon="7.36403">
        <ele>219.871277</ele>
        <time>2010-05-29T12:33:51Z</time>
      </trkpt>
      <trkpt lat="48.71292" lon="7.36403">
        <ele>220.191589</ele>
        <time>2010-05-29T12:33:54Z</time>
      </trkpt>
      <trkpt lat="48.71282" lon="7.36402">
        <ele>220.144714</ele>
        <time>2010-05-29T12:33:57Z</time>
      </trkpt>
      <trkpt lat="48.71272" lon="7.36402">
        <ele>220.246277</ele>
        <time>2010-05-29T12:34:00Z</time>
      </trkpt>
      <trkpt lat="48.71262" lon="7.36401">
        <ele>220.621277</ele>
        <time>2010-05-29T12:34:03Z</time>
      </trkpt>
      <trkpt lat="48.71253" lon="7.36401">
        <ele>221.004089</ele>
        <time>2010-05-29T12:34:06Z</time>
      </trkpt>
      <trkpt lat="48.71243" lon="7.36401">
        <ele>221.492371</ele>
        <time>2010-05-29T12:34:09Z</time>
      </trkpt>
      <trkpt lat="48.71234" lon="7.36402">
        <ele>221.867371</ele>
        <time>2010-05-29T12:34:12Z</time>
      </trkpt>
      <trkpt lat="48.71225" lon="7.36401">
        <ele>221.941589</ele>
        <time>2010-05-29T12:34:15Z</time>
      </trkpt>
      <trkpt lat="48.71215" lon="7.36401">
        <ele>222.156433</ele>
        <time>2010-05-29T12:34:18Z</time>
      </trkpt>
      <trkpt lat="48.71206" lon="7.36401">
        <ele>222.418152</ele>
        <time>2010-05-29T12:34:21Z</time>
      </trkpt>
      <trkpt lat="48.71196" lon="7.36401">
        <ele>222.519714</ele>
        <time>2010-05-29T12:34:24Z</time>
      </trkpt>
      <trkpt lat="48.71185" lon="7.36401">
        <ele>222.715027</ele>
        <time>2010-05-29T12:34:27Z</time>
      </trkpt>
      <trkpt lat="48.71175" lon="7.36402">
        <ele>222.625183</ele>
        <time>2010-05-29T12:34:30Z</time>
      </trkpt>
      <trkpt lat="48.71164" lon="7.36401">
        <ele>222.695496</ele>
        <time>2010-05-29T12:34:33Z</time>
      </trkpt>
      <trkpt lat="48.71154" lon="7.36402">
        <ele>222.879089</ele>
        <time>2010-05-29T12:34:36Z</time>
      </trkpt>
      <trkpt lat="48.71142" lon="7.36402">
        <ele>222.910339</ele>
        <time>2010-05-29T12:34:39Z</time>
      </trkpt>
      <trkpt lat="48.7113" lon="7.36402">
        <ele>223.035339</ele>
        <time>2010-05-29T12:34:42Z</time>
      </trkpt>
      <trkpt lat="48.71118" lon="7.36402">
        <ele>223.074402</ele>
        <time>2010-05-29T12:34:45Z</time>
      </trkpt>
      <trkpt lat="48.71106" lon="7.36401">
        <ele>223.355652</ele>
        <time>2010-05-29T12:34:48Z</time>
      </trkpt>
      <trkpt lat="48.71093" lon="7.364">
        <ele>223.816589</ele>
        <time>2010-05-29T12:34:51Z</time>
      </trkpt>
      <trkpt lat="48.71082" lon="7.364">
        <ele>224.015808</ele>
        <time>2010-05-29T12:34:54Z</time>
      </trkpt>
      <trkpt lat="48.71071" lon="7.36399">
        <ele>224.195496</ele>
        <time>2010-05-29T12:34:57Z</time>
      </trkpt>
      <trkpt lat="48.71058" lon="7.36399">
        <ele>224.414246</ele>
        <time>2010-05-29T12:35:00Z</time>
      </trkpt>
      <trkpt lat="48.71049" lon="7.36399">
        <ele>224.269714</ele>
        <time>2010-05-29T12:35:02Z</time>
      </trkpt>
      <trkpt lat="48.71036" lon="7.36398">
        <ele>224.422058</ele>
        <time>2010-05-29T12:35:05Z</time>
      </trkpt>
      <trkpt lat="48.71024" lon="7.36398">
        <ele>224.808777</ele>
        <time>2010-05-29T12:35:08Z</time>
      </trkpt>
      <trkpt lat="48.71015" lon="7.36398">
        <ele>224.988464</ele>
        <time>2010-05-29T12:35:11Z</time>
      </trkpt>
      <trkpt lat="48.71006" lon="7.364">
        <ele>225.308777</ele>
        <time>2010-05-29T12:35:17Z</time>
      </trkpt>
      <trkpt lat="48.70995" lon="7.36399">
        <ele>225.457214</ele>
        <time>2010-05-29T12:36:53Z</time>
      </trkpt>
      <trkpt lat="48.70984" lon="7.36392">
        <ele>225.300964</ele>
        <time>2010-05-29T12:36:57Z</time>
      </trkpt>
      <trkpt lat="48.70975" lon="7.36386">
        <ele>225.410339</ele>
        <time>2010-05-29T12:37:00Z</time>
      </trkpt>
      <trkpt lat="48.70966" lon="7.36383">
        <ele>225.976746</ele>
        <time>2010-05-29T12:37:04Z</time>
      </trkpt>
      <trkpt lat="48.70957" lon="7.36396">
        <ele>225.465027</ele>
        <time>2010-05-29T12:37:13Z</time>
      </trkpt>
      <trkpt lat="48.70945" lon="7.364">
        <ele>225.636902</ele>
        <time>2010-05-29T12:37:16Z</time>
      </trkpt>
      <trkpt lat="48.70933" lon="7.36404">
        <ele>225.496277</ele>
        <time>2010-05-29T12:37:19Z</time>
      </trkpt>
      <trkpt lat="48.70921" lon="7.36409">
        <ele>225.800964</ele>
        <time>2010-05-29T12:37:22Z</time>
      </trkpt>
      <trkpt lat="48.70911" lon="7.36417">
        <ele>226.175964</ele>
        <time>2010-05-29T12:37:25Z</time>
      </trkpt>
      <trkpt lat="48.70901" lon="7.36425">
        <ele>226.465027</ele>
        <time>2010-05-29T12:37:28Z</time>
      </trkpt>
      <trkpt lat="48.70892" lon="7.36433">
        <ele>226.746277</ele>
        <time>2010-05-29T12:37:31Z</time>
      </trkpt>
      <trkpt lat="48.70882" lon="7.36441">
        <ele>226.898621</ele>
        <time>2010-05-29T12:37:34Z</time>
      </trkpt>
      <trkpt lat="48.70872" lon="7.3645">
        <ele>227.093933</ele>
        <time>2010-05-29T12:37:37Z</time>
      </trkpt>
      <trkpt lat="48.70863" lon="7.36457">
        <ele>227.254089</ele>
        <time>2010-05-29T12:37:40Z</time>
      </trkpt>
      <trkpt lat="48.70855" lon="7.36465">
        <ele>227.269714</ele>
        <time>2010-05-29T12:37:43Z</time>
      </trkpt>
      <trkpt lat="48.70846" lon="7.36472">
        <ele>227.597839</ele>
        <time>2010-05-29T12:37:46Z</time>
      </trkpt>
      <trkpt lat="48.70837" lon="7.36479">
        <ele>227.480652</ele>
        <time>2010-05-29T12:37:49Z</time>
      </trkpt>
      <trkpt lat="48.70829" lon="7.36486">
        <ele>228.050964</ele>
        <time>2010-05-29T12:37:52Z</time>
      </trkpt>
      <trkpt lat="48.70821" lon="7.36493">
        <ele>228.492371</ele>
        <time>2010-05-29T12:37:55Z</time>
      </trkpt>
      <trkpt lat="48.70811" lon="7.36502">
        <ele>228.746277</ele>
        <time>2010-05-29T12:37:59Z</time>
      </trkpt>
      <trkpt lat="48.70802" lon="7.36508">
        <ele>228.847839</ele>
        <time>2010-05-29T12:38:03Z</time>
      </trkpt>
      <trkpt lat="48.70792" lon="7.36517">
        <ele>229.179871</ele>
        <time>2010-05-29T12:38:07Z</time>
      </trkpt>
      <trkpt lat="48.70783" lon="7.36525">
        <ele>229.433777</ele>
        <time>2010-05-29T12:38:11Z</time>
      </trkpt>
      <trkpt lat="48.70773" lon="7.36534">
        <ele>229.855652</ele>
        <time>2010-05-29T12:38:15Z</time>
      </trkpt>
      <trkpt lat="48.70763" lon="7.36542">
        <ele>230.437683</ele>
        <time>2010-05-29T12:38:19Z</time>
      </trkpt>
      <trkpt lat="48.70753" lon="7.3655">
        <ele>230.828308</ele>
        <time>2010-05-29T12:38:23Z</time>
      </trkpt>
      <trkpt lat="48.70744" lon="7.36558">
        <ele>231.050964</ele>
        <time>2010-05-29T12:38:27Z</time>
      </trkpt>
      <trkpt lat="48.70734" lon="7.36566">
        <ele>231.707214</ele>
        <time>2010-05-29T12:38:31Z</time>
      </trkpt>
      <trkpt lat="48.70725" lon="7.36574">
        <ele>232.324402</ele>
        <time>2010-05-29T12:38:35Z</time>
      </trkpt>
      <trkpt lat="48.70715" lon="7.36582">
        <ele>232.625183</ele>
        <time>2010-05-29T12:38:39Z</time>
      </trkpt>
      <trkpt lat="48.70706" lon="7.3659">
        <ele>232.929871</ele>
        <time>2010-05-29T12:38:43Z</time>
      </trkpt>
      <trkpt lat="48.70697" lon="7.36598">
        <ele>233.175964</ele>
        <time>2010-05-29T12:38:47Z</time>
      </trkpt>
      <trkpt lat="48.70687" lon="7.36605">
        <ele>233.664246</ele>
        <time>2010-05-29T12:38:51Z</time>
      </trkpt>
      <trkpt lat="48.70678" lon="7.36613">
        <ele>234.211121</ele>
        <time>2010-05-29T12:38:56Z</time>
      </trkpt>
      <trkpt lat="48.70668" lon="7.36621">
        <ele>235.488464</ele>
        <time>2010-05-29T12:39:01Z</time>
      </trkpt>
      <trkpt lat="48.70659" lon="7.36629">
        <ele>236.445496</ele>
        <time>2010-05-29T12:39:05Z</time>
      </trkpt>
      <trkpt lat="48.70649" lon="7.3664">
        <ele>236.871277</ele>
        <time>2010-05-29T12:39:09Z</time>
      </trkpt>
      <trkpt lat="48.70639" lon="7.36648">
        <ele>237.476746</ele>
        <time>2010-05-29T12:39:13Z</time>
      </trkpt>
      <trkpt lat="48.70629" lon="7.36656">
        <ele>238.082214</ele>
        <time>2010-05-29T12:39:17Z</time>
      </trkpt>
      <trkpt lat="48.7062" lon="7.36665">
        <ele>238.761902</ele>
        <time>2010-05-29T12:39:21Z</time>
      </trkpt>
      <trkpt lat="48.7061" lon="7.36673">
        <ele>239.011902</ele>
        <time>2010-05-29T12:39:25Z</time>
      </trkpt>
      <trkpt lat="48.70601" lon="7.36682">
        <ele>239.156433</ele>
        <time>2010-05-29T12:39:29Z</time>
      </trkpt>
      <trkpt lat="48.7059" lon="7.36691">
        <ele>239.312683</ele>
        <time>2010-05-29T12:39:33Z</time>
      </trkpt>
      <trkpt lat="48.70581" lon="7.36698">
        <ele>239.410339</ele>
        <time>2010-05-29T12:39:37Z</time>
      </trkpt>
      <trkpt lat="48.70572" lon="7.36705">
        <ele>239.429871</ele>
        <time>2010-05-29T12:39:41Z</time>
      </trkpt>
      <trkpt lat="48.70562" lon="7.36713">
        <ele>239.812683</ele>
        <time>2010-05-29T12:39:45Z</time>
      </trkpt>
      <trkpt lat="48.70554" lon="7.3672">
        <ele>240.004089</ele>
        <time>2010-05-29T12:39:48Z</time>
      </trkpt>
      <trkpt lat="48.70546" lon="7.36727">
        <ele>240.027527</ele>
        <time>2010-05-29T12:39:51Z</time>
      </trkpt>
      <trkpt lat="48.70536" lon="7.36735">
        <ele>239.816589</ele>
        <time>2010-05-29T12:39:55Z</time>
      </trkpt>
      <trkpt lat="48.70527" lon="7.36744">
        <ele>239.601746</ele>
        <time>2010-05-29T12:39:59Z</time>
      </trkpt>
      <trkpt lat="48.70519" lon="7.36751">
        <ele>239.461121</ele>
        <time>2010-05-29T12:40:02Z</time>
      </trkpt>
      <trkpt lat="48.70508" lon="7.36759">
        <ele>239.363464</ele>
        <time>2010-05-29T12:40:06Z</time>
      </trkpt>
      <trkpt lat="48.70499" lon="7.36766">
        <ele>239.379089</ele>
        <time>2010-05-29T12:40:09Z</time>
      </trkpt>
      <trkpt lat="48.70491" lon="7.36772">
        <ele>239.461121</ele>
        <time>2010-05-29T12:40:12Z</time>
      </trkpt>
      <trkpt lat="48.70481" lon="7.3678">
        <ele>239.582214</ele>
        <time>2010-05-29T12:40:16Z</time>
      </trkpt>
      <trkpt lat="48.70471" lon="7.36777">
        <ele>239.293152</ele>
        <time>2010-05-29T12:40:21Z</time>
      </trkpt>
      <trkpt lat="48.70467" lon="7.36762">
        <ele>240.523621</ele>
        <time>2010-05-29T12:40:25Z</time>
      </trkpt>
      <trkpt lat="48.70464" lon="7.36748">
        <ele>241.797058</ele>
        <time>2010-05-29T12:40:29Z</time>
      </trkpt>
      <trkpt lat="48.70461" lon="7.36735">
        <ele>243.011902</ele>
        <time>2010-05-29T12:40:33Z</time>
      </trkpt>
      <trkpt lat="48.70459" lon="7.36722">
        <ele>246.625183</ele>
        <time>2010-05-29T12:40:37Z</time>
      </trkpt>
      <trkpt lat="48.70456" lon="7.36708">
        <ele>249.582214</ele>
        <time>2010-05-29T12:40:42Z</time>
      </trkpt>
      <trkpt lat="48.70454" lon="7.36694">
        <ele>249.988464</ele>
        <time>2010-05-29T12:40:47Z</time>
      </trkpt>
      <trkpt lat="48.70451" lon="7.3668">
        <ele>250.250183</ele>
        <time>2010-05-29T12:40:53Z</time>
      </trkpt>
      <trkpt lat="48.70447" lon="7.36668">
        <ele>251.093933</ele>
        <time>2010-05-29T12:40:58Z</time>
      </trkpt>
      <trkpt lat="48.7044" lon="7.36658">
        <ele>248.726746</ele>
        <time>2010-05-29T12:41:06Z</time>
      </trkpt>
      <trkpt lat="48.70432" lon="7.36651">
        <ele>249.082214</ele>
        <time>2010-05-29T12:41:11Z</time>
      </trkpt>
      <trkpt lat="48.70425" lon="7.36642">
        <ele>249.812683</ele>
        <time>2010-05-29T12:41:16Z</time>
      </trkpt>
      <trkpt lat="48.70416" lon="7.36634">
        <ele>250.652527</ele>
        <time>2010-05-29T12:41:23Z</time>
      </trkpt>
      <trkpt lat="48.70408" lon="7.36626">
        <ele>251.043152</ele>
        <time>2010-05-29T12:41:28Z</time>
      </trkpt>
      <trkpt lat="48.70399" lon="7.36618">
        <ele>251.582214</ele>
        <time>2010-05-29T12:41:33Z</time>
      </trkpt>
      <trkpt lat="48.7039" lon="7.36609">
        <ele>252.226746</ele>
        <time>2010-05-29T12:41:38Z</time>
      </trkpt>
      <trkpt lat="48.70382" lon="7.366">
        <ele>252.679871</ele>
        <time>2010-05-29T12:41:42Z</time>
      </trkpt>
      <trkpt lat="48.70375" lon="7.36592">
        <ele>252.687683</ele>
        <time>2010-05-29T12:41:45Z</time>
      </trkpt>
      <trkpt lat="48.70364" lon="7.36581">
        <ele>253.183777</ele>
        <time>2010-05-29T12:41:48Z</time>
      </trkpt>
      <trkpt lat="48.70356" lon="7.36573">
        <ele>253.535339</ele>
        <time>2010-05-29T12:41:50Z</time>
      </trkpt>
      <trkpt lat="48.70345" lon="7.36564">
        <ele>253.918152</ele>
        <time>2010-05-29T12:41:53Z</time>
      </trkpt>
      <trkpt lat="48.70333" lon="7.36559">
        <ele>254.164246</ele>
        <time>2010-05-29T12:41:56Z</time>
      </trkpt>
      <trkpt lat="48.7032" lon="7.3656">
        <ele>254.355652</ele>
        <time>2010-05-29T12:41:59Z</time>
      </trkpt>
      <trkpt lat="48.70308" lon="7.36567">
        <ele>254.410339</ele>
        <time>2010-05-29T12:42:02Z</time>
      </trkpt>
      <trkpt lat="48.70295" lon="7.36572">
        <ele>254.586121</ele>
        <time>2010-05-29T12:42:05Z</time>
      </trkpt>
      <trkpt lat="48.70284" lon="7.36579">
        <ele>255.312683</ele>
        <time>2010-05-29T12:42:08Z</time>
      </trkpt>
      <trkpt lat="48.70272" lon="7.36583">
        <ele>255.781433</ele>
        <time>2010-05-29T12:42:11Z</time>
      </trkpt>
      <trkpt lat="48.70261" lon="7.36587">
        <ele>256.586304</ele>
        <time>2010-05-29T12:42:14Z</time>
      </trkpt>
      <trkpt lat="48.7025" lon="7.3659">
        <ele>257.062866</ele>
        <time>2010-05-29T12:42:17Z</time>
      </trkpt>
      <trkpt lat="48.7024" lon="7.3659">
        <ele>257.633179</ele>
        <time>2010-05-29T12:42:20Z</time>
      </trkpt>
      <trkpt lat="48.70228" lon="7.36591">
        <ele>258.101929</ele>
        <time>2010-05-29T12:42:24Z</time>
      </trkpt>
      <trkpt lat="48.70219" lon="7.36593">
        <ele>258.250366</ele>
        <time>2010-05-29T12:42:28Z</time>
      </trkpt>
      <trkpt lat="48.7021" lon="7.36598">
        <ele>258.289429</ele>
        <time>2010-05-29T12:44:57Z</time>
      </trkpt>
      <trkpt lat="48.702" lon="7.36599">
        <ele>258.812866</ele>
        <time>2010-05-29T12:45:16Z</time>
      </trkpt>
      <trkpt lat="48.70188" lon="7.36603">
        <ele>259.055054</ele>
        <time>2010-05-29T12:45:20Z</time>
      </trkpt>
      <trkpt lat="48.70178" lon="7.36608">
        <ele>258.805054</ele>
        <time>2010-05-29T12:45:23Z</time>
      </trkpt>
      <trkpt lat="48.70168" lon="7.36614">
        <ele>258.508179</ele>
        <time>2010-05-29T12:45:26Z</time>
      </trkpt>
      <trkpt lat="48.70157" lon="7.36619">
        <ele>258.125366</ele>
        <time>2010-05-29T12:45:29Z</time>
      </trkpt>
      <trkpt lat="48.70144" lon="7.36626">
        <ele>257.609741</ele>
        <time>2010-05-29T12:45:32Z</time>
      </trkpt>
      <trkpt lat="48.70132" lon="7.36631">
        <ele>257.664429</ele>
        <time>2010-05-29T12:45:35Z</time>
      </trkpt>
      <trkpt lat="48.70121" lon="7.36636">
        <ele>257.320679</ele>
        <time>2010-05-29T12:45:38Z</time>
      </trkpt>
      <trkpt lat="48.70109" lon="7.3664">
        <ele>257.055054</ele>
        <time>2010-05-29T12:45:41Z</time>
      </trkpt>
      <trkpt lat="48.70097" lon="7.36645">
        <ele>256.750366</ele>
        <time>2010-05-29T12:45:44Z</time>
      </trkpt>
      <trkpt lat="48.70086" lon="7.36649">
        <ele>257.187866</ele>
        <time>2010-05-29T12:45:47Z</time>
      </trkpt>
      <trkpt lat="48.70076" lon="7.36652">
        <ele>257.531616</ele>
        <time>2010-05-29T12:45:50Z</time>
      </trkpt>
      <trkpt lat="48.70065" lon="7.36654">
        <ele>257.890991</ele>
        <time>2010-05-29T12:45:54Z</time>
      </trkpt>
      <trkpt lat="48.70056" lon="7.36658">
        <ele>257.820679</ele>
        <time>2010-05-29T12:45:57Z</time>
      </trkpt>
      <trkpt lat="48.70044" lon="7.3666">
        <ele>257.953491</ele>
        <time>2010-05-29T12:46:01Z</time>
      </trkpt>
      <trkpt lat="48.70036" lon="7.36656">
        <ele>259.172241</ele>
        <time>2010-05-29T12:46:05Z</time>
      </trkpt>
      <trkpt lat="48.70024" lon="7.36662">
        <ele>258.547241</ele>
        <time>2010-05-29T12:46:09Z</time>
      </trkpt>
      <trkpt lat="48.70016" lon="7.36672">
        <ele>258.383179</ele>
        <time>2010-05-29T12:46:12Z</time>
      </trkpt>
      <trkpt lat="48.70006" lon="7.36686">
        <ele>258.125366</ele>
        <time>2010-05-29T12:46:15Z</time>
      </trkpt>
      <trkpt lat="48.69997" lon="7.36701">
        <ele>259.015991</ele>
        <time>2010-05-29T12:46:18Z</time>
      </trkpt>
      <trkpt lat="48.69989" lon="7.36713">
        <ele>259.219116</ele>
        <time>2010-05-29T12:46:20Z</time>
      </trkpt>
      <trkpt lat="48.69981" lon="7.36726">
        <ele>258.992554</ele>
        <time>2010-05-29T12:46:22Z</time>
      </trkpt>
      <trkpt lat="48.69973" lon="7.36739">
        <ele>259.078491</ele>
        <time>2010-05-29T12:46:24Z</time>
      </trkpt>
      <trkpt lat="48.69966" lon="7.36752">
        <ele>259.242554</ele>
        <time>2010-05-29T12:46:26Z</time>
      </trkpt>
      <trkpt lat="48.69957" lon="7.3676">
        <ele>259.828491</ele>
        <time>2010-05-29T12:46:28Z</time>
      </trkpt>
      <trkpt lat="48.69946" lon="7.36762">
        <ele>260.914429</ele>
        <time>2010-05-29T12:46:30Z</time>
      </trkpt>
      <trkpt lat="48.69936" lon="7.36761">
        <ele>262.578491</ele>
        <time>2010-05-29T12:46:33Z</time>
      </trkpt>
      <trkpt lat="48.69926" lon="7.3676">
        <ele>264.781616</ele>
        <time>2010-05-29T12:46:37Z</time>
      </trkpt>
      <trkpt lat="48.69917" lon="7.36752">
        <ele>266.156616</ele>
        <time>2010-05-29T12:46:42Z</time>
      </trkpt>
      <trkpt lat="48.6991" lon="7.36742">
        <ele>265.805054</ele>
        <time>2010-05-29T12:46:46Z</time>
      </trkpt>
      <trkpt lat="48.69902" lon="7.36732">
        <ele>266.258179</ele>
        <time>2010-05-29T12:46:51Z</time>
      </trkpt>
      <trkpt lat="48.69894" lon="7.36719">
        <ele>266.625366</ele>
        <time>2010-05-29T12:46:56Z</time>
      </trkpt>
      <trkpt lat="48.69888" lon="7.36708">
        <ele>266.976929</ele>
        <time>2010-05-29T12:47:00Z</time>
      </trkpt>
      <trkpt lat="48.69883" lon="7.36697">
        <ele>267.640991</ele>
        <time>2010-05-29T12:47:04Z</time>
      </trkpt>
      <trkpt lat="48.69878" lon="7.36685">
        <ele>268.539429</ele>
        <time>2010-05-29T12:47:08Z</time>
      </trkpt>
      <trkpt lat="48.69868" lon="7.36677">
        <ele>268.898804</ele>
        <time>2010-05-29T12:47:13Z</time>
      </trkpt>
      <trkpt lat="48.69858" lon="7.36675">
        <ele>269.500366</ele>
        <time>2010-05-29T12:47:17Z</time>
      </trkpt>
      <trkpt lat="48.69848" lon="7.36673">
        <ele>269.930054</ele>
        <time>2010-05-29T12:47:21Z</time>
      </trkpt>
      <trkpt lat="48.69837" lon="7.3667">
        <ele>270.258179</ele>
        <time>2010-05-29T12:47:25Z</time>
      </trkpt>
      <trkpt lat="48.69827" lon="7.36667">
        <ele>270.500366</ele>
        <time>2010-05-29T12:47:29Z</time>
      </trkpt>
      <trkpt lat="48.69819" lon="7.36662">
        <ele>271.180054</ele>
        <time>2010-05-29T12:47:34Z</time>
      </trkpt>
      <trkpt lat="48.69812" lon="7.36651">
        <ele>271.406616</ele>
        <time>2010-05-29T12:47:39Z</time>
      </trkpt>
      <trkpt lat="48.69806" lon="7.36641">
        <ele>272.265991</ele>
        <time>2010-05-29T12:47:44Z</time>
      </trkpt>
      <trkpt lat="48.69799" lon="7.36631">
        <ele>274.094116</ele>
        <time>2010-05-29T12:47:51Z</time>
      </trkpt>
      <trkpt lat="48.69803" lon="7.36645">
        <ele>272.797241</ele>
        <time>2010-05-29T12:49:34Z</time>
      </trkpt>
      <trkpt lat="48.69811" lon="7.36655">
        <ele>272.336304</ele>
        <time>2010-05-29T12:49:37Z</time>
      </trkpt>
      <trkpt lat="48.69814" lon="7.3667">
        <ele>271.726929</ele>
        <time>2010-05-29T12:49:40Z</time>
      </trkpt>
      <trkpt lat="48.69804" lon="7.36678">
        <ele>272.726929</ele>
        <time>2010-05-29T12:49:44Z</time>
      </trkpt>
      <trkpt lat="48.69795" lon="7.36675">
        <ele>272.711304</ele>
        <time>2010-05-29T12:49:48Z</time>
      </trkpt>
      <trkpt lat="48.69784" lon="7.36673">
        <ele>272.922241</ele>
        <time>2010-05-29T12:49:51Z</time>
      </trkpt>
      <trkpt lat="48.69772" lon="7.36673">
        <ele>273.140991</ele>
        <time>2010-05-29T12:49:54Z</time>
      </trkpt>
      <trkpt lat="48.69761" lon="7.36679">
        <ele>272.805054</ele>
        <time>2010-05-29T12:49:57Z</time>
      </trkpt>
      <trkpt lat="48.69756" lon="7.36696">
        <ele>271.586304</ele>
        <time>2010-05-29T12:50:00Z</time>
      </trkpt>
      <trkpt lat="48.69753" lon="7.36709">
        <ele>270.851929</ele>
        <time>2010-05-29T12:50:02Z</time>
      </trkpt>
      <trkpt lat="48.6975" lon="7.36724">
        <ele>270.148804</ele>
        <time>2010-05-29T12:50:37Z</time>
      </trkpt>
      <trkpt lat="48.69756" lon="7.36713">
        <ele>270.445679</ele>
        <time>2010-05-29T12:51:38Z</time>
      </trkpt>
      <trkpt lat="48.69755" lon="7.36699">
        <ele>269.297241</ele>
        <time>2010-05-29T12:53:04Z</time>
      </trkpt>
      <trkpt lat="48.69759" lon="7.36687">
        <ele>269.492554</ele>
        <time>2010-05-29T12:53:09Z</time>
      </trkpt>
      <trkpt lat="48.69766" lon="7.36676">
        <ele>269.594116</ele>
        <time>2010-05-29T12:53:13Z</time>
      </trkpt>
      <trkpt lat="48.69777" lon="7.36672">
        <ele>269.594116</ele>
        <time>2010-05-29T12:53:17Z</time>
      </trkpt>
      <trkpt lat="48.69788" lon="7.36671">
        <ele>269.133179</ele>
        <time>2010-05-29T12:53:21Z</time>
      </trkpt>
      <trkpt lat="48.69799" lon="7.36675">
        <ele>268.812866</ele>
        <time>2010-05-29T12:53:24Z</time>
      </trkpt>
      <trkpt lat="48.69811" lon="7.36675">
        <ele>268.531616</ele>
        <time>2010-05-29T12:53:27Z</time>
      </trkpt>
      <trkpt lat="48.69815" lon="7.36664">
        <ele>268.875366</ele>
        <time>2010-05-29T12:53:30Z</time>
      </trkpt>
      <trkpt lat="48.69809" lon="7.3665">
        <ele>269.961304</ele>
        <time>2010-05-29T12:53:34Z</time>
      </trkpt>
      <trkpt lat="48.69803" lon="7.36637">
        <ele>270.726929</ele>
        <time>2010-05-29T12:53:38Z</time>
      </trkpt>
      <trkpt lat="48.69806" lon="7.36625">
        <ele>271.539429</ele>
        <time>2010-05-29T12:53:42Z</time>
      </trkpt>
      <trkpt lat="48.69814" lon="7.36613">
        <ele>272.242554</ele>
        <time>2010-05-29T12:53:46Z</time>
      </trkpt>
      <trkpt lat="48.69822" lon="7.36605">
        <ele>271.023804</ele>
        <time>2010-05-29T12:53:49Z</time>
      </trkpt>
      <trkpt lat="48.69829" lon="7.36597">
        <ele>270.820679</ele>
        <time>2010-05-29T12:53:52Z</time>
      </trkpt>
      <trkpt lat="48.69837" lon="7.36589">
        <ele>270.609741</ele>
        <time>2010-05-29T12:53:55Z</time>
      </trkpt>
      <trkpt lat="48.69845" lon="7.36577">
        <ele>270.180054</ele>
        <time>2010-05-29T12:53:59Z</time>
      </trkpt>
      <trkpt lat="48.69852" lon="7.36566">
        <ele>269.836304</ele>
        <time>2010-05-29T12:54:02Z</time>
      </trkpt>
      <trkpt lat="48.69858" lon="7.36554">
        <ele>270.140991</ele>
        <time>2010-05-29T12:54:05Z</time>
      </trkpt>
      <trkpt lat="48.69865" lon="7.36545">
        <ele>270.820679</ele>
        <time>2010-05-29T12:54:08Z</time>
      </trkpt>
      <trkpt lat="48.69871" lon="7.36534">
        <ele>270.648804</ele>
        <time>2010-05-29T12:54:11Z</time>
      </trkpt>
      <trkpt lat="48.69876" lon="7.36522">
        <ele>270.125366</ele>
        <time>2010-05-29T12:54:14Z</time>
      </trkpt>
      <trkpt lat="48.69881" lon="7.3651">
        <ele>270.047241</ele>
        <time>2010-05-29T12:54:17Z</time>
      </trkpt>
      <trkpt lat="48.69885" lon="7.36497">
        <ele>270.109741</ele>
        <time>2010-05-29T12:54:20Z</time>
      </trkpt>
      <trkpt lat="48.69889" lon="7.36484">
        <ele>269.687866</ele>
        <time>2010-05-29T12:54:23Z</time>
      </trkpt>
      <trkpt lat="48.69893" lon="7.36472">
        <ele>269.297241</ele>
        <time>2010-05-29T12:54:26Z</time>
      </trkpt>
      <trkpt lat="48.69896" lon="7.36459">
        <ele>269.758179</ele>
        <time>2010-05-29T12:54:29Z</time>
      </trkpt>
      <trkpt lat="48.69899" lon="7.36445">
        <ele>269.758179</ele>
        <time>2010-05-29T12:54:32Z</time>
      </trkpt>
      <trkpt lat="48.69902" lon="7.36431">
        <ele>269.976929</ele>
        <time>2010-05-29T12:54:35Z</time>
      </trkpt>
      <trkpt lat="48.69903" lon="7.36416">
        <ele>269.758179</ele>
        <time>2010-05-29T12:54:38Z</time>
      </trkpt>
      <trkpt lat="48.69906" lon="7.364">
        <ele>269.398804</ele>
        <time>2010-05-29T12:54:41Z</time>
      </trkpt>
      <trkpt lat="48.69908" lon="7.36384">
        <ele>269.234741</ele>
        <time>2010-05-29T12:54:44Z</time>
      </trkpt>
      <trkpt lat="48.6991" lon="7.36369">
        <ele>269.242554</ele>
        <time>2010-05-29T12:54:47Z</time>
      </trkpt>
      <trkpt lat="48.69913" lon="7.36354">
        <ele>269.383179</ele>
        <time>2010-05-29T12:54:50Z</time>
      </trkpt>
      <trkpt lat="48.69916" lon="7.36338">
        <ele>269.992554</ele>
        <time>2010-05-29T12:54:53Z</time>
      </trkpt>
      <trkpt lat="48.69919" lon="7.36323">
        <ele>270.305054</ele>
        <time>2010-05-29T12:54:56Z</time>
      </trkpt>
      <trkpt lat="48.69922" lon="7.36307">
        <ele>270.430054</ele>
        <time>2010-05-29T12:54:59Z</time>
      </trkpt>
      <trkpt lat="48.69922" lon="7.36292">
        <ele>270.328491</ele>
        <time>2010-05-29T12:55:02Z</time>
      </trkpt>
      <trkpt lat="48.69921" lon="7.36278">
        <ele>271.023804</ele>
        <time>2010-05-29T12:55:05Z</time>
      </trkpt>
      <trkpt lat="48.69921" lon="7.36263">
        <ele>271.633179</ele>
        <time>2010-05-29T12:55:08Z</time>
      </trkpt>
      <trkpt lat="48.69921" lon="7.36249">
        <ele>272.023804</ele>
        <time>2010-05-29T12:55:11Z</time>
      </trkpt>
      <trkpt lat="48.69921" lon="7.36235">
        <ele>271.765991</ele>
        <time>2010-05-29T12:55:14Z</time>
      </trkpt>
      <trkpt lat="48.69921" lon="7.36221">
        <ele>271.805054</ele>
        <time>2010-05-29T12:55:17Z</time>
      </trkpt>
      <trkpt lat="48.69921" lon="7.36207">
        <ele>271.437866</ele>
        <time>2010-05-29T12:55:20Z</time>
      </trkpt>
      <trkpt lat="48.69918" lon="7.36192">
        <ele>271.359741</ele>
        <time>2010-05-29T12:55:25Z</time>
      </trkpt>
      <trkpt lat="48.6992" lon="7.36177">
        <ele>270.351929</ele>
        <time>2010-05-29T12:56:01Z</time>
      </trkpt>
      <trkpt lat="48.69909" lon="7.36172">
        <ele>271.367554</ele>
        <time>2010-05-29T12:56:10Z</time>
      </trkpt>
      <trkpt lat="48.69898" lon="7.36168">
        <ele>272.055054</ele>
        <time>2010-05-29T12:56:14Z</time>
      </trkpt>
      <trkpt lat="48.69889" lon="7.36164">
        <ele>272.656616</ele>
        <time>2010-05-29T12:56:18Z</time>
      </trkpt>
      <trkpt lat="48.6988" lon="7.36159">
        <ele>273.336304</ele>
        <time>2010-05-29T12:56:23Z</time>
      </trkpt>
      <trkpt lat="48.6987" lon="7.36153">
        <ele>274.047241</ele>
        <time>2010-05-29T12:56:29Z</time>
      </trkpt>
      <trkpt lat="48.69861" lon="7.36146">
        <ele>275.101929</ele>
        <time>2010-05-29T12:56:35Z</time>
      </trkpt>
      <trkpt lat="48.69852" lon="7.36138">
        <ele>276.570679</ele>
        <time>2010-05-29T12:56:42Z</time>
      </trkpt>
      <trkpt lat="48.69843" lon="7.36131">
        <ele>277.422241</ele>
        <time>2010-05-29T12:56:48Z</time>
      </trkpt>
      <trkpt lat="48.69835" lon="7.36124">
        <ele>278.984741</ele>
        <time>2010-05-29T12:57:00Z</time>
      </trkpt>
      <trkpt lat="48.69827" lon="7.36118">
        <ele>279.805054</ele>
        <time>2010-05-29T12:57:05Z</time>
      </trkpt>
      <trkpt lat="48.69819" lon="7.3611">
        <ele>280.609741</ele>
        <time>2010-05-29T12:57:12Z</time>
      </trkpt>
      <trkpt lat="48.6981" lon="7.36102">
        <ele>281.015991</ele>
        <time>2010-05-29T12:57:22Z</time>
      </trkpt>
      <trkpt lat="48.69802" lon="7.36094">
        <ele>281.570679</ele>
        <time>2010-05-29T12:57:28Z</time>
      </trkpt>
      <trkpt lat="48.69794" lon="7.36086">
        <ele>282.109741</ele>
        <time>2010-05-29T12:57:35Z</time>
      </trkpt>
      <trkpt lat="48.69786" lon="7.36077">
        <ele>282.765991</ele>
        <time>2010-05-29T12:57:42Z</time>
      </trkpt>
      <trkpt lat="48.69777" lon="7.3607">
        <ele>283.539429</ele>
        <time>2010-05-29T12:57:48Z</time>
      </trkpt>
      <trkpt lat="48.69768" lon="7.36063">
        <ele>284.398804</ele>
        <time>2010-05-29T12:57:55Z</time>
      </trkpt>
      <trkpt lat="48.6976" lon="7.36057">
        <ele>285.195679</ele>
        <time>2010-05-29T12:58:02Z</time>
      </trkpt>
      <trkpt lat="48.69753" lon="7.36048">
        <ele>285.484741</ele>
        <time>2010-05-29T12:58:11Z</time>
      </trkpt>
      <trkpt lat="48.69743" lon="7.36042">
        <ele>286.773804</ele>
        <time>2010-05-29T12:58:17Z</time>
      </trkpt>
      <trkpt lat="48.69735" lon="7.36035">
        <ele>287.297241</ele>
        <time>2010-05-29T12:58:22Z</time>
      </trkpt>
      <trkpt lat="48.69724" lon="7.36027">
        <ele>288.508179</ele>
        <time>2010-05-29T12:58:27Z</time>
      </trkpt>
      <trkpt lat="48.69714" lon="7.36018">
        <ele>289.047241</ele>
        <time>2010-05-29T12:58:31Z</time>
      </trkpt>
      <trkpt lat="48.69705" lon="7.36012">
        <ele>289.937866</ele>
        <time>2010-05-29T12:58:35Z</time>
      </trkpt>
      <trkpt lat="48.69696" lon="7.36004">
        <ele>290.765991</ele>
        <time>2010-05-29T12:58:39Z</time>
      </trkpt>
      <trkpt lat="48.69688" lon="7.35996">
        <ele>291.726929</ele>
        <time>2010-05-29T12:58:44Z</time>
      </trkpt>
      <trkpt lat="48.6968" lon="7.35988">
        <ele>292.875366</ele>
        <time>2010-05-29T12:58:51Z</time>
      </trkpt>
      <trkpt lat="48.69671" lon="7.35979">
        <ele>293.367554</ele>
        <time>2010-05-29T12:58:57Z</time>
      </trkpt>
      <trkpt lat="48.69664" lon="7.3597">
        <ele>293.445679</ele>
        <time>2010-05-29T12:59:02Z</time>
      </trkpt>
      <trkpt lat="48.69656" lon="7.35959">
        <ele>293.656616</ele>
        <time>2010-05-29T12:59:07Z</time>
      </trkpt>
      <trkpt lat="48.69649" lon="7.35951">
        <ele>293.711304</ele>
        <time>2010-05-29T12:59:12Z</time>
      </trkpt>
      <trkpt lat="48.69641" lon="7.35941">
        <ele>294.156616</ele>
        <time>2010-05-29T12:59:18Z</time>
      </trkpt>
      <trkpt lat="48.69632" lon="7.35933">
        <ele>294.609741</ele>
        <time>2010-05-29T12:59:23Z</time>
      </trkpt>
      <trkpt lat="48.69624" lon="7.35925">
        <ele>295.547241</ele>
        <time>2010-05-29T12:59:28Z</time>
      </trkpt>
      <trkpt lat="48.69616" lon="7.35917">
        <ele>295.969116</ele>
        <time>2010-05-29T12:59:34Z</time>
      </trkpt>
      <trkpt lat="48.69608" lon="7.35909">
        <ele>296.469116</ele>
        <time>2010-05-29T12:59:39Z</time>
      </trkpt>
      <trkpt lat="48.69598" lon="7.35901">
        <ele>296.640991</ele>
        <time>2010-05-29T12:59:45Z</time>
      </trkpt>
      <trkpt lat="48.69589" lon="7.35897">
        <ele>296.812866</ele>
        <time>2010-05-29T12:59:50Z</time>
      </trkpt>
      <trkpt lat="48.69578" lon="7.35893">
        <ele>296.562866</ele>
        <time>2010-05-29T12:59:55Z</time>
      </trkpt>
      <trkpt lat="48.69568" lon="7.35891">
        <ele>297.070679</ele>
        <time>2010-05-29T13:00:00Z</time>
      </trkpt>
      <trkpt lat="48.69558" lon="7.35888">
        <ele>297.344116</ele>
        <time>2010-05-29T13:00:04Z</time>
      </trkpt>
      <trkpt lat="48.69548" lon="7.35888">
        <ele>297.890991</ele>
        <time>2010-05-29T13:00:08Z</time>
      </trkpt>
      <trkpt lat="48.69538" lon="7.35885">
        <ele>297.703491</ele>
        <time>2010-05-29T13:00:12Z</time>
      </trkpt>
      <trkpt lat="48.69528" lon="7.35883">
        <ele>297.812866</ele>
        <time>2010-05-29T13:00:15Z</time>
      </trkpt>
      <trkpt lat="48.69519" lon="7.35884">
        <ele>298.656616</ele>
        <time>2010-05-29T13:00:18Z</time>
      </trkpt>
      <trkpt lat="48.69509" lon="7.35884">
        <ele>298.601929</ele>
        <time>2010-05-29T13:00:21Z</time>
      </trkpt>
      <trkpt lat="48.695" lon="7.35886">
        <ele>298.680054</ele>
        <time>2010-05-29T13:00:24Z</time>
      </trkpt>
      <trkpt lat="48.6949" lon="7.3589">
        <ele>299.250366</ele>
        <time>2010-05-29T13:00:27Z</time>
      </trkpt>
      <trkpt lat="48.69481" lon="7.35895">
        <ele>298.687866</ele>
        <time>2010-05-29T13:00:30Z</time>
      </trkpt>
      <trkpt lat="48.6947" lon="7.35896">
        <ele>298.562866</ele>
        <time>2010-05-29T13:00:33Z</time>
      </trkpt>
      <trkpt lat="48.69461" lon="7.35896">
        <ele>297.984741</ele>
        <time>2010-05-29T13:00:36Z</time>
      </trkpt>
      <trkpt lat="48.69449" lon="7.35893">
        <ele>298.484741</ele>
        <time>2010-05-29T13:00:39Z</time>
      </trkpt>
      <trkpt lat="48.6944" lon="7.35889">
        <ele>298.070679</ele>
        <time>2010-05-29T13:00:42Z</time>
      </trkpt>
      <trkpt lat="48.69429" lon="7.35883">
        <ele>299.531616</ele>
        <time>2010-05-29T13:00:45Z</time>
      </trkpt>
      <trkpt lat="48.69419" lon="7.35879">
        <ele>299.469116</ele>
        <time>2010-05-29T13:00:48Z</time>
      </trkpt>
      <trkpt lat="48.69409" lon="7.35875">
        <ele>298.812866</ele>
        <time>2010-05-29T13:00:51Z</time>
      </trkpt>
      <trkpt lat="48.69399" lon="7.35869">
        <ele>299.992554</ele>
        <time>2010-05-29T13:00:56Z</time>
      </trkpt>
      <trkpt lat="48.69391" lon="7.3587">
        <ele>295.844116</ele>
        <time>2010-05-29T13:02:48Z</time>
      </trkpt>
      <trkpt lat="48.69381" lon="7.35868">
        <ele>296.562866</ele>
        <time>2010-05-29T13:02:52Z</time>
      </trkpt>
      <trkpt lat="48.69371" lon="7.35866">
        <ele>297.031616</ele>
        <time>2010-05-29T13:02:55Z</time>
      </trkpt>
      <trkpt lat="48.69361" lon="7.35864">
        <ele>297.937866</ele>
        <time>2010-05-29T13:02:58Z</time>
      </trkpt>
      <trkpt lat="48.69353" lon="7.35857">
        <ele>300.383179</ele>
        <time>2010-05-29T13:03:01Z</time>
      </trkpt>
      <trkpt lat="48.69345" lon="7.35848">
        <ele>301.437866</ele>
        <time>2010-05-29T13:03:05Z</time>
      </trkpt>
      <trkpt lat="48.69343" lon="7.35833">
        <ele>303.195679</ele>
        <time>2010-05-29T13:03:10Z</time>
      </trkpt>
      <trkpt lat="48.69342" lon="7.35818">
        <ele>304.953491</ele>
        <time>2010-05-29T13:03:15Z</time>
      </trkpt>
      <trkpt lat="48.69343" lon="7.35803">
        <ele>307.344116</ele>
        <time>2010-05-29T13:03:19Z</time>
      </trkpt>
      <trkpt lat="48.69342" lon="7.35789">
        <ele>307.781616</ele>
        <time>2010-05-29T13:03:23Z</time>
      </trkpt>
      <trkpt lat="48.69343" lon="7.35775">
        <ele>309.008179</ele>
        <time>2010-05-29T13:03:27Z</time>
      </trkpt>
      <trkpt lat="48.69344" lon="7.3576">
        <ele>309.320679</ele>
        <time>2010-05-29T13:03:31Z</time>
      </trkpt>
      <trkpt lat="48.69346" lon="7.35744">
        <ele>310.375366</ele>
        <time>2010-05-29T13:03:35Z</time>
      </trkpt>
      <trkpt lat="48.69346" lon="7.35728">
        <ele>310.664429</ele>
        <time>2010-05-29T13:03:39Z</time>
      </trkpt>
      <trkpt lat="48.69345" lon="7.35714">
        <ele>310.328491</ele>
        <time>2010-05-29T13:03:42Z</time>
      </trkpt>
      <trkpt lat="48.69344" lon="7.35697">
        <ele>309.789429</ele>
        <time>2010-05-29T13:03:45Z</time>
      </trkpt>
      <trkpt lat="48.6934" lon="7.35679">
        <ele>308.961304</ele>
        <time>2010-05-29T13:03:48Z</time>
      </trkpt>
      <trkpt lat="48.69335" lon="7.3566">
        <ele>308.906616</ele>
        <time>2010-05-29T13:03:51Z</time>
      </trkpt>
      <trkpt lat="48.6933" lon="7.35648">
        <ele>308.640991</ele>
        <time>2010-05-29T13:03:53Z</time>
      </trkpt>
      <trkpt lat="48.69324" lon="7.35629">
        <ele>308.711304</ele>
        <time>2010-05-29T13:03:56Z</time>
      </trkpt>
      <trkpt lat="48.6932" lon="7.35611">
        <ele>310.711304</ele>
        <time>2010-05-29T13:03:59Z</time>
      </trkpt>
      <trkpt lat="48.69313" lon="7.35594">
        <ele>310.414429</ele>
        <time>2010-05-29T13:04:02Z</time>
      </trkpt>
      <trkpt lat="48.69307" lon="7.35582">
        <ele>309.961304</ele>
        <time>2010-05-29T13:04:04Z</time>
      </trkpt>
      <trkpt lat="48.69301" lon="7.3557">
        <ele>310.273804</ele>
        <time>2010-05-29T13:04:06Z</time>
      </trkpt>
      <trkpt lat="48.69296" lon="7.35559">
        <ele>310.187866</ele>
        <time>2010-05-29T13:04:08Z</time>
      </trkpt>
      <trkpt lat="48.69288" lon="7.35541">
        <ele>310.219116</ele>
        <time>2010-05-29T13:04:11Z</time>
      </trkpt>
      <trkpt lat="48.69283" lon="7.3553">
        <ele>309.820679</ele>
        <time>2010-05-29T13:04:13Z</time>
      </trkpt>
      <trkpt lat="48.69276" lon="7.35519">
        <ele>309.250366</ele>
        <time>2010-05-29T13:04:15Z</time>
      </trkpt>
      <trkpt lat="48.69268" lon="7.35506">
        <ele>309.297241</ele>
        <time>2010-05-29T13:04:17Z</time>
      </trkpt>
      <trkpt lat="48.6926" lon="7.35493">
        <ele>308.609741</ele>
        <time>2010-05-29T13:04:19Z</time>
      </trkpt>
      <trkpt lat="48.69254" lon="7.35481">
        <ele>309.070679</ele>
        <time>2010-05-29T13:04:21Z</time>
      </trkpt>
      <trkpt lat="48.69246" lon="7.35468">
        <ele>308.351929</ele>
        <time>2010-05-29T13:04:23Z</time>
      </trkpt>
      <trkpt lat="48.69239" lon="7.35457">
        <ele>308.680054</ele>
        <time>2010-05-29T13:04:25Z</time>
      </trkpt>
      <trkpt lat="48.69231" lon="7.35445">
        <ele>308.750366</ele>
        <time>2010-05-29T13:04:27Z</time>
      </trkpt>
      <trkpt lat="48.69224" lon="7.35433">
        <ele>309.344116</ele>
        <time>2010-05-29T13:04:29Z</time>
      </trkpt>
      <trkpt lat="48.69217" lon="7.35422">
        <ele>310.039429</ele>
        <time>2010-05-29T13:04:31Z</time>
      </trkpt>
      <trkpt lat="48.69212" lon="7.35411">
        <ele>309.695679</ele>
        <time>2010-05-29T13:04:33Z</time>
      </trkpt>
      <trkpt lat="48.69205" lon="7.35401">
        <ele>309.765991</ele>
        <time>2010-05-29T13:04:35Z</time>
      </trkpt>
      <trkpt lat="48.69196" lon="7.35391">
        <ele>309.664429</ele>
        <time>2010-05-29T13:04:37Z</time>
      </trkpt>
      <trkpt lat="48.69188" lon="7.3538">
        <ele>309.156616</ele>
        <time>2010-05-29T13:04:39Z</time>
      </trkpt>
      <trkpt lat="48.69181" lon="7.35369">
        <ele>310.758179</ele>
        <time>2010-05-29T13:04:41Z</time>
      </trkpt>
      <trkpt lat="48.69174" lon="7.35358">
        <ele>311.008179</ele>
        <time>2010-05-29T13:04:43Z</time>
      </trkpt>
      <trkpt lat="48.69167" lon="7.35349">
        <ele>312.101929</ele>
        <time>2010-05-29T13:04:45Z</time>
      </trkpt>
      <trkpt lat="48.69159" lon="7.35341">
        <ele>314.930054</ele>
        <time>2010-05-29T13:04:47Z</time>
      </trkpt>
      <trkpt lat="48.69152" lon="7.3533">
        <ele>314.695679</ele>
        <time>2010-05-29T13:04:49Z</time>
      </trkpt>
      <trkpt lat="48.69144" lon="7.35313">
        <ele>315.187866</ele>
        <time>2010-05-29T13:04:52Z</time>
      </trkpt>
      <trkpt lat="48.69138" lon="7.35301">
        <ele>315.969116</ele>
        <time>2010-05-29T13:04:54Z</time>
      </trkpt>
      <trkpt lat="48.69132" lon="7.35289">
        <ele>316.484741</ele>
        <time>2010-05-29T13:04:56Z</time>
      </trkpt>
      <trkpt lat="48.69126" lon="7.35275">
        <ele>317.305054</ele>
        <time>2010-05-29T13:04:58Z</time>
      </trkpt>
      <trkpt lat="48.69119" lon="7.35262">
        <ele>317.906616</ele>
        <time>2010-05-29T13:05:00Z</time>
      </trkpt>
      <trkpt lat="48.69111" lon="7.35249">
        <ele>318.430054</ele>
        <time>2010-05-29T13:05:02Z</time>
      </trkpt>
      <trkpt lat="48.69103" lon="7.35238">
        <ele>320.133179</ele>
        <time>2010-05-29T13:05:04Z</time>
      </trkpt>
      <trkpt lat="48.69096" lon="7.35227">
        <ele>320.445679</ele>
        <time>2010-05-29T13:05:06Z</time>
      </trkpt>
      <trkpt lat="48.69088" lon="7.35219">
        <ele>321.828491</ele>
        <time>2010-05-29T13:05:08Z</time>
      </trkpt>
      <trkpt lat="48.6908" lon="7.3521">
        <ele>321.812866</ele>
        <time>2010-05-29T13:05:10Z</time>
      </trkpt>
      <trkpt lat="48.69073" lon="7.35199">
        <ele>322.039429</ele>
        <time>2010-05-29T13:05:12Z</time>
      </trkpt>
      <trkpt lat="48.69063" lon="7.35189">
        <ele>320.039429</ele>
        <time>2010-05-29T13:05:14Z</time>
      </trkpt>
      <trkpt lat="48.69055" lon="7.35179">
        <ele>321.070679</ele>
        <time>2010-05-29T13:05:16Z</time>
      </trkpt>
      <trkpt lat="48.69048" lon="7.35168">
        <ele>321.367554</ele>
        <time>2010-05-29T13:05:18Z</time>
      </trkpt>
      <trkpt lat="48.69042" lon="7.35153">
        <ele>324.672241</ele>
        <time>2010-05-29T13:05:20Z</time>
      </trkpt>
      <trkpt lat="48.69037" lon="7.35137">
        <ele>326.695679</ele>
        <time>2010-05-29T13:05:22Z</time>
      </trkpt>
      <trkpt lat="48.69034" lon="7.3512">
        <ele>328.430054</ele>
        <time>2010-05-29T13:05:24Z</time>
      </trkpt>
      <trkpt lat="48.69032" lon="7.35103">
        <ele>328.476929</ele>
        <time>2010-05-29T13:05:26Z</time>
      </trkpt>
      <trkpt lat="48.69029" lon="7.35088">
        <ele>329.125366</ele>
        <time>2010-05-29T13:05:28Z</time>
      </trkpt>
      <trkpt lat="48.69023" lon="7.35071">
        <ele>326.390991</ele>
        <time>2010-05-29T13:05:30Z</time>
      </trkpt>
      <trkpt lat="48.69017" lon="7.35051">
        <ele>326.148804</ele>
        <time>2010-05-29T13:05:32Z</time>
      </trkpt>
      <trkpt lat="48.69011" lon="7.35035">
        <ele>327.500366</ele>
        <time>2010-05-29T13:05:34Z</time>
      </trkpt>
      <trkpt lat="48.69003" lon="7.35018">
        <ele>326.508179</ele>
        <time>2010-05-29T13:05:36Z</time>
      </trkpt>
      <trkpt lat="48.68993" lon="7.35">
        <ele>325.047241</ele>
        <time>2010-05-29T13:05:38Z</time>
      </trkpt>
      <trkpt lat="48.68986" lon="7.34984">
        <ele>324.734741</ele>
        <time>2010-05-29T13:05:40Z</time>
      </trkpt>
      <trkpt lat="48.68981" lon="7.34968">
        <ele>324.539429</ele>
        <time>2010-05-29T13:05:42Z</time>
      </trkpt>
      <trkpt lat="48.68975" lon="7.34954">
        <ele>326.734741</ele>
        <time>2010-05-29T13:05:44Z</time>
      </trkpt>
      <trkpt lat="48.68971" lon="7.34938">
        <ele>327.023804</ele>
        <time>2010-05-29T13:05:46Z</time>
      </trkpt>
      <trkpt lat="48.68966" lon="7.34921">
        <ele>329.937866</ele>
        <time>2010-05-29T13:05:48Z</time>
      </trkpt>
      <trkpt lat="48.68963" lon="7.34904">
        <ele>331.265991</ele>
        <time>2010-05-29T13:05:50Z</time>
      </trkpt>
      <trkpt lat="48.68956" lon="7.34886">
        <ele>331.531616</ele>
        <time>2010-05-29T13:05:52Z</time>
      </trkpt>
      <trkpt lat="48.68948" lon="7.34866">
        <ele>331.711304</ele>
        <time>2010-05-29T13:05:54Z</time>
      </trkpt>
      <trkpt lat="48.68945" lon="7.34845">
        <ele>332.422241</ele>
        <time>2010-05-29T13:05:56Z</time>
      </trkpt>
      <trkpt lat="48.68941" lon="7.34827">
        <ele>333.219116</ele>
        <time>2010-05-29T13:05:58Z</time>
      </trkpt>
      <trkpt lat="48.68939" lon="7.34809">
        <ele>334.812866</ele>
        <time>2010-05-29T13:06:00Z</time>
      </trkpt>
      <trkpt lat="48.68933" lon="7.34791">
        <ele>335.578491</ele>
        <time>2010-05-29T13:06:02Z</time>
      </trkpt>
      <trkpt lat="48.68928" lon="7.34772">
        <ele>336.461304</ele>
        <time>2010-05-29T13:06:04Z</time>
      </trkpt>
      <trkpt lat="48.68919" lon="7.34756">
        <ele>337.555054</ele>
        <time>2010-05-29T13:06:06Z</time>
      </trkpt>
      <trkpt lat="48.68912" lon="7.3474">
        <ele>338.578491</ele>
        <time>2010-05-29T13:06:08Z</time>
      </trkpt>
      <trkpt lat="48.68905" lon="7.34723">
        <ele>339.031616</ele>
        <time>2010-05-29T13:06:10Z</time>
      </trkpt>
      <trkpt lat="48.689" lon="7.34707">
        <ele>338.508179</ele>
        <time>2010-05-29T13:06:12Z</time>
      </trkpt>
      <trkpt lat="48.68894" lon="7.3469">
        <ele>339.937866</ele>
        <time>2010-05-29T13:06:14Z</time>
      </trkpt>
      <trkpt lat="48.68892" lon="7.34674">
        <ele>340.594116</ele>
        <time>2010-05-29T13:06:16Z</time>
      </trkpt>
      <trkpt lat="48.68885" lon="7.34654">
        <ele>339.789429</ele>
        <time>2010-05-29T13:06:18Z</time>
      </trkpt>
      <trkpt lat="48.6888" lon="7.34636">
        <ele>338.961304</ele>
        <time>2010-05-29T13:06:20Z</time>
      </trkpt>
      <trkpt lat="48.68874" lon="7.34621">
        <ele>335.625366</ele>
        <time>2010-05-29T13:06:22Z</time>
      </trkpt>
      <trkpt lat="48.68866" lon="7.34606">
        <ele>334.805054</ele>
        <time>2010-05-29T13:06:24Z</time>
      </trkpt>
      <trkpt lat="48.68859" lon="7.3459">
        <ele>334.094116</ele>
        <time>2010-05-29T13:06:26Z</time>
      </trkpt>
      <trkpt lat="48.6885" lon="7.34574">
        <ele>334.156616</ele>
        <time>2010-05-29T13:06:28Z</time>
      </trkpt>
      <trkpt lat="48.68842" lon="7.34557">
        <ele>334.765991</ele>
        <time>2010-05-29T13:06:30Z</time>
      </trkpt>
      <trkpt lat="48.68833" lon="7.34539">
        <ele>333.109741</ele>
        <time>2010-05-29T13:06:32Z</time>
      </trkpt>
      <trkpt lat="48.68824" lon="7.34523">
        <ele>332.320679</ele>
        <time>2010-05-29T13:06:34Z</time>
      </trkpt>
      <trkpt lat="48.68816" lon="7.34508">
        <ele>334.680054</ele>
        <time>2010-05-29T13:06:36Z</time>
      </trkpt>
      <trkpt lat="48.68809" lon="7.34493">
        <ele>334.820679</ele>
        <time>2010-05-29T13:06:38Z</time>
      </trkpt>
      <trkpt lat="48.68801" lon="7.34478">
        <ele>333.726929</ele>
        <time>2010-05-29T13:06:40Z</time>
      </trkpt>
      <trkpt lat="48.68794" lon="7.34467">
        <ele>331.453491</ele>
        <time>2010-05-29T13:06:42Z</time>
      </trkpt>
      <trkpt lat="48.68787" lon="7.34458">
        <ele>325.656616</ele>
        <time>2010-05-29T13:06:45Z</time>
      </trkpt>
      <trkpt lat="48.68782" lon="7.34447">
        <ele>324.344116</ele>
        <time>2010-05-29T13:06:57Z</time>
      </trkpt>
      <trkpt lat="48.68774" lon="7.34454">
        <ele>326.984741</ele>
        <time>2010-05-29T13:07:58Z</time>
      </trkpt>
      <trkpt lat="48.68775" lon="7.3444">
        <ele>326.539429</ele>
        <time>2010-05-29T13:09:36Z</time>
      </trkpt>
      <trkpt lat="48.68769" lon="7.34431">
        <ele>322.726929</ele>
        <time>2010-05-29T13:12:26Z</time>
      </trkpt>
      <trkpt lat="48.68762" lon="7.34419">
        <ele>321.695679</ele>
        <time>2010-05-29T13:12:31Z</time>
      </trkpt>
      <trkpt lat="48.68757" lon="7.34409">
        <ele>320.258179</ele>
        <time>2010-05-29T13:12:38Z</time>
      </trkpt>
      <trkpt lat="48.6875" lon="7.34399">
        <ele>318.672241</ele>
        <time>2010-05-29T13:12:42Z</time>
      </trkpt>
      <trkpt lat="48.68744" lon="7.34387">
        <ele>316.805054</ele>
        <time>2010-05-29T13:12:45Z</time>
      </trkpt>
      <trkpt lat="48.68734" lon="7.3437">
        <ele>315.125366</ele>
        <time>2010-05-29T13:12:48Z</time>
      </trkpt>
      <trkpt lat="48.68727" lon="7.34357">
        <ele>314.187866</ele>
        <time>2010-05-29T13:12:50Z</time>
      </trkpt>
      <trkpt lat="48.6872" lon="7.34344">
        <ele>313.437866</ele>
        <time>2010-05-29T13:12:52Z</time>
      </trkpt>
      <trkpt lat="48.68712" lon="7.34329">
        <ele>313.086304</ele>
        <time>2010-05-29T13:12:54Z</time>
      </trkpt>
      <trkpt lat="48.68705" lon="7.3432">
        <ele>313.422241</ele>
        <time>2010-05-29T13:12:56Z</time>
      </trkpt>
      <trkpt lat="48.68698" lon="7.3431">
        <ele>314.015991</ele>
        <time>2010-05-29T13:13:00Z</time>
      </trkpt>
      <trkpt lat="48.68689" lon="7.34303">
        <ele>313.203491</ele>
        <time>2010-05-29T13:13:03Z</time>
      </trkpt>
      <trkpt lat="48.68683" lon="7.34293">
        <ele>315.140991</ele>
        <time>2010-05-29T13:13:06Z</time>
      </trkpt>
      <trkpt lat="48.68676" lon="7.34281">
        <ele>315.851929</ele>
        <time>2010-05-29T13:13:09Z</time>
      </trkpt>
      <trkpt lat="48.68668" lon="7.34274">
        <ele>315.101929</ele>
        <time>2010-05-29T13:13:11Z</time>
      </trkpt>
      <trkpt lat="48.68658" lon="7.34268">
        <ele>315.055054</ele>
        <time>2010-05-29T13:13:13Z</time>
      </trkpt>
      <trkpt lat="48.6865" lon="7.34261">
        <ele>315.336304</ele>
        <time>2010-05-29T13:13:15Z</time>
      </trkpt>
      <trkpt lat="48.6864" lon="7.34253">
        <ele>314.867554</ele>
        <time>2010-05-29T13:13:18Z</time>
      </trkpt>
      <trkpt lat="48.6863" lon="7.34244">
        <ele>315.250366</ele>
        <time>2010-05-29T13:13:21Z</time>
      </trkpt>
      <trkpt lat="48.6862" lon="7.34233">
        <ele>316.625366</ele>
        <time>2010-05-29T13:13:24Z</time>
      </trkpt>
      <trkpt lat="48.6861" lon="7.3422">
        <ele>317.945679</ele>
        <time>2010-05-29T13:13:27Z</time>
      </trkpt>
      <trkpt lat="48.68602" lon="7.34212">
        <ele>315.156616</ele>
        <time>2010-05-29T13:13:29Z</time>
      </trkpt>
      <trkpt lat="48.68593" lon="7.34201">
        <ele>315.047241</ele>
        <time>2010-05-29T13:13:32Z</time>
      </trkpt>
      <trkpt lat="48.68586" lon="7.34192">
        <ele>314.039429</ele>
        <time>2010-05-29T13:13:34Z</time>
      </trkpt>
      <trkpt lat="48.68579" lon="7.34183">
        <ele>312.148804</ele>
        <time>2010-05-29T13:13:36Z</time>
      </trkpt>
      <trkpt lat="48.68569" lon="7.34171">
        <ele>311.000366</ele>
        <time>2010-05-29T13:13:39Z</time>
      </trkpt>
      <trkpt lat="48.68557" lon="7.34158">
        <ele>310.578491</ele>
        <time>2010-05-29T13:13:42Z</time>
      </trkpt>
      <trkpt lat="48.68549" lon="7.34145">
        <ele>312.305054</ele>
        <time>2010-05-29T13:13:45Z</time>
      </trkpt>
      <trkpt lat="48.68541" lon="7.34131">
        <ele>311.875366</ele>
        <time>2010-05-29T13:13:48Z</time>
      </trkpt>
      <trkpt lat="48.68536" lon="7.34121">
        <ele>309.148804</ele>
        <time>2010-05-29T13:13:51Z</time>
      </trkpt>
      <trkpt lat="48.68529" lon="7.34108">
        <ele>307.164429</ele>
        <time>2010-05-29T13:13:54Z</time>
      </trkpt>
      <trkpt lat="48.68522" lon="7.34093">
        <ele>306.711304</ele>
        <time>2010-05-29T13:13:57Z</time>
      </trkpt>
      <trkpt lat="48.68514" lon="7.34079">
        <ele>306.086304</ele>
        <time>2010-05-29T13:14:00Z</time>
      </trkpt>
      <trkpt lat="48.68509" lon="7.34062">
        <ele>304.664429</ele>
        <time>2010-05-29T13:14:03Z</time>
      </trkpt>
      <trkpt lat="48.68502" lon="7.34046">
        <ele>304.000366</ele>
        <time>2010-05-29T13:14:06Z</time>
      </trkpt>
      <trkpt lat="48.68495" lon="7.3403">
        <ele>303.578491</ele>
        <time>2010-05-29T13:14:09Z</time>
      </trkpt>
      <trkpt lat="48.68488" lon="7.34013">
        <ele>302.180054</ele>
        <time>2010-05-29T13:14:12Z</time>
      </trkpt>
      <trkpt lat="48.68482" lon="7.34002">
        <ele>301.625366</ele>
        <time>2010-05-29T13:14:14Z</time>
      </trkpt>
      <trkpt lat="48.68474" lon="7.33986">
        <ele>301.476929</ele>
        <time>2010-05-29T13:14:17Z</time>
      </trkpt>
      <trkpt lat="48.68465" lon="7.33972">
        <ele>302.039429</ele>
        <time>2010-05-29T13:14:20Z</time>
      </trkpt>
      <trkpt lat="48.68456" lon="7.33958">
        <ele>303.351929</ele>
        <time>2010-05-29T13:14:23Z</time>
      </trkpt>
      <trkpt lat="48.68448" lon="7.33944">
        <ele>304.945679</ele>
        <time>2010-05-29T13:14:26Z</time>
      </trkpt>
      <trkpt lat="48.68441" lon="7.3393">
        <ele>305.492554</ele>
        <time>2010-05-29T13:14:29Z</time>
      </trkpt>
      <trkpt lat="48.68433" lon="7.33917">
        <ele>306.711304</ele>
        <time>2010-05-29T13:14:32Z</time>
      </trkpt>
      <trkpt lat="48.68423" lon="7.33903">
        <ele>306.937866</ele>
        <time>2010-05-29T13:14:35Z</time>
      </trkpt>
      <trkpt lat="48.68411" lon="7.33897">
        <ele>304.023804</ele>
        <time>2010-05-29T13:14:37Z</time>
      </trkpt>
      <trkpt lat="48.68399" lon="7.33891">
        <ele>303.000366</ele>
        <time>2010-05-29T13:14:39Z</time>
      </trkpt>
      <trkpt lat="48.68391" lon="7.33884">
        <ele>303.000366</ele>
        <time>2010-05-29T13:14:41Z</time>
      </trkpt>
      <trkpt lat="48.6838" lon="7.33877">
        <ele>305.031616</ele>
        <time>2010-05-29T13:14:44Z</time>
      </trkpt>
      <trkpt lat="48.68369" lon="7.33871">
        <ele>305.758179</ele>
        <time>2010-05-29T13:14:47Z</time>
      </trkpt>
      <trkpt lat="48.68357" lon="7.33866">
        <ele>305.945679</ele>
        <time>2010-05-29T13:14:50Z</time>
      </trkpt>
      <trkpt lat="48.68345" lon="7.33865">
        <ele>304.711304</ele>
        <time>2010-05-29T13:14:52Z</time>
      </trkpt>
      <trkpt lat="48.68335" lon="7.33863">
        <ele>305.437866</ele>
        <time>2010-05-29T13:14:54Z</time>
      </trkpt>
      <trkpt lat="48.68324" lon="7.33861">
        <ele>307.484741</ele>
        <time>2010-05-29T13:14:56Z</time>
      </trkpt>
      <trkpt lat="48.68313" lon="7.33858">
        <ele>309.031616</ele>
        <time>2010-05-29T13:14:58Z</time>
      </trkpt>
      <trkpt lat="48.68301" lon="7.33856">
        <ele>312.398804</ele>
        <time>2010-05-29T13:15:00Z</time>
      </trkpt>
      <trkpt lat="48.68292" lon="7.33855">
        <ele>314.039429</ele>
        <time>2010-05-29T13:15:02Z</time>
      </trkpt>
      <trkpt lat="48.68281" lon="7.33852">
        <ele>312.023804</ele>
        <time>2010-05-29T13:15:04Z</time>
      </trkpt>
      <trkpt lat="48.68271" lon="7.33853">
        <ele>314.000366</ele>
        <time>2010-05-29T13:15:06Z</time>
      </trkpt>
      <trkpt lat="48.68261" lon="7.33855">
        <ele>314.195679</ele>
        <time>2010-05-29T13:15:08Z</time>
      </trkpt>
      <trkpt lat="48.68247" lon="7.33858">
        <ele>311.765991</ele>
        <time>2010-05-29T13:15:11Z</time>
      </trkpt>
      <trkpt lat="48.68237" lon="7.3386">
        <ele>309.515991</ele>
        <time>2010-05-29T13:15:13Z</time>
      </trkpt>
      <trkpt lat="48.68224" lon="7.33863">
        <ele>308.515991</ele>
        <time>2010-05-29T13:15:16Z</time>
      </trkpt>
      <trkpt lat="48.68214" lon="7.33866">
        <ele>310.953491</ele>
        <time>2010-05-29T13:15:18Z</time>
      </trkpt>
      <trkpt lat="48.68205" lon="7.33867">
        <ele>314.226929</ele>
        <time>2010-05-29T13:15:20Z</time>
      </trkpt>
      <trkpt lat="48.68195" lon="7.33869">
        <ele>314.930054</ele>
        <time>2010-05-29T13:15:22Z</time>
      </trkpt>
      <trkpt lat="48.68186" lon="7.33872">
        <ele>312.351929</ele>
        <time>2010-05-29T13:15:24Z</time>
      </trkpt>
      <trkpt lat="48.68174" lon="7.33877">
        <ele>313.508179</ele>
        <time>2010-05-29T13:15:27Z</time>
      </trkpt>
      <trkpt lat="48.68165" lon="7.3388">
        <ele>312.234741</ele>
        <time>2010-05-29T13:15:29Z</time>
      </trkpt>
      <trkpt lat="48.68154" lon="7.33885">
        <ele>315.851929</ele>
        <time>2010-05-29T13:15:32Z</time>
      </trkpt>
      <trkpt lat="48.68144" lon="7.33886">
        <ele>316.961304</ele>
        <time>2010-05-29T13:15:35Z</time>
      </trkpt>
      <trkpt lat="48.68133" lon="7.3389">
        <ele>317.351929</ele>
        <time>2010-05-29T13:15:38Z</time>
      </trkpt>
      <trkpt lat="48.68119" lon="7.33895">
        <ele>319.531616</ele>
        <time>2010-05-29T13:15:41Z</time>
      </trkpt>
      <trkpt lat="48.68109" lon="7.33902">
        <ele>319.375366</ele>
        <time>2010-05-29T13:15:44Z</time>
      </trkpt>
      <trkpt lat="48.68098" lon="7.33908">
        <ele>320.070679</ele>
        <time>2010-05-29T13:15:47Z</time>
      </trkpt>
      <trkpt lat="48.68089" lon="7.33914">
        <ele>318.422241</ele>
        <time>2010-05-29T13:15:49Z</time>
      </trkpt>
      <trkpt lat="48.68079" lon="7.33919">
        <ele>321.828491</ele>
        <time>2010-05-29T13:15:52Z</time>
      </trkpt>
      <trkpt lat="48.68069" lon="7.33923">
        <ele>322.875366</ele>
        <time>2010-05-29T13:15:55Z</time>
      </trkpt>
      <trkpt lat="48.68058" lon="7.33929">
        <ele>319.445679</ele>
        <time>2010-05-29T13:15:58Z</time>
      </trkpt>
      <trkpt lat="48.68049" lon="7.33935">
        <ele>316.664429</ele>
        <time>2010-05-29T13:16:01Z</time>
      </trkpt>
      <trkpt lat="48.6804" lon="7.3394">
        <ele>318.242554</ele>
        <time>2010-05-29T13:16:03Z</time>
      </trkpt>
      <trkpt lat="48.68032" lon="7.33946">
        <ele>318.515991</ele>
        <time>2010-05-29T13:16:06Z</time>
      </trkpt>
      <trkpt lat="48.68023" lon="7.33953">
        <ele>317.461304</ele>
        <time>2010-05-29T13:16:09Z</time>
      </trkpt>
      <trkpt lat="48.68016" lon="7.33963">
        <ele>318.320679</ele>
        <time>2010-05-29T13:16:12Z</time>
      </trkpt>
      <trkpt lat="48.68008" lon="7.33969">
        <ele>318.359741</ele>
        <time>2010-05-29T13:16:15Z</time>
      </trkpt>
      <trkpt lat="48.67999" lon="7.33977">
        <ele>318.023804</ele>
        <time>2010-05-29T13:16:18Z</time>
      </trkpt>
      <trkpt lat="48.6799" lon="7.33981">
        <ele>319.500366</ele>
        <time>2010-05-29T13:16:21Z</time>
      </trkpt>
      <trkpt lat="48.67981" lon="7.33988">
        <ele>318.836304</ele>
        <time>2010-05-29T13:16:24Z</time>
      </trkpt>
      <trkpt lat="48.67971" lon="7.33993">
        <ele>320.234741</ele>
        <time>2010-05-29T13:16:28Z</time>
      </trkpt>
      <trkpt lat="48.67961" lon="7.33999">
        <ele>321.500366</ele>
        <time>2010-05-29T13:16:32Z</time>
      </trkpt>
      <trkpt lat="48.67951" lon="7.34006">
        <ele>322.437866</ele>
        <time>2010-05-29T13:16:36Z</time>
      </trkpt>
      <trkpt lat="48.67944" lon="7.34016">
        <ele>318.805054</ele>
        <time>2010-05-29T13:16:39Z</time>
      </trkpt>
      <trkpt lat="48.67935" lon="7.34022">
        <ele>320.844116</ele>
        <time>2010-05-29T13:16:42Z</time>
      </trkpt>
      <trkpt lat="48.67925" lon="7.34032">
        <ele>320.914429</ele>
        <time>2010-05-29T13:16:46Z</time>
      </trkpt>
      <trkpt lat="48.67917" lon="7.34041">
        <ele>319.687866</ele>
        <time>2010-05-29T13:16:50Z</time>
      </trkpt>
      <trkpt lat="48.67909" lon="7.34051">
        <ele>321.367554</ele>
        <time>2010-05-29T13:16:54Z</time>
      </trkpt>
      <trkpt lat="48.67901" lon="7.34057">
        <ele>319.797241</ele>
        <time>2010-05-29T13:16:58Z</time>
      </trkpt>
      <trkpt lat="48.67893" lon="7.34065">
        <ele>320.390991</ele>
        <time>2010-05-29T13:17:01Z</time>
      </trkpt>
      <trkpt lat="48.67885" lon="7.34074">
        <ele>322.281616</ele>
        <time>2010-05-29T13:17:05Z</time>
      </trkpt>
      <trkpt lat="48.67875" lon="7.34084">
        <ele>323.023804</ele>
        <time>2010-05-29T13:17:09Z</time>
      </trkpt>
      <trkpt lat="48.67868" lon="7.34094">
        <ele>322.742554</ele>
        <time>2010-05-29T13:17:12Z</time>
      </trkpt>
      <trkpt lat="48.6786" lon="7.34101">
        <ele>323.586304</ele>
        <time>2010-05-29T13:17:15Z</time>
      </trkpt>
      <trkpt lat="48.67852" lon="7.34107">
        <ele>322.070679</ele>
        <time>2010-05-29T13:17:18Z</time>
      </trkpt>
      <trkpt lat="48.67845" lon="7.34117">
        <ele>321.664429</ele>
        <time>2010-05-29T13:17:21Z</time>
      </trkpt>
      <trkpt lat="48.67838" lon="7.34128">
        <ele>323.250366</ele>
        <time>2010-05-29T13:17:24Z</time>
      </trkpt>
      <trkpt lat="48.67828" lon="7.34138">
        <ele>325.375366</ele>
        <time>2010-05-29T13:17:28Z</time>
      </trkpt>
      <trkpt lat="48.67821" lon="7.34151">
        <ele>324.039429</ele>
        <time>2010-05-29T13:17:32Z</time>
      </trkpt>
      <trkpt lat="48.67813" lon="7.34164">
        <ele>323.640991</ele>
        <time>2010-05-29T13:17:37Z</time>
      </trkpt>
      <trkpt lat="48.67805" lon="7.34177">
        <ele>323.414429</ele>
        <time>2010-05-29T13:17:41Z</time>
      </trkpt>
      <trkpt lat="48.67797" lon="7.3419">
        <ele>324.359741</ele>
        <time>2010-05-29T13:17:44Z</time>
      </trkpt>
      <trkpt lat="48.67793" lon="7.34203">
        <ele>324.492554</ele>
        <time>2010-05-29T13:17:48Z</time>
      </trkpt>
      <trkpt lat="48.67785" lon="7.34213">
        <ele>325.539429</ele>
        <time>2010-05-29T13:17:52Z</time>
      </trkpt>
      <trkpt lat="48.67778" lon="7.34225">
        <ele>325.476929</ele>
        <time>2010-05-29T13:17:56Z</time>
      </trkpt>
      <trkpt lat="48.6777" lon="7.34233">
        <ele>325.594116</ele>
        <time>2010-05-29T13:17:59Z</time>
      </trkpt>
      <trkpt lat="48.67762" lon="7.34245">
        <ele>326.984741</ele>
        <time>2010-05-29T13:18:03Z</time>
      </trkpt>
      <trkpt lat="48.67755" lon="7.34258">
        <ele>326.867554</ele>
        <time>2010-05-29T13:18:06Z</time>
      </trkpt>
      <trkpt lat="48.67748" lon="7.34267">
        <ele>328.734741</ele>
        <time>2010-05-29T13:18:09Z</time>
      </trkpt>
      <trkpt lat="48.67741" lon="7.34282">
        <ele>328.703491</ele>
        <time>2010-05-29T13:18:13Z</time>
      </trkpt>
      <trkpt lat="48.67737" lon="7.34298">
        <ele>330.219116</ele>
        <time>2010-05-29T13:18:16Z</time>
      </trkpt>
      <trkpt lat="48.67731" lon="7.34309">
        <ele>331.914429</ele>
        <time>2010-05-29T13:18:20Z</time>
      </trkpt>
      <trkpt lat="48.67725" lon="7.34321">
        <ele>334.203491</ele>
        <time>2010-05-29T13:18:25Z</time>
      </trkpt>
      <trkpt lat="48.67721" lon="7.34334">
        <ele>335.023804</ele>
        <time>2010-05-29T13:18:33Z</time>
      </trkpt>
      <trkpt lat="48.67721" lon="7.34347">
        <ele>336.625366</ele>
        <time>2010-05-29T13:21:05Z</time>
      </trkpt>
      <trkpt lat="48.6771" lon="7.34349">
        <ele>335.656616</ele>
        <time>2010-05-29T13:23:31Z</time>
      </trkpt>
      <trkpt lat="48.67699" lon="7.34349">
        <ele>334.406616</ele>
        <time>2010-05-29T13:23:34Z</time>
      </trkpt>
      <trkpt lat="48.67689" lon="7.34353">
        <ele>333.445679</ele>
        <time>2010-05-29T13:23:37Z</time>
      </trkpt>
      <trkpt lat="48.67677" lon="7.34355">
        <ele>331.406616</ele>
        <time>2010-05-29T13:23:40Z</time>
      </trkpt>
      <trkpt lat="48.67662" lon="7.34361">
        <ele>329.812866</ele>
        <time>2010-05-29T13:23:43Z</time>
      </trkpt>
      <trkpt lat="48.6765" lon="7.34365">
        <ele>328.625366</ele>
        <time>2010-05-29T13:23:45Z</time>
      </trkpt>
      <trkpt lat="48.67637" lon="7.34369">
        <ele>327.000366</ele>
        <time>2010-05-29T13:23:47Z</time>
      </trkpt>
      <trkpt lat="48.67625" lon="7.34372">
        <ele>324.851929</ele>
        <time>2010-05-29T13:23:49Z</time>
      </trkpt>
      <trkpt lat="48.67614" lon="7.34374">
        <ele>322.812866</ele>
        <time>2010-05-29T13:23:51Z</time>
      </trkpt>
      <trkpt lat="48.67601" lon="7.34376">
        <ele>321.047241</ele>
        <time>2010-05-29T13:23:53Z</time>
      </trkpt>
      <trkpt lat="48.67586" lon="7.34378">
        <ele>320.265991</ele>
        <time>2010-05-29T13:23:55Z</time>
      </trkpt>
      <trkpt lat="48.67572" lon="7.34376">
        <ele>319.555054</ele>
        <time>2010-05-29T13:23:57Z</time>
      </trkpt>
      <trkpt lat="48.67559" lon="7.34374">
        <ele>318.437866</ele>
        <time>2010-05-29T13:23:59Z</time>
      </trkpt>
      <trkpt lat="48.67545" lon="7.34367">
        <ele>317.445679</ele>
        <time>2010-05-29T13:24:01Z</time>
      </trkpt>
      <trkpt lat="48.67534" lon="7.34361">
        <ele>315.000366</ele>
        <time>2010-05-29T13:24:03Z</time>
      </trkpt>
      <trkpt lat="48.6752" lon="7.34355">
        <ele>314.305054</ele>
        <time>2010-05-29T13:24:05Z</time>
      </trkpt>
      <trkpt lat="48.67506" lon="7.34346">
        <ele>313.515991</ele>
        <time>2010-05-29T13:24:07Z</time>
      </trkpt>
      <trkpt lat="48.67491" lon="7.34338">
        <ele>311.703491</ele>
        <time>2010-05-29T13:24:09Z</time>
      </trkpt>
      <trkpt lat="48.67477" lon="7.34329">
        <ele>310.969116</ele>
        <time>2010-05-29T13:24:11Z</time>
      </trkpt>
      <trkpt lat="48.67469" lon="7.34322">
        <ele>311.625366</ele>
        <time>2010-05-29T13:24:12Z</time>
      </trkpt>
      <trkpt lat="48.67456" lon="7.34311">
        <ele>311.062866</ele>
        <time>2010-05-29T13:24:14Z</time>
      </trkpt>
      <trkpt lat="48.67443" lon="7.34301">
        <ele>310.773804</ele>
        <time>2010-05-29T13:24:16Z</time>
      </trkpt>
      <trkpt lat="48.6743" lon="7.34286">
        <ele>310.617554</ele>
        <time>2010-05-29T13:24:18Z</time>
      </trkpt>
      <trkpt lat="48.67418" lon="7.34271">
        <ele>310.906616</ele>
        <time>2010-05-29T13:24:20Z</time>
      </trkpt>
      <trkpt lat="48.67407" lon="7.34258">
        <ele>309.687866</ele>
        <time>2010-05-29T13:24:22Z</time>
      </trkpt>
      <trkpt lat="48.67392" lon="7.34245">
        <ele>308.687866</ele>
        <time>2010-05-29T13:24:24Z</time>
      </trkpt>
      <trkpt lat="48.67379" lon="7.34232">
        <ele>309.578491</ele>
        <time>2010-05-29T13:24:26Z</time>
      </trkpt>
      <trkpt lat="48.67364" lon="7.34223">
        <ele>309.055054</ele>
        <time>2010-05-29T13:24:28Z</time>
      </trkpt>
      <trkpt lat="48.67349" lon="7.34218">
        <ele>307.062866</ele>
        <time>2010-05-29T13:24:30Z</time>
      </trkpt>
      <trkpt lat="48.67336" lon="7.34213">
        <ele>306.383179</ele>
        <time>2010-05-29T13:24:32Z</time>
      </trkpt>
      <trkpt lat="48.67324" lon="7.34211">
        <ele>306.101929</ele>
        <time>2010-05-29T13:24:34Z</time>
      </trkpt>
      <trkpt lat="48.67312" lon="7.34206">
        <ele>304.937866</ele>
        <time>2010-05-29T13:24:36Z</time>
      </trkpt>
      <trkpt lat="48.673" lon="7.34197">
        <ele>304.312866</ele>
        <time>2010-05-29T13:24:38Z</time>
      </trkpt>
      <trkpt lat="48.67288" lon="7.34193">
        <ele>304.015991</ele>
        <time>2010-05-29T13:24:40Z</time>
      </trkpt>
      <trkpt lat="48.67277" lon="7.34186">
        <ele>303.125366</ele>
        <time>2010-05-29T13:24:42Z</time>
      </trkpt>
      <trkpt lat="48.67265" lon="7.34176">
        <ele>303.844116</ele>
        <time>2010-05-29T13:24:44Z</time>
      </trkpt>
      <trkpt lat="48.67252" lon="7.34169">
        <ele>302.680054</ele>
        <time>2010-05-29T13:24:46Z</time>
      </trkpt>
      <trkpt lat="48.6724" lon="7.34162">
        <ele>300.914429</ele>
        <time>2010-05-29T13:24:48Z</time>
      </trkpt>
      <trkpt lat="48.67226" lon="7.34154">
        <ele>300.570679</ele>
        <time>2010-05-29T13:24:50Z</time>
      </trkpt>
      <trkpt lat="48.67212" lon="7.34149">
        <ele>299.422241</ele>
        <time>2010-05-29T13:24:52Z</time>
      </trkpt>
      <trkpt lat="48.67197" lon="7.34143">
        <ele>297.390991</ele>
        <time>2010-05-29T13:24:54Z</time>
      </trkpt>
      <trkpt lat="48.67183" lon="7.34137">
        <ele>296.976929</ele>
        <time>2010-05-29T13:24:56Z</time>
      </trkpt>
      <trkpt lat="48.67167" lon="7.3413">
        <ele>294.445679</ele>
        <time>2010-05-29T13:24:58Z</time>
      </trkpt>
      <trkpt lat="48.67159" lon="7.34126">
        <ele>291.742554</ele>
        <time>2010-05-29T13:24:59Z</time>
      </trkpt>
      <trkpt lat="48.67143" lon="7.34119">
        <ele>290.008179</ele>
        <time>2010-05-29T13:25:01Z</time>
      </trkpt>
      <trkpt lat="48.67127" lon="7.34112">
        <ele>289.875366</ele>
        <time>2010-05-29T13:25:03Z</time>
      </trkpt>
      <trkpt lat="48.67112" lon="7.34106">
        <ele>289.476929</ele>
        <time>2010-05-29T13:25:05Z</time>
      </trkpt>
      <trkpt lat="48.67098" lon="7.34102">
        <ele>286.937866</ele>
        <time>2010-05-29T13:25:07Z</time>
      </trkpt>
      <trkpt lat="48.67086" lon="7.34094">
        <ele>288.023804</ele>
        <time>2010-05-29T13:25:09Z</time>
      </trkpt>
      <trkpt lat="48.6707" lon="7.34085">
        <ele>286.937866</ele>
        <time>2010-05-29T13:25:11Z</time>
      </trkpt>
      <trkpt lat="48.67055" lon="7.34076">
        <ele>287.586304</ele>
        <time>2010-05-29T13:25:13Z</time>
      </trkpt>
      <trkpt lat="48.67047" lon="7.34069">
        <ele>289.125366</ele>
        <time>2010-05-29T13:25:14Z</time>
      </trkpt>
      <trkpt lat="48.67038" lon="7.34062">
        <ele>289.234741</ele>
        <time>2010-05-29T13:25:15Z</time>
      </trkpt>
      <trkpt lat="48.67029" lon="7.34057">
        <ele>287.640991</ele>
        <time>2010-05-29T13:25:16Z</time>
      </trkpt>
      <trkpt lat="48.67018" lon="7.34052">
        <ele>288.687866</ele>
        <time>2010-05-29T13:25:17Z</time>
      </trkpt>
      <trkpt lat="48.67009" lon="7.34047">
        <ele>288.390991</ele>
        <time>2010-05-29T13:25:18Z</time>
      </trkpt>
      <trkpt lat="48.67001" lon="7.34043">
        <ele>287.828491</ele>
        <time>2010-05-29T13:25:19Z</time>
      </trkpt>
      <trkpt lat="48.66985" lon="7.34036">
        <ele>287.258179</ele>
        <time>2010-05-29T13:25:21Z</time>
      </trkpt>
      <trkpt lat="48.66975" lon="7.34033">
        <ele>287.508179</ele>
        <time>2010-05-29T13:25:23Z</time>
      </trkpt>
      <trkpt lat="48.66969" lon="7.34024">
        <ele>293.711304</ele>
        <time>2010-05-29T13:25:26Z</time>
      </trkpt>
      <trkpt lat="48.6696" lon="7.34025">
        <ele>297.289429</ele>
        <time>2010-05-29T13:28:29Z</time>
      </trkpt>
      <trkpt lat="48.66948" lon="7.34031">
        <ele>297.047241</ele>
        <time>2010-05-29T13:28:37Z</time>
      </trkpt>
      <trkpt lat="48.66937" lon="7.34033">
        <ele>297.039429</ele>
        <time>2010-05-29T13:28:43Z</time>
      </trkpt>
      <trkpt lat="48.66927" lon="7.34033">
        <ele>295.750366</ele>
        <time>2010-05-29T13:28:47Z</time>
      </trkpt>
      <trkpt lat="48.66917" lon="7.34036">
        <ele>293.930054</ele>
        <time>2010-05-29T13:28:50Z</time>
      </trkpt>
      <trkpt lat="48.66904" lon="7.34041">
        <ele>293.125366</ele>
        <time>2010-05-29T13:28:53Z</time>
      </trkpt>
      <trkpt lat="48.66893" lon="7.34045">
        <ele>292.062866</ele>
        <time>2010-05-29T13:28:56Z</time>
      </trkpt>
      <trkpt lat="48.66881" lon="7.34048">
        <ele>292.265991</ele>
        <time>2010-05-29T13:28:59Z</time>
      </trkpt>
      <trkpt lat="48.66872" lon="7.34052">
        <ele>293.805054</ele>
        <time>2010-05-29T13:29:02Z</time>
      </trkpt>
      <trkpt lat="48.66861" lon="7.34057">
        <ele>296.187866</ele>
        <time>2010-05-29T13:29:06Z</time>
      </trkpt>
      <trkpt lat="48.66852" lon="7.3406">
        <ele>300.320679</ele>
        <time>2010-05-29T13:29:09Z</time>
      </trkpt>
      <trkpt lat="48.66843" lon="7.34061">
        <ele>305.820679</ele>
        <time>2010-05-29T13:29:12Z</time>
      </trkpt>
      <trkpt lat="48.66834" lon="7.34065">
        <ele>309.320679</ele>
        <time>2010-05-29T13:29:18Z</time>
      </trkpt>
      <trkpt lat="48.66833" lon="7.34078">
        <ele>313.586304</ele>
        <time>2010-05-29T13:29:35Z</time>
      </trkpt>
      <trkpt lat="48.66835" lon="7.34092">
        <ele>315.836304</ele>
        <time>2010-05-29T13:29:53Z</time>
      </trkpt>
      <trkpt lat="48.66837" lon="7.34105">
        <ele>315.312866</ele>
        <time>2010-05-29T13:30:17Z</time>
      </trkpt>
      <trkpt lat="48.66843" lon="7.34116">
        <ele>315.898804</ele>
        <time>2010-05-29T13:30:26Z</time>
      </trkpt>
      <trkpt lat="48.66847" lon="7.3413">
        <ele>317.492554</ele>
        <time>2010-05-29T13:30:35Z</time>
      </trkpt>
      <trkpt lat="48.6685" lon="7.34143">
        <ele>317.890991</ele>
        <time>2010-05-29T13:30:45Z</time>
      </trkpt>
      <trkpt lat="48.6685" lon="7.34157">
        <ele>318.781616</ele>
        <time>2010-05-29T13:31:28Z</time>
      </trkpt>
      <trkpt lat="48.66849" lon="7.34172">
        <ele>320.344116</ele>
        <time>2010-05-29T13:31:34Z</time>
      </trkpt>
      <trkpt lat="48.66853" lon="7.34186">
        <ele>322.492554</ele>
        <time>2010-05-29T13:31:40Z</time>
      </trkpt>
      <trkpt lat="48.66859" lon="7.34195">
        <ele>325.750366</ele>
        <time>2010-05-29T13:31:46Z</time>
      </trkpt>
      <trkpt lat="48.66865" lon="7.34204">
        <ele>327.055054</ele>
        <time>2010-05-29T13:31:53Z</time>
      </trkpt>
      <trkpt lat="48.66872" lon="7.34215">
        <ele>329.789429</ele>
        <time>2010-05-29T13:32:01Z</time>
      </trkpt>
      <trkpt lat="48.6688" lon="7.34223">
        <ele>332.265991</ele>
        <time>2010-05-29T13:32:08Z</time>
      </trkpt>
      <trkpt lat="48.66887" lon="7.34231">
        <ele>336.156616</ele>
        <time>2010-05-29T13:32:17Z</time>
      </trkpt>
      <trkpt lat="48.66895" lon="7.3424">
        <ele>336.695679</ele>
        <time>2010-05-29T13:32:23Z</time>
      </trkpt>
      <trkpt lat="48.66903" lon="7.34246">
        <ele>340.055054</ele>
        <time>2010-05-29T13:32:31Z</time>
      </trkpt>
      <trkpt lat="48.66908" lon="7.34258">
        <ele>344.094116</ele>
        <time>2010-05-29T13:32:41Z</time>
      </trkpt>
      <trkpt lat="48.66916" lon="7.34266">
        <ele>346.570679</ele>
        <time>2010-05-29T13:32:51Z</time>
      </trkpt>
      <trkpt lat="48.66924" lon="7.34276">
        <ele>348.976929</ele>
        <time>2010-05-29T13:32:59Z</time>
      </trkpt>
      <trkpt lat="48.66932" lon="7.34285">
        <ele>348.867554</ele>
        <time>2010-05-29T13:33:21Z</time>
      </trkpt>
      <trkpt lat="48.66941" lon="7.34286">
        <ele>348.000366</ele>
        <time>2010-05-29T13:33:29Z</time>
      </trkpt>
      <trkpt lat="48.66949" lon="7.34295">
        <ele>348.078491</ele>
        <time>2010-05-29T13:33:37Z</time>
      </trkpt>
      <trkpt lat="48.66954" lon="7.34306">
        <ele>347.414429</ele>
        <time>2010-05-29T13:33:45Z</time>
      </trkpt>
      <trkpt lat="48.66962" lon="7.34313">
        <ele>346.226929</ele>
        <time>2010-05-29T13:33:54Z</time>
      </trkpt>
      <trkpt lat="48.66969" lon="7.34322">
        <ele>346.117554</ele>
        <time>2010-05-29T13:34:01Z</time>
      </trkpt>
      <trkpt lat="48.66975" lon="7.34333">
        <ele>346.867554</ele>
        <time>2010-05-29T13:34:08Z</time>
      </trkpt>
      <trkpt lat="48.6698" lon="7.34345">
        <ele>347.883179</ele>
        <time>2010-05-29T13:34:16Z</time>
      </trkpt>
      <trkpt lat="48.66988" lon="7.34355">
        <ele>349.078491</ele>
        <time>2010-05-29T13:34:25Z</time>
      </trkpt>
      <trkpt lat="48.66993" lon="7.34366">
        <ele>349.742554</ele>
        <time>2010-05-29T13:34:31Z</time>
      </trkpt>
      <trkpt lat="48.66996" lon="7.34378">
        <ele>351.437866</ele>
        <time>2010-05-29T13:34:37Z</time>
      </trkpt>
      <trkpt lat="48.66998" lon="7.34391">
        <ele>353.664429</ele>
        <time>2010-05-29T13:34:45Z</time>
      </trkpt>
      <trkpt lat="48.67001" lon="7.34404">
        <ele>352.461304</ele>
        <time>2010-05-29T13:34:50Z</time>
      </trkpt>
      <trkpt lat="48.67006" lon="7.34418">
        <ele>351.367554</ele>
        <time>2010-05-29T13:37:10Z</time>
      </trkpt>
      <trkpt lat="48.67012" lon="7.34429">
        <ele>351.539429</ele>
        <time>2010-05-29T13:37:15Z</time>
      </trkpt>
      <trkpt lat="48.67018" lon="7.34439">
        <ele>351.883179</ele>
        <time>2010-05-29T13:37:19Z</time>
      </trkpt>
      <trkpt lat="48.67026" lon="7.34447">
        <ele>350.320679</ele>
        <time>2010-05-29T13:37:24Z</time>
      </trkpt>
      <trkpt lat="48.67031" lon="7.34458">
        <ele>349.961304</ele>
        <time>2010-05-29T13:37:29Z</time>
      </trkpt>
      <trkpt lat="48.6704" lon="7.34468">
        <ele>349.430054</ele>
        <time>2010-05-29T13:37:33Z</time>
      </trkpt>
      <trkpt lat="48.67046" lon="7.3448">
        <ele>348.922241</ele>
        <time>2010-05-29T13:37:38Z</time>
      </trkpt>
      <trkpt lat="48.67054" lon="7.34494">
        <ele>347.172241</ele>
        <time>2010-05-29T13:37:43Z</time>
      </trkpt>
      <trkpt lat="48.6706" lon="7.34503">
        <ele>346.219116</ele>
        <time>2010-05-29T13:37:48Z</time>
      </trkpt>
      <trkpt lat="48.67066" lon="7.34514">
        <ele>346.805054</ele>
        <time>2010-05-29T13:37:55Z</time>
      </trkpt>
      <trkpt lat="48.67072" lon="7.34527">
        <ele>346.297241</ele>
        <time>2010-05-29T13:38:00Z</time>
      </trkpt>
      <trkpt lat="48.67078" lon="7.34536">
        <ele>346.109741</ele>
        <time>2010-05-29T13:38:04Z</time>
      </trkpt>
      <trkpt lat="48.67086" lon="7.34544">
        <ele>346.000366</ele>
        <time>2010-05-29T13:38:07Z</time>
      </trkpt>
      <trkpt lat="48.67095" lon="7.34552">
        <ele>347.156616</ele>
        <time>2010-05-29T13:38:13Z</time>
      </trkpt>
      <trkpt lat="48.67104" lon="7.34555">
        <ele>347.773804</ele>
        <time>2010-05-29T13:38:17Z</time>
      </trkpt>
      <trkpt lat="48.67114" lon="7.34552">
        <ele>348.133179</ele>
        <time>2010-05-29T13:38:23Z</time>
      </trkpt>
      <trkpt lat="48.67122" lon="7.34549">
        <ele>349.133179</ele>
        <time>2010-05-29T13:38:28Z</time>
      </trkpt>
      <trkpt lat="48.67131" lon="7.34547">
        <ele>351.398804</ele>
        <time>2010-05-29T13:38:35Z</time>
      </trkpt>
      <trkpt lat="48.67141" lon="7.34552">
        <ele>349.117554</ele>
        <time>2010-05-29T13:38:42Z</time>
      </trkpt>
      <trkpt lat="48.67151" lon="7.3455">
        <ele>347.898804</ele>
        <time>2010-05-29T13:38:55Z</time>
      </trkpt>
      <trkpt lat="48.6716" lon="7.34553">
        <ele>347.328491</ele>
        <time>2010-05-29T13:39:02Z</time>
      </trkpt>
      <trkpt lat="48.67165" lon="7.34566">
        <ele>347.008179</ele>
        <time>2010-05-29T13:39:13Z</time>
      </trkpt>
      <trkpt lat="48.67167" lon="7.34579">
        <ele>347.820679</ele>
        <time>2010-05-29T13:39:21Z</time>
      </trkpt>
      <trkpt lat="48.67175" lon="7.34589">
        <ele>349.047241</ele>
        <time>2010-05-29T13:39:25Z</time>
      </trkpt>
      <trkpt lat="48.67183" lon="7.34596">
        <ele>350.351929</ele>
        <time>2010-05-29T13:39:30Z</time>
      </trkpt>
      <trkpt lat="48.67191" lon="7.34605">
        <ele>351.851929</ele>
        <time>2010-05-29T13:39:35Z</time>
      </trkpt>
      <trkpt lat="48.67199" lon="7.34614">
        <ele>353.625366</ele>
        <time>2010-05-29T13:39:40Z</time>
      </trkpt>
      <trkpt lat="48.67204" lon="7.34625">
        <ele>356.305054</ele>
        <time>2010-05-29T13:39:47Z</time>
      </trkpt>
      <trkpt lat="48.67213" lon="7.34633">
        <ele>356.070679</ele>
        <time>2010-05-29T13:39:54Z</time>
      </trkpt>
      <trkpt lat="48.67221" lon="7.3464">
        <ele>355.015991</ele>
        <time>2010-05-29T13:39:58Z</time>
      </trkpt>
      <trkpt lat="48.67229" lon="7.34647">
        <ele>356.539429</ele>
        <time>2010-05-29T13:40:03Z</time>
      </trkpt>
      <trkpt lat="48.67238" lon="7.34655">
        <ele>357.640991</ele>
        <time>2010-05-29T13:40:09Z</time>
      </trkpt>
      <trkpt lat="48.67247" lon="7.34657">
        <ele>358.687866</ele>
        <time>2010-05-29T13:40:14Z</time>
      </trkpt>
      <trkpt lat="48.67256" lon="7.34661">
        <ele>360.140991</ele>
        <time>2010-05-29T13:40:21Z</time>
      </trkpt>
      <trkpt lat="48.67267" lon="7.34664">
        <ele>361.242554</ele>
        <time>2010-05-29T13:40:27Z</time>
      </trkpt>
      <trkpt lat="48.67276" lon="7.34667">
        <ele>360.601929</ele>
        <time>2010-05-29T13:40:32Z</time>
      </trkpt>
      <trkpt lat="48.67285" lon="7.34675">
        <ele>361.539429</ele>
        <time>2010-05-29T13:40:37Z</time>
      </trkpt>
      <trkpt lat="48.67295" lon="7.34679">
        <ele>361.414429</ele>
        <time>2010-05-29T13:40:41Z</time>
      </trkpt>
      <trkpt lat="48.67303" lon="7.34686">
        <ele>360.609741</ele>
        <time>2010-05-29T13:40:46Z</time>
      </trkpt>
      <trkpt lat="48.67313" lon="7.34694">
        <ele>362.140991</ele>
        <time>2010-05-29T13:40:51Z</time>
      </trkpt>
      <trkpt lat="48.67321" lon="7.34707">
        <ele>363.398804</ele>
        <time>2010-05-29T13:40:55Z</time>
      </trkpt>
      <trkpt lat="48.67329" lon="7.34715">
        <ele>365.555054</ele>
        <time>2010-05-29T13:40:59Z</time>
      </trkpt>
      <trkpt lat="48.67337" lon="7.34722">
        <ele>361.820679</ele>
        <time>2010-05-29T13:41:04Z</time>
      </trkpt>
      <trkpt lat="48.67346" lon="7.34723">
        <ele>358.633179</ele>
        <time>2010-05-29T13:41:08Z</time>
      </trkpt>
      <trkpt lat="48.67344" lon="7.34733">
        <ele>351.859741</ele>
        <time>2010-05-29T13:41:41Z</time>
      </trkpt>
      <trkpt lat="48.67341" lon="7.34745">
        <ele>354.898804</ele>
        <time>2010-05-29T13:43:18Z</time>
      </trkpt>
      <trkpt lat="48.67341" lon="7.34759">
        <ele>356.109741</ele>
        <time>2010-05-29T13:43:24Z</time>
      </trkpt>
      <trkpt lat="48.67339" lon="7.34774">
        <ele>357.125366</ele>
        <time>2010-05-29T13:43:28Z</time>
      </trkpt>
      <trkpt lat="48.67335" lon="7.34788">
        <ele>358.336304</ele>
        <time>2010-05-29T13:43:32Z</time>
      </trkpt>
      <trkpt lat="48.67332" lon="7.34801">
        <ele>355.914429</ele>
        <time>2010-05-29T13:43:35Z</time>
      </trkpt>
      <trkpt lat="48.6733" lon="7.34819">
        <ele>354.703491</ele>
        <time>2010-05-29T13:43:38Z</time>
      </trkpt>
      <trkpt lat="48.67327" lon="7.34832">
        <ele>353.680054</ele>
        <time>2010-05-29T13:43:41Z</time>
      </trkpt>
      <trkpt lat="48.67324" lon="7.34847">
        <ele>353.125366</ele>
        <time>2010-05-29T13:43:44Z</time>
      </trkpt>
      <trkpt lat="48.67322" lon="7.34868">
        <ele>351.969116</ele>
        <time>2010-05-29T13:43:47Z</time>
      </trkpt>
      <trkpt lat="48.6732" lon="7.34883">
        <ele>354.469116</ele>
        <time>2010-05-29T13:43:49Z</time>
      </trkpt>
      <trkpt lat="48.67321" lon="7.34899">
        <ele>353.961304</ele>
        <time>2010-05-29T13:43:51Z</time>
      </trkpt>
      <trkpt lat="48.67325" lon="7.34913">
        <ele>353.953491</ele>
        <time>2010-05-29T13:43:53Z</time>
      </trkpt>
      <trkpt lat="48.67331" lon="7.34927">
        <ele>353.234741</ele>
        <time>2010-05-29T13:43:55Z</time>
      </trkpt>
      <trkpt lat="48.67336" lon="7.34941">
        <ele>353.336304</ele>
        <time>2010-05-29T13:43:57Z</time>
      </trkpt>
      <trkpt lat="48.67342" lon="7.34953">
        <ele>352.570679</ele>
        <time>2010-05-29T13:43:59Z</time>
      </trkpt>
      <trkpt lat="48.67349" lon="7.34966">
        <ele>351.898804</ele>
        <time>2010-05-29T13:44:01Z</time>
      </trkpt>
      <trkpt lat="48.67355" lon="7.3498">
        <ele>351.555054</ele>
        <time>2010-05-29T13:44:03Z</time>
      </trkpt>
      <trkpt lat="48.6736" lon="7.34994">
        <ele>351.508179</ele>
        <time>2010-05-29T13:44:05Z</time>
      </trkpt>
      <trkpt lat="48.67368" lon="7.35009">
        <ele>352.187866</ele>
        <time>2010-05-29T13:44:07Z</time>
      </trkpt>
      <trkpt lat="48.67374" lon="7.35025">
        <ele>352.601929</ele>
        <time>2010-05-29T13:44:09Z</time>
      </trkpt>
      <trkpt lat="48.67379" lon="7.35041">
        <ele>352.531616</ele>
        <time>2010-05-29T13:44:11Z</time>
      </trkpt>
      <trkpt lat="48.67387" lon="7.35058">
        <ele>352.562866</ele>
        <time>2010-05-29T13:44:13Z</time>
      </trkpt>
      <trkpt lat="48.67397" lon="7.35075">
        <ele>352.898804</ele>
        <time>2010-05-29T13:44:15Z</time>
      </trkpt>
      <trkpt lat="48.67407" lon="7.35088">
        <ele>351.726929</ele>
        <time>2010-05-29T13:44:17Z</time>
      </trkpt>
      <trkpt lat="48.67413" lon="7.35103">
        <ele>350.773804</ele>
        <time>2010-05-29T13:44:19Z</time>
      </trkpt>
      <trkpt lat="48.67416" lon="7.35121">
        <ele>348.515991</ele>
        <time>2010-05-29T13:44:21Z</time>
      </trkpt>
      <trkpt lat="48.67418" lon="7.35136">
        <ele>345.140991</ele>
        <time>2010-05-29T13:44:23Z</time>
      </trkpt>
      <trkpt lat="48.67419" lon="7.35151">
        <ele>338.187866</ele>
        <time>2010-05-29T13:44:26Z</time>
      </trkpt>
      <trkpt lat="48.67416" lon="7.35164">
        <ele>334.086304</ele>
        <time>2010-05-29T13:44:30Z</time>
      </trkpt>
      <trkpt lat="48.67407" lon="7.35163">
        <ele>331.469116</ele>
        <time>2010-05-29T13:44:37Z</time>
      </trkpt>
      <trkpt lat="48.67412" lon="7.35174">
        <ele>329.211304</ele>
        <time>2010-05-29T13:44:55Z</time>
      </trkpt>
      <trkpt lat="48.67409" lon="7.35189">
        <ele>324.742554</ele>
        <time>2010-05-29T13:45:27Z</time>
      </trkpt>
      <trkpt lat="48.67405" lon="7.35207">
        <ele>323.109741</ele>
        <time>2010-05-29T13:45:30Z</time>
      </trkpt>
      <trkpt lat="48.67401" lon="7.35223">
        <ele>321.437866</ele>
        <time>2010-05-29T13:45:32Z</time>
      </trkpt>
      <trkpt lat="48.67396" lon="7.35241">
        <ele>320.047241</ele>
        <time>2010-05-29T13:45:34Z</time>
      </trkpt>
      <trkpt lat="48.67391" lon="7.3526">
        <ele>318.312866</ele>
        <time>2010-05-29T13:45:36Z</time>
      </trkpt>
      <trkpt lat="48.67386" lon="7.35282">
        <ele>316.609741</ele>
        <time>2010-05-29T13:45:38Z</time>
      </trkpt>
      <trkpt lat="48.6738" lon="7.35302">
        <ele>315.453491</ele>
        <time>2010-05-29T13:45:40Z</time>
      </trkpt>
      <trkpt lat="48.67374" lon="7.35324">
        <ele>314.375366</ele>
        <time>2010-05-29T13:45:42Z</time>
      </trkpt>
      <trkpt lat="48.67369" lon="7.35345">
        <ele>312.961304</ele>
        <time>2010-05-29T13:45:44Z</time>
      </trkpt>
      <trkpt lat="48.67363" lon="7.35364">
        <ele>312.305054</ele>
        <time>2010-05-29T13:45:46Z</time>
      </trkpt>
      <trkpt lat="48.67358" lon="7.35382">
        <ele>311.695679</ele>
        <time>2010-05-29T13:45:48Z</time>
      </trkpt>
      <trkpt lat="48.67353" lon="7.35402">
        <ele>310.594116</ele>
        <time>2010-05-29T13:45:50Z</time>
      </trkpt>
      <trkpt lat="48.67347" lon="7.35422">
        <ele>309.648804</ele>
        <time>2010-05-29T13:45:52Z</time>
      </trkpt>
      <trkpt lat="48.6734" lon="7.35441">
        <ele>308.969116</ele>
        <time>2010-05-29T13:45:54Z</time>
      </trkpt>
      <trkpt lat="48.67334" lon="7.35461">
        <ele>307.875366</ele>
        <time>2010-05-29T13:45:56Z</time>
      </trkpt>
      <trkpt lat="48.67328" lon="7.35479">
        <ele>306.914429</ele>
        <time>2010-05-29T13:45:58Z</time>
      </trkpt>
      <trkpt lat="48.6732" lon="7.35494">
        <ele>306.367554</ele>
        <time>2010-05-29T13:46:00Z</time>
      </trkpt>
      <trkpt lat="48.6731" lon="7.35509">
        <ele>305.867554</ele>
        <time>2010-05-29T13:46:02Z</time>
      </trkpt>
      <trkpt lat="48.673" lon="7.35522">
        <ele>304.851929</ele>
        <time>2010-05-29T13:46:04Z</time>
      </trkpt>
      <trkpt lat="48.67289" lon="7.35534">
        <ele>305.430054</ele>
        <time>2010-05-29T13:46:06Z</time>
      </trkpt>
      <trkpt lat="48.67278" lon="7.35547">
        <ele>305.890991</ele>
        <time>2010-05-29T13:46:08Z</time>
      </trkpt>
      <trkpt lat="48.67268" lon="7.3556">
        <ele>305.773804</ele>
        <time>2010-05-29T13:46:10Z</time>
      </trkpt>
      <trkpt lat="48.67258" lon="7.35572">
        <ele>306.187866</ele>
        <time>2010-05-29T13:46:12Z</time>
      </trkpt>
      <trkpt lat="48.6725" lon="7.35586">
        <ele>306.055054</ele>
        <time>2010-05-29T13:46:14Z</time>
      </trkpt>
      <trkpt lat="48.67243" lon="7.356">
        <ele>306.219116</ele>
        <time>2010-05-29T13:46:16Z</time>
      </trkpt>
      <trkpt lat="48.67238" lon="7.35613">
        <ele>306.156616</ele>
        <time>2010-05-29T13:46:18Z</time>
      </trkpt>
      <trkpt lat="48.67233" lon="7.35625">
        <ele>305.812866</ele>
        <time>2010-05-29T13:46:21Z</time>
      </trkpt>
      <trkpt lat="48.67229" lon="7.3564">
        <ele>305.445679</ele>
        <time>2010-05-29T13:46:27Z</time>
      </trkpt>
      <trkpt lat="48.67225" lon="7.35653">
        <ele>305.039429</ele>
        <time>2010-05-29T13:46:31Z</time>
      </trkpt>
      <trkpt lat="48.6722" lon="7.35666">
        <ele>304.398804</ele>
        <time>2010-05-29T13:46:35Z</time>
      </trkpt>
      <trkpt lat="48.6723" lon="7.35675">
        <ele>304.008179</ele>
        <time>2010-05-29T13:46:41Z</time>
      </trkpt>
      <trkpt lat="48.67239" lon="7.35683">
        <ele>303.758179</ele>
        <time>2010-05-29T13:46:44Z</time>
      </trkpt>
      <trkpt lat="48.67246" lon="7.35692">
        <ele>303.187866</ele>
        <time>2010-05-29T13:46:46Z</time>
      </trkpt>
      <trkpt lat="48.67254" lon="7.35704">
        <ele>302.312866</ele>
        <time>2010-05-29T13:46:48Z</time>
      </trkpt>
      <trkpt lat="48.67262" lon="7.35715">
        <ele>301.484741</ele>
        <time>2010-05-29T13:46:50Z</time>
      </trkpt>
      <trkpt lat="48.67273" lon="7.3573">
        <ele>299.867554</ele>
        <time>2010-05-29T13:46:52Z</time>
      </trkpt>
      <trkpt lat="48.67286" lon="7.35743">
        <ele>298.687866</ele>
        <time>2010-05-29T13:46:54Z</time>
      </trkpt>
      <trkpt lat="48.673" lon="7.35758">
        <ele>297.750366</ele>
        <time>2010-05-29T13:46:56Z</time>
      </trkpt>
      <trkpt lat="48.67313" lon="7.35772">
        <ele>296.875366</ele>
        <time>2010-05-29T13:46:58Z</time>
      </trkpt>
      <trkpt lat="48.67326" lon="7.35787">
        <ele>296.039429</ele>
        <time>2010-05-29T13:47:00Z</time>
      </trkpt>
      <trkpt lat="48.67337" lon="7.35804">
        <ele>294.773804</ele>
        <time>2010-05-29T13:47:02Z</time>
      </trkpt>
      <trkpt lat="48.67349" lon="7.35821">
        <ele>293.539429</ele>
        <time>2010-05-29T13:47:04Z</time>
      </trkpt>
      <trkpt lat="48.67359" lon="7.3584">
        <ele>293.242554</ele>
        <time>2010-05-29T13:47:06Z</time>
      </trkpt>
      <trkpt lat="48.67368" lon="7.3586">
        <ele>293.156616</ele>
        <time>2010-05-29T13:47:08Z</time>
      </trkpt>
      <trkpt lat="48.67374" lon="7.3588">
        <ele>293.578491</ele>
        <time>2010-05-29T13:47:10Z</time>
      </trkpt>
      <trkpt lat="48.67379" lon="7.35899">
        <ele>293.531616</ele>
        <time>2010-05-29T13:47:12Z</time>
      </trkpt>
      <trkpt lat="48.67386" lon="7.35917">
        <ele>293.344116</ele>
        <time>2010-05-29T13:47:14Z</time>
      </trkpt>
      <trkpt lat="48.67392" lon="7.35933">
        <ele>293.226929</ele>
        <time>2010-05-29T13:47:16Z</time>
      </trkpt>
      <trkpt lat="48.67399" lon="7.3595">
        <ele>293.140991</ele>
        <time>2010-05-29T13:47:18Z</time>
      </trkpt>
      <trkpt lat="48.67405" lon="7.35966">
        <ele>293.140991</ele>
        <time>2010-05-29T13:47:20Z</time>
      </trkpt>
      <trkpt lat="48.6741" lon="7.35981">
        <ele>292.867554</ele>
        <time>2010-05-29T13:47:22Z</time>
      </trkpt>
      <trkpt lat="48.67417" lon="7.35995">
        <ele>292.797241</ele>
        <time>2010-05-29T13:47:24Z</time>
      </trkpt>
      <trkpt lat="48.67424" lon="7.36008">
        <ele>292.914429</ele>
        <time>2010-05-29T13:47:26Z</time>
      </trkpt>
      <trkpt lat="48.6743" lon="7.36018">
        <ele>292.180054</ele>
        <time>2010-05-29T13:47:28Z</time>
      </trkpt>
      <trkpt lat="48.67436" lon="7.36031">
        <ele>292.258179</ele>
        <time>2010-05-29T13:47:32Z</time>
      </trkpt>
      <trkpt lat="48.67437" lon="7.36046">
        <ele>292.523804</ele>
        <time>2010-05-29T13:48:01Z</time>
      </trkpt>
      <trkpt lat="48.67446" lon="7.36051">
        <ele>292.422241</ele>
        <time>2010-05-29T13:48:04Z</time>
      </trkpt>
      <trkpt lat="48.67458" lon="7.36056">
        <ele>292.015991</ele>
        <time>2010-05-29T13:48:07Z</time>
      </trkpt>
      <trkpt lat="48.67468" lon="7.36059">
        <ele>291.836304</ele>
        <time>2010-05-29T13:48:09Z</time>
      </trkpt>
      <trkpt lat="48.67477" lon="7.36063">
        <ele>291.469116</ele>
        <time>2010-05-29T13:48:11Z</time>
      </trkpt>
      <trkpt lat="48.67487" lon="7.36066">
        <ele>291.203491</ele>
        <time>2010-05-29T13:48:13Z</time>
      </trkpt>
      <trkpt lat="48.67498" lon="7.36069">
        <ele>290.851929</ele>
        <time>2010-05-29T13:48:15Z</time>
      </trkpt>
      <trkpt lat="48.67508" lon="7.36073">
        <ele>290.484741</ele>
        <time>2010-05-29T13:48:17Z</time>
      </trkpt>
      <trkpt lat="48.67519" lon="7.36077">
        <ele>290.312866</ele>
        <time>2010-05-29T13:48:19Z</time>
      </trkpt>
      <trkpt lat="48.67529" lon="7.36081">
        <ele>290.078491</ele>
        <time>2010-05-29T13:48:21Z</time>
      </trkpt>
      <trkpt lat="48.67539" lon="7.36084">
        <ele>289.976929</ele>
        <time>2010-05-29T13:48:23Z</time>
      </trkpt>
      <trkpt lat="48.6755" lon="7.36088">
        <ele>289.836304</ele>
        <time>2010-05-29T13:48:25Z</time>
      </trkpt>
      <trkpt lat="48.67561" lon="7.36092">
        <ele>289.812866</ele>
        <time>2010-05-29T13:48:27Z</time>
      </trkpt>
      <trkpt lat="48.67572" lon="7.36095">
        <ele>289.640991</ele>
        <time>2010-05-29T13:48:29Z</time>
      </trkpt>
      <trkpt lat="48.67582" lon="7.36098">
        <ele>289.508179</ele>
        <time>2010-05-29T13:48:31Z</time>
      </trkpt>
      <trkpt lat="48.67594" lon="7.36104">
        <ele>289.680054</ele>
        <time>2010-05-29T13:48:34Z</time>
      </trkpt>
      <trkpt lat="48.67604" lon="7.36107">
        <ele>290.055054</ele>
        <time>2010-05-29T13:48:37Z</time>
      </trkpt>
      <trkpt lat="48.67613" lon="7.36102">
        <ele>290.430054</ele>
        <time>2010-05-29T13:48:40Z</time>
      </trkpt>
      <trkpt lat="48.67623" lon="7.36101">
        <ele>291.906616</ele>
        <time>2010-05-29T13:48:44Z</time>
      </trkpt>
      <trkpt lat="48.67632" lon="7.36103">
        <ele>293.148804</ele>
        <time>2010-05-29T13:48:48Z</time>
      </trkpt>
      <trkpt lat="48.67641" lon="7.36103">
        <ele>293.984741</ele>
        <time>2010-05-29T13:48:52Z</time>
      </trkpt>
      <trkpt lat="48.67652" lon="7.36104">
        <ele>294.875366</ele>
        <time>2010-05-29T13:48:57Z</time>
      </trkpt>
      <trkpt lat="48.67662" lon="7.36104">
        <ele>296.812866</ele>
        <time>2010-05-29T13:49:03Z</time>
      </trkpt>
      <trkpt lat="48.67671" lon="7.36105">
        <ele>297.492554</ele>
        <time>2010-05-29T13:49:09Z</time>
      </trkpt>
      <trkpt lat="48.67682" lon="7.36104">
        <ele>298.008179</ele>
        <time>2010-05-29T13:49:16Z</time>
      </trkpt>
      <trkpt lat="48.67691" lon="7.36105">
        <ele>298.875366</ele>
        <time>2010-05-29T13:49:22Z</time>
      </trkpt>
      <trkpt lat="48.677" lon="7.36103">
        <ele>299.664429</ele>
        <time>2010-05-29T13:49:28Z</time>
      </trkpt>
      <trkpt lat="48.67709" lon="7.36101">
        <ele>300.359741</ele>
        <time>2010-05-29T13:49:34Z</time>
      </trkpt>
      <trkpt lat="48.67719" lon="7.361">
        <ele>301.125366</ele>
        <time>2010-05-29T13:49:40Z</time>
      </trkpt>
      <trkpt lat="48.67728" lon="7.36097">
        <ele>301.734741</ele>
        <time>2010-05-29T13:49:47Z</time>
      </trkpt>
      <trkpt lat="48.67738" lon="7.36096">
        <ele>301.687866</ele>
        <time>2010-05-29T13:49:55Z</time>
      </trkpt>
      <trkpt lat="48.67748" lon="7.36095">
        <ele>302.055054</ele>
        <time>2010-05-29T13:50:03Z</time>
      </trkpt>
      <trkpt lat="48.67757" lon="7.36093">
        <ele>303.055054</ele>
        <time>2010-05-29T13:50:10Z</time>
      </trkpt>
      <trkpt lat="48.67768" lon="7.36091">
        <ele>303.781616</ele>
        <time>2010-05-29T13:50:17Z</time>
      </trkpt>
      <trkpt lat="48.67778" lon="7.36088">
        <ele>305.156616</ele>
        <time>2010-05-29T13:50:24Z</time>
      </trkpt>
      <trkpt lat="48.67787" lon="7.36086">
        <ele>306.351929</ele>
        <time>2010-05-29T13:50:30Z</time>
      </trkpt>
      <trkpt lat="48.67797" lon="7.36085">
        <ele>307.015991</ele>
        <time>2010-05-29T13:50:35Z</time>
      </trkpt>
      <trkpt lat="48.67806" lon="7.36082">
        <ele>307.914429</ele>
        <time>2010-05-29T13:50:42Z</time>
      </trkpt>
      <trkpt lat="48.67815" lon="7.36078">
        <ele>308.469116</ele>
        <time>2010-05-29T13:50:48Z</time>
      </trkpt>
      <trkpt lat="48.67824" lon="7.36075">
        <ele>309.180054</ele>
        <time>2010-05-29T13:50:54Z</time>
      </trkpt>
      <trkpt lat="48.67833" lon="7.36072">
        <ele>309.914429</ele>
        <time>2010-05-29T13:51:00Z</time>
      </trkpt>
      <trkpt lat="48.67844" lon="7.36069">
        <ele>310.765991</ele>
        <time>2010-05-29T13:51:07Z</time>
      </trkpt>
      <trkpt lat="48.67854" lon="7.36065">
        <ele>311.726929</ele>
        <time>2010-05-29T13:51:13Z</time>
      </trkpt>
      <trkpt lat="48.67864" lon="7.36061">
        <ele>312.258179</ele>
        <time>2010-05-29T13:51:19Z</time>
      </trkpt>
      <trkpt lat="48.67874" lon="7.36058">
        <ele>312.984741</ele>
        <time>2010-05-29T13:51:24Z</time>
      </trkpt>
      <trkpt lat="48.67884" lon="7.36056">
        <ele>313.242554</ele>
        <time>2010-05-29T13:51:29Z</time>
      </trkpt>
      <trkpt lat="48.67894" lon="7.36054">
        <ele>313.625366</ele>
        <time>2010-05-29T13:51:34Z</time>
      </trkpt>
      <trkpt lat="48.67903" lon="7.36053">
        <ele>314.195679</ele>
        <time>2010-05-29T13:51:39Z</time>
      </trkpt>
      <trkpt lat="48.67913" lon="7.36052">
        <ele>314.609741</ele>
        <time>2010-05-29T13:51:44Z</time>
      </trkpt>
      <trkpt lat="48.67924" lon="7.36051">
        <ele>314.976929</ele>
        <time>2010-05-29T13:51:49Z</time>
      </trkpt>
      <trkpt lat="48.67934" lon="7.36051">
        <ele>315.500366</ele>
        <time>2010-05-29T13:51:54Z</time>
      </trkpt>
      <trkpt lat="48.67943" lon="7.36051">
        <ele>315.578491</ele>
        <time>2010-05-29T13:51:58Z</time>
      </trkpt>
      <trkpt lat="48.67953" lon="7.36049">
        <ele>316.062866</ele>
        <time>2010-05-29T13:52:03Z</time>
      </trkpt>
      <trkpt lat="48.67962" lon="7.36045">
        <ele>316.914429</ele>
        <time>2010-05-29T13:52:11Z</time>
      </trkpt>
      <trkpt lat="48.67971" lon="7.36047">
        <ele>321.695679</ele>
        <time>2010-05-29T14:04:18Z</time>
      </trkpt>
      <trkpt lat="48.6798" lon="7.36044">
        <ele>322.109741</ele>
        <time>2010-05-29T14:04:24Z</time>
      </trkpt>
      <trkpt lat="48.67989" lon="7.3604">
        <ele>322.711304</ele>
        <time>2010-05-29T14:04:29Z</time>
      </trkpt>
      <trkpt lat="48.67998" lon="7.36035">
        <ele>322.297241</ele>
        <time>2010-05-29T14:04:33Z</time>
      </trkpt>
      <trkpt lat="48.68007" lon="7.36028">
        <ele>322.758179</ele>
        <time>2010-05-29T14:04:38Z</time>
      </trkpt>
      <trkpt lat="48.68016" lon="7.36021">
        <ele>323.437866</ele>
        <time>2010-05-29T14:04:42Z</time>
      </trkpt>
      <trkpt lat="48.68025" lon="7.3601">
        <ele>322.289429</ele>
        <time>2010-05-29T14:04:46Z</time>
      </trkpt>
      <trkpt lat="48.68033" lon="7.36001">
        <ele>323.555054</ele>
        <time>2010-05-29T14:04:51Z</time>
      </trkpt>
      <trkpt lat="48.68039" lon="7.3599">
        <ele>324.656616</ele>
        <time>2010-05-29T14:04:56Z</time>
      </trkpt>
      <trkpt lat="48.68044" lon="7.35978">
        <ele>325.469116</ele>
        <time>2010-05-29T14:05:01Z</time>
      </trkpt>
      <trkpt lat="48.68051" lon="7.35967">
        <ele>327.797241</ele>
        <time>2010-05-29T14:05:06Z</time>
      </trkpt>
      <trkpt lat="48.6806" lon="7.35957">
        <ele>330.508179</ele>
        <time>2010-05-29T14:05:12Z</time>
      </trkpt>
      <trkpt lat="48.68068" lon="7.35952">
        <ele>331.515991</ele>
        <time>2010-05-29T14:05:16Z</time>
      </trkpt>
      <trkpt lat="48.68073" lon="7.3594">
        <ele>332.633179</ele>
        <time>2010-05-29T14:05:22Z</time>
      </trkpt>
      <trkpt lat="48.68079" lon="7.35929">
        <ele>335.226929</ele>
        <time>2010-05-29T14:05:29Z</time>
      </trkpt>
      <trkpt lat="48.68087" lon="7.35921">
        <ele>337.625366</ele>
        <time>2010-05-29T14:05:34Z</time>
      </trkpt>
      <trkpt lat="48.68096" lon="7.35912">
        <ele>337.164429</ele>
        <time>2010-05-29T14:05:39Z</time>
      </trkpt>
      <trkpt lat="48.68101" lon="7.359">
        <ele>336.930054</ele>
        <time>2010-05-29T14:05:45Z</time>
      </trkpt>
      <trkpt lat="48.68099" lon="7.35887">
        <ele>335.101929</ele>
        <time>2010-05-29T14:05:49Z</time>
      </trkpt>
      <trkpt lat="48.68103" lon="7.35872">
        <ele>337.008179</ele>
        <time>2010-05-29T14:05:55Z</time>
      </trkpt>
      <trkpt lat="48.6811" lon="7.35861">
        <ele>336.945679</ele>
        <time>2010-05-29T14:05:59Z</time>
      </trkpt>
      <trkpt lat="48.68116" lon="7.35852">
        <ele>339.680054</ele>
        <time>2010-05-29T14:06:04Z</time>
      </trkpt>
      <trkpt lat="48.68123" lon="7.3584">
        <ele>341.406616</ele>
        <time>2010-05-29T14:06:11Z</time>
      </trkpt>
      <trkpt lat="48.6813" lon="7.35831">
        <ele>342.742554</ele>
        <time>2010-05-29T14:06:17Z</time>
      </trkpt>
      <trkpt lat="48.68139" lon="7.35827">
        <ele>344.640991</ele>
        <time>2010-05-29T14:06:21Z</time>
      </trkpt>
      <trkpt lat="48.68147" lon="7.3582">
        <ele>346.078491</ele>
        <time>2010-05-29T14:06:26Z</time>
      </trkpt>
      <trkpt lat="48.68156" lon="7.35817">
        <ele>342.180054</ele>
        <time>2010-05-29T14:06:33Z</time>
      </trkpt>
      <trkpt lat="48.68164" lon="7.35828">
        <ele>344.445679</ele>
        <time>2010-05-29T14:06:57Z</time>
      </trkpt>
      <trkpt lat="48.68168" lon="7.35843">
        <ele>345.015991</ele>
        <time>2010-05-29T14:07:01Z</time>
      </trkpt>
      <trkpt lat="48.68176" lon="7.35857">
        <ele>344.039429</ele>
        <time>2010-05-29T14:07:05Z</time>
      </trkpt>
      <trkpt lat="48.68182" lon="7.35873">
        <ele>342.203491</ele>
        <time>2010-05-29T14:07:08Z</time>
      </trkpt>
      <trkpt lat="48.68185" lon="7.35889">
        <ele>342.812866</ele>
        <time>2010-05-29T14:07:12Z</time>
      </trkpt>
      <trkpt lat="48.68184" lon="7.35904">
        <ele>344.976929</ele>
        <time>2010-05-29T14:07:15Z</time>
      </trkpt>
      <trkpt lat="48.68181" lon="7.3592">
        <ele>344.430054</ele>
        <time>2010-05-29T14:07:18Z</time>
      </trkpt>
      <trkpt lat="48.68185" lon="7.35937">
        <ele>343.398804</ele>
        <time>2010-05-29T14:07:20Z</time>
      </trkpt>
      <trkpt lat="48.68188" lon="7.35954">
        <ele>343.437866</ele>
        <time>2010-05-29T14:07:23Z</time>
      </trkpt>
      <trkpt lat="48.68184" lon="7.35972">
        <ele>339.680054</ele>
        <time>2010-05-29T14:07:26Z</time>
      </trkpt>
      <trkpt lat="48.68188" lon="7.35983">
        <ele>337.586304</ele>
        <time>2010-05-29T14:07:28Z</time>
      </trkpt>
      <trkpt lat="48.68194" lon="7.35995">
        <ele>336.523804</ele>
        <time>2010-05-29T14:07:30Z</time>
      </trkpt>
      <trkpt lat="48.682" lon="7.36015">
        <ele>336.015991</ele>
        <time>2010-05-29T14:07:33Z</time>
      </trkpt>
      <trkpt lat="48.68206" lon="7.36031">
        <ele>335.195679</ele>
        <time>2010-05-29T14:07:36Z</time>
      </trkpt>
      <trkpt lat="48.68205" lon="7.36048">
        <ele>330.953491</ele>
        <time>2010-05-29T14:07:39Z</time>
      </trkpt>
      <trkpt lat="48.68203" lon="7.36064">
        <ele>325.672241</ele>
        <time>2010-05-29T14:07:42Z</time>
      </trkpt>
      <trkpt lat="48.68202" lon="7.36077">
        <ele>322.906616</ele>
        <time>2010-05-29T14:07:44Z</time>
      </trkpt>
      <trkpt lat="48.68203" lon="7.36096">
        <ele>322.648804</ele>
        <time>2010-05-29T14:07:47Z</time>
      </trkpt>
      <trkpt lat="48.68204" lon="7.36113">
        <ele>325.344116</ele>
        <time>2010-05-29T14:07:50Z</time>
      </trkpt>
      <trkpt lat="48.68203" lon="7.36131">
        <ele>322.148804</ele>
        <time>2010-05-29T14:07:53Z</time>
      </trkpt>
      <trkpt lat="48.68206" lon="7.36145">
        <ele>320.211304</ele>
        <time>2010-05-29T14:07:56Z</time>
      </trkpt>
      <trkpt lat="48.68207" lon="7.3616">
        <ele>317.344116</ele>
        <time>2010-05-29T14:07:59Z</time>
      </trkpt>
      <trkpt lat="48.68214" lon="7.36178">
        <ele>313.890991</ele>
        <time>2010-05-29T14:08:02Z</time>
      </trkpt>
      <trkpt lat="48.68221" lon="7.36189">
        <ele>309.258179</ele>
        <time>2010-05-29T14:08:04Z</time>
      </trkpt>
      <trkpt lat="48.68227" lon="7.36201">
        <ele>306.265991</ele>
        <time>2010-05-29T14:08:06Z</time>
      </trkpt>
      <trkpt lat="48.68232" lon="7.36216">
        <ele>301.969116</ele>
        <time>2010-05-29T14:08:08Z</time>
      </trkpt>
      <trkpt lat="48.6824" lon="7.3623">
        <ele>300.398804</ele>
        <time>2010-05-29T14:08:10Z</time>
      </trkpt>
      <trkpt lat="48.6825" lon="7.36246">
        <ele>298.414429</ele>
        <time>2010-05-29T14:08:12Z</time>
      </trkpt>
      <trkpt lat="48.68258" lon="7.36263">
        <ele>297.625366</ele>
        <time>2010-05-29T14:08:14Z</time>
      </trkpt>
      <trkpt lat="48.68266" lon="7.36278">
        <ele>295.914429</ele>
        <time>2010-05-29T14:08:16Z</time>
      </trkpt>
      <trkpt lat="48.68275" lon="7.36294">
        <ele>295.000366</ele>
        <time>2010-05-29T14:08:18Z</time>
      </trkpt>
      <trkpt lat="48.68283" lon="7.36312">
        <ele>294.562866</ele>
        <time>2010-05-29T14:08:20Z</time>
      </trkpt>
      <trkpt lat="48.68291" lon="7.36329">
        <ele>292.680054</ele>
        <time>2010-05-29T14:08:22Z</time>
      </trkpt>
      <trkpt lat="48.683" lon="7.36347">
        <ele>291.625366</ele>
        <time>2010-05-29T14:08:24Z</time>
      </trkpt>
      <trkpt lat="48.68308" lon="7.36363">
        <ele>291.156616</ele>
        <time>2010-05-29T14:08:26Z</time>
      </trkpt>
      <trkpt lat="48.68316" lon="7.3638">
        <ele>290.305054</ele>
        <time>2010-05-29T14:08:28Z</time>
      </trkpt>
      <trkpt lat="48.68324" lon="7.36395">
        <ele>289.195679</ele>
        <time>2010-05-29T14:08:30Z</time>
      </trkpt>
      <trkpt lat="48.68333" lon="7.36408">
        <ele>288.851929</ele>
        <time>2010-05-29T14:08:32Z</time>
      </trkpt>
      <trkpt lat="48.68343" lon="7.36419">
        <ele>288.172241</ele>
        <time>2010-05-29T14:08:34Z</time>
      </trkpt>
      <trkpt lat="48.68352" lon="7.36428">
        <ele>287.515991</ele>
        <time>2010-05-29T14:08:36Z</time>
      </trkpt>
      <trkpt lat="48.68361" lon="7.3644">
        <ele>286.758179</ele>
        <time>2010-05-29T14:08:39Z</time>
      </trkpt>
      <trkpt lat="48.68367" lon="7.3645">
        <ele>286.242554</ele>
        <time>2010-05-29T14:08:42Z</time>
      </trkpt>
      <trkpt lat="48.68375" lon="7.36457">
        <ele>285.828491</ele>
        <time>2010-05-29T14:08:48Z</time>
      </trkpt>
      <trkpt lat="48.68384" lon="7.36461">
        <ele>285.945679</ele>
        <time>2010-05-29T14:09:33Z</time>
      </trkpt>
      <trkpt lat="48.68394" lon="7.36464">
        <ele>286.250366</ele>
        <time>2010-05-29T14:09:40Z</time>
      </trkpt>
      <trkpt lat="48.68404" lon="7.36466">
        <ele>286.390991</ele>
        <time>2010-05-29T14:09:48Z</time>
      </trkpt>
      <trkpt lat="48.68414" lon="7.3647">
        <ele>286.789429</ele>
        <time>2010-05-29T14:09:53Z</time>
      </trkpt>
      <trkpt lat="48.68422" lon="7.36473">
        <ele>286.742554</ele>
        <time>2010-05-29T14:09:56Z</time>
      </trkpt>
      <trkpt lat="48.68432" lon="7.36476">
        <ele>286.773804</ele>
        <time>2010-05-29T14:09:59Z</time>
      </trkpt>
      <trkpt lat="48.68441" lon="7.3648">
        <ele>287.375366</ele>
        <time>2010-05-29T14:10:02Z</time>
      </trkpt>
      <trkpt lat="48.68451" lon="7.36482">
        <ele>287.469116</ele>
        <time>2010-05-29T14:10:05Z</time>
      </trkpt>
      <trkpt lat="48.6846" lon="7.36485">
        <ele>287.828491</ele>
        <time>2010-05-29T14:10:08Z</time>
      </trkpt>
      <trkpt lat="48.68469" lon="7.36489">
        <ele>288.219116</ele>
        <time>2010-05-29T14:10:11Z</time>
      </trkpt>
      <trkpt lat="48.6848" lon="7.36492">
        <ele>288.562866</ele>
        <time>2010-05-29T14:10:14Z</time>
      </trkpt>
      <trkpt lat="48.68489" lon="7.36495">
        <ele>288.875366</ele>
        <time>2010-05-29T14:10:17Z</time>
      </trkpt>
      <trkpt lat="48.68499" lon="7.36498">
        <ele>289.047241</ele>
        <time>2010-05-29T14:10:20Z</time>
      </trkpt>
      <trkpt lat="48.68508" lon="7.36501">
        <ele>288.828491</ele>
        <time>2010-05-29T14:10:23Z</time>
      </trkpt>
      <trkpt lat="48.68517" lon="7.36505">
        <ele>288.851929</ele>
        <time>2010-05-29T14:10:26Z</time>
      </trkpt>
      <trkpt lat="48.68527" lon="7.36509">
        <ele>288.711304</ele>
        <time>2010-05-29T14:10:29Z</time>
      </trkpt>
      <trkpt lat="48.68538" lon="7.36514">
        <ele>288.476929</ele>
        <time>2010-05-29T14:10:32Z</time>
      </trkpt>
      <trkpt lat="48.68549" lon="7.36519">
        <ele>287.820679</ele>
        <time>2010-05-29T14:10:35Z</time>
      </trkpt>
      <trkpt lat="48.68561" lon="7.36526">
        <ele>287.359741</ele>
        <time>2010-05-29T14:10:38Z</time>
      </trkpt>
      <trkpt lat="48.68573" lon="7.36533">
        <ele>286.937866</ele>
        <time>2010-05-29T14:10:41Z</time>
      </trkpt>
      <trkpt lat="48.68581" lon="7.36539">
        <ele>286.430054</ele>
        <time>2010-05-29T14:10:43Z</time>
      </trkpt>
      <trkpt lat="48.6859" lon="7.36545">
        <ele>285.883179</ele>
        <time>2010-05-29T14:10:45Z</time>
      </trkpt>
      <trkpt lat="48.68599" lon="7.36551">
        <ele>285.172241</ele>
        <time>2010-05-29T14:10:47Z</time>
      </trkpt>
      <trkpt lat="48.68607" lon="7.36558">
        <ele>285.094116</ele>
        <time>2010-05-29T14:10:49Z</time>
      </trkpt>
      <trkpt lat="48.68616" lon="7.36566">
        <ele>284.726929</ele>
        <time>2010-05-29T14:10:51Z</time>
      </trkpt>
      <trkpt lat="48.68626" lon="7.36572">
        <ele>283.906616</ele>
        <time>2010-05-29T14:10:53Z</time>
      </trkpt>
      <trkpt lat="48.68636" lon="7.36579">
        <ele>283.125366</ele>
        <time>2010-05-29T14:10:55Z</time>
      </trkpt>
      <trkpt lat="48.68646" lon="7.36587">
        <ele>282.703491</ele>
        <time>2010-05-29T14:10:57Z</time>
      </trkpt>
      <trkpt lat="48.68657" lon="7.36594">
        <ele>282.328491</ele>
        <time>2010-05-29T14:10:59Z</time>
      </trkpt>
      <trkpt lat="48.68667" lon="7.36602">
        <ele>281.773804</ele>
        <time>2010-05-29T14:11:01Z</time>
      </trkpt>
      <trkpt lat="48.68677" lon="7.3661">
        <ele>281.234741</ele>
        <time>2010-05-29T14:11:03Z</time>
      </trkpt>
      <trkpt lat="48.68689" lon="7.36617">
        <ele>280.883179</ele>
        <time>2010-05-29T14:11:05Z</time>
      </trkpt>
      <trkpt lat="48.687" lon="7.36626">
        <ele>280.500366</ele>
        <time>2010-05-29T14:11:07Z</time>
      </trkpt>
      <trkpt lat="48.68712" lon="7.36631">
        <ele>280.015991</ele>
        <time>2010-05-29T14:11:09Z</time>
      </trkpt>
      <trkpt lat="48.68721" lon="7.36637">
        <ele>279.648804</ele>
        <time>2010-05-29T14:11:11Z</time>
      </trkpt>
      <trkpt lat="48.6873" lon="7.36642">
        <ele>279.281616</ele>
        <time>2010-05-29T14:11:14Z</time>
      </trkpt>
      <trkpt lat="48.6873" lon="7.36656">
        <ele>279.820679</ele>
        <time>2010-05-29T14:11:23Z</time>
      </trkpt>
      <trkpt lat="48.68725" lon="7.36668">
        <ele>280.133179</ele>
        <time>2010-05-29T14:11:28Z</time>
      </trkpt>
      <trkpt lat="48.68722" lon="7.36681">
        <ele>280.875366</ele>
        <time>2010-05-29T14:11:34Z</time>
      </trkpt>
      <trkpt lat="48.68718" lon="7.36696">
        <ele>281.836304</ele>
        <time>2010-05-29T14:11:40Z</time>
      </trkpt>
      <trkpt lat="48.68714" lon="7.36709">
        <ele>281.531616</ele>
        <time>2010-05-29T14:11:43Z</time>
      </trkpt>
      <trkpt lat="48.68709" lon="7.36723">
        <ele>281.539429</ele>
        <time>2010-05-29T14:11:46Z</time>
      </trkpt>
      <trkpt lat="48.68705" lon="7.36735">
        <ele>281.523804</ele>
        <time>2010-05-29T14:11:49Z</time>
      </trkpt>
      <trkpt lat="48.68699" lon="7.36749">
        <ele>281.015991</ele>
        <time>2010-05-29T14:11:52Z</time>
      </trkpt>
      <trkpt lat="48.68692" lon="7.36766">
        <ele>280.367554</ele>
        <time>2010-05-29T14:11:55Z</time>
      </trkpt>
      <trkpt lat="48.68689" lon="7.3678">
        <ele>279.226929</ele>
        <time>2010-05-29T14:11:57Z</time>
      </trkpt>
      <trkpt lat="48.68684" lon="7.36795">
        <ele>278.203491</ele>
        <time>2010-05-29T14:11:59Z</time>
      </trkpt>
      <trkpt lat="48.68681" lon="7.36809">
        <ele>276.351929</ele>
        <time>2010-05-29T14:12:01Z</time>
      </trkpt>
      <trkpt lat="48.68679" lon="7.36829">
        <ele>274.320679</ele>
        <time>2010-05-29T14:12:03Z</time>
      </trkpt>
      <trkpt lat="48.68679" lon="7.3685">
        <ele>272.969116</ele>
        <time>2010-05-29T14:12:05Z</time>
      </trkpt>
      <trkpt lat="48.68678" lon="7.36868">
        <ele>271.414429</ele>
        <time>2010-05-29T14:12:07Z</time>
      </trkpt>
      <trkpt lat="48.68676" lon="7.36885">
        <ele>270.000366</ele>
        <time>2010-05-29T14:12:09Z</time>
      </trkpt>
      <trkpt lat="48.68674" lon="7.36899">
        <ele>269.117554</ele>
        <time>2010-05-29T14:12:11Z</time>
      </trkpt>
      <trkpt lat="48.68669" lon="7.36917">
        <ele>267.601929</ele>
        <time>2010-05-29T14:12:14Z</time>
      </trkpt>
      <trkpt lat="48.68667" lon="7.36935">
        <ele>266.133179</ele>
        <time>2010-05-29T14:12:16Z</time>
      </trkpt>
      <trkpt lat="48.68667" lon="7.36957">
        <ele>263.789429</ele>
        <time>2010-05-29T14:12:18Z</time>
      </trkpt>
      <trkpt lat="48.68668" lon="7.36983">
        <ele>261.515991</ele>
        <time>2010-05-29T14:12:20Z</time>
      </trkpt>
      <trkpt lat="48.68669" lon="7.36997">
        <ele>260.422241</ele>
        <time>2010-05-29T14:12:21Z</time>
      </trkpt>
      <trkpt lat="48.68669" lon="7.37011">
        <ele>259.148804</ele>
        <time>2010-05-29T14:12:22Z</time>
      </trkpt>
      <trkpt lat="48.6867" lon="7.37026">
        <ele>257.992554</ele>
        <time>2010-05-29T14:12:23Z</time>
      </trkpt>
      <trkpt lat="48.68671" lon="7.37041">
        <ele>256.789429</ele>
        <time>2010-05-29T14:12:24Z</time>
      </trkpt>
      <trkpt lat="48.68672" lon="7.37056">
        <ele>255.890808</ele>
        <time>2010-05-29T14:12:25Z</time>
      </trkpt>
      <trkpt lat="48.68673" lon="7.37072">
        <ele>254.843933</ele>
        <time>2010-05-29T14:12:26Z</time>
      </trkpt>
      <trkpt lat="48.68674" lon="7.37086">
        <ele>253.882996</ele>
        <time>2010-05-29T14:12:27Z</time>
      </trkpt>
      <trkpt lat="48.68675" lon="7.3711">
        <ele>252.058777</ele>
        <time>2010-05-29T14:12:29Z</time>
      </trkpt>
      <trkpt lat="48.68677" lon="7.37128">
        <ele>250.648621</ele>
        <time>2010-05-29T14:12:31Z</time>
      </trkpt>
      <trkpt lat="48.68679" lon="7.37145">
        <ele>249.429871</ele>
        <time>2010-05-29T14:12:33Z</time>
      </trkpt>
      <trkpt lat="48.68679" lon="7.37159">
        <ele>248.164246</ele>
        <time>2010-05-29T14:12:35Z</time>
      </trkpt>
      <trkpt lat="48.68679" lon="7.37176">
        <ele>247.363464</ele>
        <time>2010-05-29T14:12:38Z</time>
      </trkpt>
      <trkpt lat="48.6868" lon="7.37191">
        <ele>246.211121</ele>
        <time>2010-05-29T14:12:43Z</time>
      </trkpt>
      <trkpt lat="48.68689" lon="7.37196">
        <ele>245.882996</ele>
        <time>2010-05-29T14:13:10Z</time>
      </trkpt>
      <trkpt lat="48.687" lon="7.37199">
        <ele>246.004089</ele>
        <time>2010-05-29T14:13:13Z</time>
      </trkpt>
      <trkpt lat="48.6871" lon="7.37204">
        <ele>245.371277</ele>
        <time>2010-05-29T14:13:16Z</time>
      </trkpt>
      <trkpt lat="48.68721" lon="7.37209">
        <ele>244.800964</ele>
        <time>2010-05-29T14:13:20Z</time>
      </trkpt>
      <trkpt lat="48.6873" lon="7.37213">
        <ele>244.058777</ele>
        <time>2010-05-29T14:13:23Z</time>
      </trkpt>
      <trkpt lat="48.6874" lon="7.37216">
        <ele>243.566589</ele>
        <time>2010-05-29T14:13:27Z</time>
      </trkpt>
      <trkpt lat="48.6875" lon="7.37219">
        <ele>243.050964</ele>
        <time>2010-05-29T14:13:31Z</time>
      </trkpt>
      <trkpt lat="48.6876" lon="7.37225">
        <ele>242.097839</ele>
        <time>2010-05-29T14:13:34Z</time>
      </trkpt>
      <trkpt lat="48.68769" lon="7.37235">
        <ele>241.660339</ele>
        <time>2010-05-29T14:13:37Z</time>
      </trkpt>
      <trkpt lat="48.68779" lon="7.37244">
        <ele>240.808777</ele>
        <time>2010-05-29T14:13:40Z</time>
      </trkpt>
      <trkpt lat="48.68789" lon="7.37253">
        <ele>239.902527</ele>
        <time>2010-05-29T14:13:43Z</time>
      </trkpt>
      <trkpt lat="48.688" lon="7.37262">
        <ele>239.168152</ele>
        <time>2010-05-29T14:13:46Z</time>
      </trkpt>
      <trkpt lat="48.68808" lon="7.37268">
        <ele>238.882996</ele>
        <time>2010-05-29T14:13:48Z</time>
      </trkpt>
      <trkpt lat="48.68818" lon="7.37276">
        <ele>238.398621</ele>
        <time>2010-05-29T14:13:50Z</time>
      </trkpt>
      <trkpt lat="48.68825" lon="7.37283">
        <ele>237.836121</ele>
        <time>2010-05-29T14:13:52Z</time>
      </trkpt>
      <trkpt lat="48.6883" lon="7.37298">
        <ele>237.211121</ele>
        <time>2010-05-29T14:13:55Z</time>
      </trkpt>
      <trkpt lat="48.68828" lon="7.37317">
        <ele>237.039246</ele>
        <time>2010-05-29T14:13:58Z</time>
      </trkpt>
      <trkpt lat="48.68824" lon="7.37331">
        <ele>237.242371</ele>
        <time>2010-05-29T14:14:02Z</time>
      </trkpt>
      <trkpt lat="48.68821" lon="7.37344">
        <ele>237.972839</ele>
        <time>2010-05-29T14:15:49Z</time>
      </trkpt>
      <trkpt lat="48.68816" lon="7.37356">
        <ele>237.453308</ele>
        <time>2010-05-29T14:15:52Z</time>
      </trkpt>
      <trkpt lat="48.6881" lon="7.37368">
        <ele>237.261902</ele>
        <time>2010-05-29T14:15:55Z</time>
      </trkpt>
      <trkpt lat="48.68803" lon="7.37384">
        <ele>236.629089</ele>
        <time>2010-05-29T14:15:58Z</time>
      </trkpt>
      <trkpt lat="48.68801" lon="7.37397">
        <ele>236.293152</ele>
        <time>2010-05-29T14:16:00Z</time>
      </trkpt>
      <trkpt lat="48.68799" lon="7.37412">
        <ele>235.632996</ele>
        <time>2010-05-29T14:16:02Z</time>
      </trkpt>
      <trkpt lat="48.68797" lon="7.37428">
        <ele>234.906433</ele>
        <time>2010-05-29T14:16:04Z</time>
      </trkpt>
      <trkpt lat="48.68794" lon="7.37444">
        <ele>234.351746</ele>
        <time>2010-05-29T14:16:06Z</time>
      </trkpt>
      <trkpt lat="48.68794" lon="7.37462">
        <ele>233.812683</ele>
        <time>2010-05-29T14:16:08Z</time>
      </trkpt>
      <trkpt lat="48.68798" lon="7.37479">
        <ele>232.922058</ele>
        <time>2010-05-29T14:16:10Z</time>
      </trkpt>
      <trkpt lat="48.68803" lon="7.37495">
        <ele>232.234558</ele>
        <time>2010-05-29T14:16:12Z</time>
      </trkpt>
      <trkpt lat="48.68808" lon="7.37506">
        <ele>231.859558</ele>
        <time>2010-05-29T14:16:14Z</time>
      </trkpt>
      <trkpt lat="48.68814" lon="7.37523">
        <ele>231.617371</ele>
        <time>2010-05-29T14:16:17Z</time>
      </trkpt>
      <trkpt lat="48.68821" lon="7.37538">
        <ele>231.488464</ele>
        <time>2010-05-29T14:16:20Z</time>
      </trkpt>
      <trkpt lat="48.68833" lon="7.37544">
        <ele>232.023621</ele>
        <time>2010-05-29T14:16:23Z</time>
      </trkpt>
      <trkpt lat="48.68845" lon="7.37547">
        <ele>231.832214</ele>
        <time>2010-05-29T14:16:26Z</time>
      </trkpt>
      <trkpt lat="48.68852" lon="7.37559">
        <ele>231.195496</ele>
        <time>2010-05-29T14:16:29Z</time>
      </trkpt>
      <trkpt lat="48.68854" lon="7.37574">
        <ele>231.222839</ele>
        <time>2010-05-29T14:16:32Z</time>
      </trkpt>
      <trkpt lat="48.68859" lon="7.37585">
        <ele>231.144714</ele>
        <time>2010-05-29T14:16:35Z</time>
      </trkpt>
      <trkpt lat="48.68868" lon="7.37579">
        <ele>231.902527</ele>
        <time>2010-05-29T14:16:38Z</time>
      </trkpt>
      <trkpt lat="48.68875" lon="7.37568">
        <ele>232.453308</ele>
        <time>2010-05-29T14:16:41Z</time>
      </trkpt>
      <trkpt lat="48.68881" lon="7.37555">
        <ele>233.285339</ele>
        <time>2010-05-29T14:16:44Z</time>
      </trkpt>
      <trkpt lat="48.68887" lon="7.37542">
        <ele>234.461121</ele>
        <time>2010-05-29T14:16:47Z</time>
      </trkpt>
      <trkpt lat="48.68897" lon="7.3754">
        <ele>235.711121</ele>
        <time>2010-05-29T14:16:51Z</time>
      </trkpt>
      <trkpt lat="48.68906" lon="7.37537">
        <ele>238.566589</ele>
        <time>2010-05-29T14:16:57Z</time>
      </trkpt>
      <trkpt lat="48.68914" lon="7.37527">
        <ele>240.336121</ele>
        <time>2010-05-29T14:17:02Z</time>
      </trkpt>
      <trkpt lat="48.68922" lon="7.37517">
        <ele>241.730652</ele>
        <time>2010-05-29T14:17:06Z</time>
      </trkpt>
      <trkpt lat="48.68929" lon="7.37507">
        <ele>242.066589</ele>
        <time>2010-05-29T14:17:10Z</time>
      </trkpt>
      <trkpt lat="48.68938" lon="7.37503">
        <ele>242.078308</ele>
        <time>2010-05-29T14:17:15Z</time>
      </trkpt>
      <trkpt lat="48.68947" lon="7.37513">
        <ele>241.648621</ele>
        <time>2010-05-29T14:17:19Z</time>
      </trkpt>
      <trkpt lat="48.68954" lon="7.37522">
        <ele>240.984558</ele>
        <time>2010-05-29T14:17:22Z</time>
      </trkpt>
      <trkpt lat="48.68961" lon="7.37529">
        <ele>240.445496</ele>
        <time>2010-05-29T14:17:25Z</time>
      </trkpt>
      <trkpt lat="48.68971" lon="7.37524">
        <ele>240.605652</ele>
        <time>2010-05-29T14:17:28Z</time>
      </trkpt>
      <trkpt lat="48.68981" lon="7.37514">
        <ele>240.961121</ele>
        <time>2010-05-29T14:17:31Z</time>
      </trkpt>
      <trkpt lat="48.68991" lon="7.37504">
        <ele>241.175964</ele>
        <time>2010-05-29T14:17:34Z</time>
      </trkpt>
      <trkpt lat="48.69001" lon="7.37493">
        <ele>241.082214</ele>
        <time>2010-05-29T14:17:37Z</time>
      </trkpt>
      <trkpt lat="48.69013" lon="7.37484">
        <ele>241.238464</ele>
        <time>2010-05-29T14:17:40Z</time>
      </trkpt>
      <trkpt lat="48.69024" lon="7.37474">
        <ele>241.293152</ele>
        <time>2010-05-29T14:17:43Z</time>
      </trkpt>
      <trkpt lat="48.69033" lon="7.37467">
        <ele>241.304871</ele>
        <time>2010-05-29T14:17:45Z</time>
      </trkpt>
      <trkpt lat="48.69044" lon="7.37457">
        <ele>241.918152</ele>
        <time>2010-05-29T14:17:48Z</time>
      </trkpt>
      <trkpt lat="48.69053" lon="7.37449">
        <ele>242.093933</ele>
        <time>2010-05-29T14:17:51Z</time>
      </trkpt>
      <trkpt lat="48.69059" lon="7.37438">
        <ele>242.066589</ele>
        <time>2010-05-29T14:17:59Z</time>
      </trkpt>
      <trkpt lat="48.69067" lon="7.37431">
        <ele>244.726746</ele>
        <time>2010-05-29T14:21:46Z</time>
      </trkpt>
      <trkpt lat="48.69075" lon="7.37423">
        <ele>244.289246</ele>
        <time>2010-05-29T14:21:52Z</time>
      </trkpt>
      <trkpt lat="48.69085" lon="7.37415">
        <ele>243.882996</ele>
        <time>2010-05-29T14:21:59Z</time>
      </trkpt>
      <trkpt lat="48.69094" lon="7.3741">
        <ele>243.191589</ele>
        <time>2010-05-29T14:22:09Z</time>
      </trkpt>
      <trkpt lat="48.69102" lon="7.37403">
        <ele>242.504089</ele>
        <time>2010-05-29T14:22:15Z</time>
      </trkpt>
      <trkpt lat="48.69109" lon="7.37395">
        <ele>242.300964</ele>
        <time>2010-05-29T14:22:19Z</time>
      </trkpt>
      <trkpt lat="48.69118" lon="7.37391">
        <ele>242.550964</ele>
        <time>2010-05-29T14:22:24Z</time>
      </trkpt>
      <trkpt lat="48.69126" lon="7.374">
        <ele>241.066589</ele>
        <time>2010-05-29T14:22:29Z</time>
      </trkpt>
      <trkpt lat="48.69135" lon="7.37392">
        <ele>241.035339</ele>
        <time>2010-05-29T14:22:33Z</time>
      </trkpt>
      <trkpt lat="48.69143" lon="7.37384">
        <ele>240.781433</ele>
        <time>2010-05-29T14:22:36Z</time>
      </trkpt>
      <trkpt lat="48.6915" lon="7.37376">
        <ele>239.996277</ele>
        <time>2010-05-29T14:22:39Z</time>
      </trkpt>
      <trkpt lat="48.69158" lon="7.37367">
        <ele>239.882996</ele>
        <time>2010-05-29T14:22:42Z</time>
      </trkpt>
      <trkpt lat="48.69166" lon="7.37358">
        <ele>239.582214</ele>
        <time>2010-05-29T14:22:45Z</time>
      </trkpt>
      <trkpt lat="48.69175" lon="7.37351">
        <ele>239.078308</ele>
        <time>2010-05-29T14:22:48Z</time>
      </trkpt>
      <trkpt lat="48.69185" lon="7.37348">
        <ele>238.547058</ele>
        <time>2010-05-29T14:22:51Z</time>
      </trkpt>
      <trkpt lat="48.69195" lon="7.37344">
        <ele>238.558777</ele>
        <time>2010-05-29T14:22:54Z</time>
      </trkpt>
      <trkpt lat="48.69205" lon="7.37335">
        <ele>238.328308</ele>
        <time>2010-05-29T14:22:57Z</time>
      </trkpt>
      <trkpt lat="48.69214" lon="7.37325">
        <ele>237.691589</ele>
        <time>2010-05-29T14:23:00Z</time>
      </trkpt>
      <trkpt lat="48.69224" lon="7.37315">
        <ele>237.461121</ele>
        <time>2010-05-29T14:23:03Z</time>
      </trkpt>
      <trkpt lat="48.69234" lon="7.37305">
        <ele>237.746277</ele>
        <time>2010-05-29T14:23:06Z</time>
      </trkpt>
      <trkpt lat="48.69243" lon="7.37295">
        <ele>237.703308</ele>
        <time>2010-05-29T14:23:09Z</time>
      </trkpt>
      <trkpt lat="48.69252" lon="7.37284">
        <ele>238.199402</ele>
        <time>2010-05-29T14:23:12Z</time>
      </trkpt>
      <trkpt lat="48.6926" lon="7.37275">
        <ele>237.984558</ele>
        <time>2010-05-29T14:23:15Z</time>
      </trkpt>
      <trkpt lat="48.69268" lon="7.37262">
        <ele>237.457214</ele>
        <time>2010-05-29T14:23:18Z</time>
      </trkpt>
      <trkpt lat="48.69273" lon="7.37245">
        <ele>238.636902</ele>
        <time>2010-05-29T14:23:21Z</time>
      </trkpt>
      <trkpt lat="48.6928" lon="7.37235">
        <ele>239.023621</ele>
        <time>2010-05-29T14:23:24Z</time>
      </trkpt>
      <trkpt lat="48.6929" lon="7.37224">
        <ele>238.742371</ele>
        <time>2010-05-29T14:23:27Z</time>
      </trkpt>
      <trkpt lat="48.693" lon="7.3721">
        <ele>239.351746</ele>
        <time>2010-05-29T14:23:30Z</time>
      </trkpt>
      <trkpt lat="48.69311" lon="7.37199">
        <ele>239.211121</ele>
        <time>2010-05-29T14:23:33Z</time>
      </trkpt>
      <trkpt lat="48.69319" lon="7.3719">
        <ele>238.965027</ele>
        <time>2010-05-29T14:23:35Z</time>
      </trkpt>
      <trkpt lat="48.69326" lon="7.37182">
        <ele>238.914246</ele>
        <time>2010-05-29T14:23:37Z</time>
      </trkpt>
      <trkpt lat="48.69334" lon="7.37174">
        <ele>239.304871</ele>
        <time>2010-05-29T14:23:39Z</time>
      </trkpt>
      <trkpt lat="48.69342" lon="7.37165">
        <ele>239.742371</ele>
        <time>2010-05-29T14:23:41Z</time>
      </trkpt>
      <trkpt lat="48.69352" lon="7.37157">
        <ele>240.336121</ele>
        <time>2010-05-29T14:23:43Z</time>
      </trkpt>
      <trkpt lat="48.69359" lon="7.37149">
        <ele>240.836121</ele>
        <time>2010-05-29T14:23:45Z</time>
      </trkpt>
      <trkpt lat="48.69369" lon="7.37138">
        <ele>240.097839</ele>
        <time>2010-05-29T14:23:48Z</time>
      </trkpt>
      <trkpt lat="48.69378" lon="7.37127">
        <ele>240.140808</ele>
        <time>2010-05-29T14:23:51Z</time>
      </trkpt>
      <trkpt lat="48.69384" lon="7.37116">
        <ele>240.144714</ele>
        <time>2010-05-29T14:23:54Z</time>
      </trkpt>
      <trkpt lat="48.69391" lon="7.37105">
        <ele>240.246277</ele>
        <time>2010-05-29T14:23:57Z</time>
      </trkpt>
      <trkpt lat="48.694" lon="7.37099">
        <ele>241.215027</ele>
        <time>2010-05-29T14:23:59Z</time>
      </trkpt>
      <trkpt lat="48.69412" lon="7.37091">
        <ele>240.211121</ele>
        <time>2010-05-29T14:24:02Z</time>
      </trkpt>
      <trkpt lat="48.69422" lon="7.37085">
        <ele>239.492371</ele>
        <time>2010-05-29T14:24:04Z</time>
      </trkpt>
      <trkpt lat="48.69431" lon="7.37081">
        <ele>239.562683</ele>
        <time>2010-05-29T14:24:06Z</time>
      </trkpt>
      <trkpt lat="48.69443" lon="7.37074">
        <ele>239.332214</ele>
        <time>2010-05-29T14:24:09Z</time>
      </trkpt>
      <trkpt lat="48.69453" lon="7.3707">
        <ele>239.152527</ele>
        <time>2010-05-29T14:24:11Z</time>
      </trkpt>
      <trkpt lat="48.69463" lon="7.37067">
        <ele>238.406433</ele>
        <time>2010-05-29T14:24:13Z</time>
      </trkpt>
      <trkpt lat="48.69475" lon="7.3706">
        <ele>237.668152</ele>
        <time>2010-05-29T14:24:16Z</time>
      </trkpt>
      <trkpt lat="48.69484" lon="7.37056">
        <ele>237.433777</ele>
        <time>2010-05-29T14:24:18Z</time>
      </trkpt>
      <trkpt lat="48.69497" lon="7.3705">
        <ele>236.933777</ele>
        <time>2010-05-29T14:24:21Z</time>
      </trkpt>
      <trkpt lat="48.69506" lon="7.37047">
        <ele>237.578308</ele>
        <time>2010-05-29T14:24:23Z</time>
      </trkpt>
      <trkpt lat="48.69515" lon="7.37043">
        <ele>237.886902</ele>
        <time>2010-05-29T14:24:25Z</time>
      </trkpt>
      <trkpt lat="48.69524" lon="7.37038">
        <ele>238.652527</ele>
        <time>2010-05-29T14:24:27Z</time>
      </trkpt>
      <trkpt lat="48.69532" lon="7.37035">
        <ele>238.664246</ele>
        <time>2010-05-29T14:24:29Z</time>
      </trkpt>
      <trkpt lat="48.69545" lon="7.37032">
        <ele>238.519714</ele>
        <time>2010-05-29T14:24:32Z</time>
      </trkpt>
      <trkpt lat="48.69556" lon="7.3703">
        <ele>237.816589</ele>
        <time>2010-05-29T14:24:34Z</time>
      </trkpt>
      <trkpt lat="48.69566" lon="7.37029">
        <ele>238.148621</ele>
        <time>2010-05-29T14:24:36Z</time>
      </trkpt>
      <trkpt lat="48.69574" lon="7.37028">
        <ele>237.726746</ele>
        <time>2010-05-29T14:24:38Z</time>
      </trkpt>
      <trkpt lat="48.69586" lon="7.37025">
        <ele>238.199402</ele>
        <time>2010-05-29T14:24:41Z</time>
      </trkpt>
      <trkpt lat="48.69598" lon="7.37022">
        <ele>239.336121</ele>
        <time>2010-05-29T14:24:44Z</time>
      </trkpt>
      <trkpt lat="48.69608" lon="7.3702">
        <ele>237.847839</ele>
        <time>2010-05-29T14:24:47Z</time>
      </trkpt>
      <trkpt lat="48.6962" lon="7.37018">
        <ele>237.902527</ele>
        <time>2010-05-29T14:24:50Z</time>
      </trkpt>
      <trkpt lat="48.6963" lon="7.37016">
        <ele>238.394714</ele>
        <time>2010-05-29T14:24:54Z</time>
      </trkpt>
      <trkpt lat="48.6964" lon="7.37016">
        <ele>239.097839</ele>
        <time>2010-05-29T14:24:56Z</time>
      </trkpt>
      <trkpt lat="48.69654" lon="7.37016">
        <ele>237.840027</ele>
        <time>2010-05-29T14:24:59Z</time>
      </trkpt>
      <trkpt lat="48.69667" lon="7.37016">
        <ele>237.757996</ele>
        <time>2010-05-29T14:25:02Z</time>
      </trkpt>
      <trkpt lat="48.6968" lon="7.37017">
        <ele>237.109558</ele>
        <time>2010-05-29T14:25:05Z</time>
      </trkpt>
      <trkpt lat="48.69693" lon="7.37018">
        <ele>236.668152</ele>
        <time>2010-05-29T14:25:08Z</time>
      </trkpt>
      <trkpt lat="48.69705" lon="7.37018">
        <ele>235.472839</ele>
        <time>2010-05-29T14:25:11Z</time>
      </trkpt>
      <trkpt lat="48.69717" lon="7.37015">
        <ele>234.640808</ele>
        <time>2010-05-29T14:25:14Z</time>
      </trkpt>
      <trkpt lat="48.69729" lon="7.37015">
        <ele>234.636902</ele>
        <time>2010-05-29T14:25:17Z</time>
      </trkpt>
      <trkpt lat="48.6974" lon="7.37014">
        <ele>234.597839</ele>
        <time>2010-05-29T14:25:20Z</time>
      </trkpt>
      <trkpt lat="48.69753" lon="7.37016">
        <ele>233.843933</ele>
        <time>2010-05-29T14:25:23Z</time>
      </trkpt>
      <trkpt lat="48.69765" lon="7.37018">
        <ele>233.715027</ele>
        <time>2010-05-29T14:25:26Z</time>
      </trkpt>
      <trkpt lat="48.69777" lon="7.37019">
        <ele>233.828308</ele>
        <time>2010-05-29T14:25:29Z</time>
      </trkpt>
      <trkpt lat="48.69787" lon="7.3702">
        <ele>233.082214</ele>
        <time>2010-05-29T14:25:32Z</time>
      </trkpt>
      <trkpt lat="48.69797" lon="7.37022">
        <ele>232.015808</ele>
        <time>2010-05-29T14:25:35Z</time>
      </trkpt>
      <trkpt lat="48.69807" lon="7.37022">
        <ele>231.797058</ele>
        <time>2010-05-29T14:25:39Z</time>
      </trkpt>
      <trkpt lat="48.69817" lon="7.37028">
        <ele>232.039246</ele>
        <time>2010-05-29T14:26:45Z</time>
      </trkpt>
      <trkpt lat="48.69816" lon="7.37047">
        <ele>231.746277</ele>
        <time>2010-05-29T14:26:50Z</time>
      </trkpt>
      <trkpt lat="48.69814" lon="7.37061">
        <ele>230.656433</ele>
        <time>2010-05-29T14:26:52Z</time>
      </trkpt>
      <trkpt lat="48.69814" lon="7.37076">
        <ele>229.992371</ele>
        <time>2010-05-29T14:26:54Z</time>
      </trkpt>
      <trkpt lat="48.69814" lon="7.37091">
        <ele>228.922058</ele>
        <time>2010-05-29T14:26:56Z</time>
      </trkpt>
      <trkpt lat="48.69817" lon="7.37107">
        <ele>227.734558</ele>
        <time>2010-05-29T14:26:58Z</time>
      </trkpt>
      <trkpt lat="48.6982" lon="7.37125">
        <ele>226.781433</ele>
        <time>2010-05-29T14:27:01Z</time>
      </trkpt>
      <trkpt lat="48.69822" lon="7.37138">
        <ele>225.965027</ele>
        <time>2010-05-29T14:27:04Z</time>
      </trkpt>
      <trkpt lat="48.69824" lon="7.37152">
        <ele>225.351746</ele>
        <time>2010-05-29T14:27:10Z</time>
      </trkpt>
      <trkpt lat="48.69832" lon="7.37163">
        <ele>224.578308</ele>
        <time>2010-05-29T14:27:22Z</time>
      </trkpt>
      <trkpt lat="48.69841" lon="7.37161">
        <ele>225.175964</ele>
        <time>2010-05-29T14:27:25Z</time>
      </trkpt>
      <trkpt lat="48.6985" lon="7.37157">
        <ele>225.652527</ele>
        <time>2010-05-29T14:27:28Z</time>
      </trkpt>
      <trkpt lat="48.69861" lon="7.37152">
        <ele>226.418152</ele>
        <time>2010-05-29T14:27:32Z</time>
      </trkpt>
      <trkpt lat="48.69872" lon="7.37148">
        <ele>227.320496</ele>
        <time>2010-05-29T14:27:36Z</time>
      </trkpt>
      <trkpt lat="48.69882" lon="7.37144">
        <ele>227.953308</ele>
        <time>2010-05-29T14:27:39Z</time>
      </trkpt>
      <trkpt lat="48.69893" lon="7.3714">
        <ele>229.254089</ele>
        <time>2010-05-29T14:27:43Z</time>
      </trkpt>
      <trkpt lat="48.69902" lon="7.37137">
        <ele>229.328308</ele>
        <time>2010-05-29T14:27:46Z</time>
      </trkpt>
      <trkpt lat="48.6991" lon="7.37133">
        <ele>229.402527</ele>
        <time>2010-05-29T14:27:49Z</time>
      </trkpt>
      <trkpt lat="48.6992" lon="7.37129">
        <ele>230.382996</ele>
        <time>2010-05-29T14:27:52Z</time>
      </trkpt>
      <trkpt lat="48.6993" lon="7.37125">
        <ele>230.898621</ele>
        <time>2010-05-29T14:27:55Z</time>
      </trkpt>
      <trkpt lat="48.69939" lon="7.37121">
        <ele>231.465027</ele>
        <time>2010-05-29T14:27:58Z</time>
      </trkpt>
      <trkpt lat="48.69949" lon="7.37119">
        <ele>231.902527</ele>
        <time>2010-05-29T14:28:01Z</time>
      </trkpt>
      <trkpt lat="48.69959" lon="7.37115">
        <ele>232.054871</ele>
        <time>2010-05-29T14:28:04Z</time>
      </trkpt>
      <trkpt lat="48.69967" lon="7.3711">
        <ele>232.422058</ele>
        <time>2010-05-29T14:28:07Z</time>
      </trkpt>
      <trkpt lat="48.69976" lon="7.37105">
        <ele>232.910339</ele>
        <time>2010-05-29T14:28:10Z</time>
      </trkpt>
      <trkpt lat="48.69986" lon="7.37101">
        <ele>233.531433</ele>
        <time>2010-05-29T14:28:13Z</time>
      </trkpt>
      <trkpt lat="48.69996" lon="7.37097">
        <ele>233.925964</ele>
        <time>2010-05-29T14:28:16Z</time>
      </trkpt>
      <trkpt lat="48.70008" lon="7.37091">
        <ele>233.343933</ele>
        <time>2010-05-29T14:28:19Z</time>
      </trkpt>
      <trkpt lat="48.70016" lon="7.37086">
        <ele>232.816589</ele>
        <time>2010-05-29T14:28:21Z</time>
      </trkpt>
      <trkpt lat="48.70025" lon="7.37082">
        <ele>232.562683</ele>
        <time>2010-05-29T14:28:23Z</time>
      </trkpt>
      <trkpt lat="48.70034" lon="7.37076">
        <ele>232.027527</ele>
        <time>2010-05-29T14:28:25Z</time>
      </trkpt>
      <trkpt lat="48.70044" lon="7.3707">
        <ele>231.703308</ele>
        <time>2010-05-29T14:28:27Z</time>
      </trkpt>
      <trkpt lat="48.70053" lon="7.37065">
        <ele>231.511902</ele>
        <time>2010-05-29T14:28:29Z</time>
      </trkpt>
      <trkpt lat="48.70063" lon="7.37059">
        <ele>231.136902</ele>
        <time>2010-05-29T14:28:31Z</time>
      </trkpt>
      <trkpt lat="48.70072" lon="7.37054">
        <ele>231.027527</ele>
        <time>2010-05-29T14:28:33Z</time>
      </trkpt>
      <trkpt lat="48.70082" lon="7.37051">
        <ele>231.359558</ele>
        <time>2010-05-29T14:28:35Z</time>
      </trkpt>
      <trkpt lat="48.70091" lon="7.37049">
        <ele>231.164246</ele>
        <time>2010-05-29T14:28:37Z</time>
      </trkpt>
      <trkpt lat="48.70101" lon="7.37049">
        <ele>231.539246</ele>
        <time>2010-05-29T14:28:39Z</time>
      </trkpt>
      <trkpt lat="48.70114" lon="7.37049">
        <ele>231.261902</ele>
        <time>2010-05-29T14:28:42Z</time>
      </trkpt>
      <trkpt lat="48.70126" lon="7.37044">
        <ele>231.351746</ele>
        <time>2010-05-29T14:28:45Z</time>
      </trkpt>
      <trkpt lat="48.70136" lon="7.3703">
        <ele>231.578308</ele>
        <time>2010-05-29T14:28:48Z</time>
      </trkpt>
      <trkpt lat="48.70144" lon="7.37015">
        <ele>231.394714</ele>
        <time>2010-05-29T14:28:51Z</time>
      </trkpt>
      <trkpt lat="48.70154" lon="7.37004">
        <ele>231.390808</ele>
        <time>2010-05-29T14:28:54Z</time>
      </trkpt>
      <trkpt lat="48.70165" lon="7.36997">
        <ele>231.605652</ele>
        <time>2010-05-29T14:28:57Z</time>
      </trkpt>
      <trkpt lat="48.70175" lon="7.36991">
        <ele>231.476746</ele>
        <time>2010-05-29T14:29:00Z</time>
      </trkpt>
      <trkpt lat="48.70186" lon="7.36984">
        <ele>231.832214</ele>
        <time>2010-05-29T14:29:03Z</time>
      </trkpt>
      <trkpt lat="48.70195" lon="7.36979">
        <ele>232.539246</ele>
        <time>2010-05-29T14:29:06Z</time>
      </trkpt>
      <trkpt lat="48.70205" lon="7.36972">
        <ele>233.718933</ele>
        <time>2010-05-29T14:29:10Z</time>
      </trkpt>
      <trkpt lat="48.70215" lon="7.36967">
        <ele>234.519714</ele>
        <time>2010-05-29T14:29:14Z</time>
      </trkpt>
      <trkpt lat="48.70224" lon="7.3696">
        <ele>235.047058</ele>
        <time>2010-05-29T14:29:18Z</time>
      </trkpt>
      <trkpt lat="48.70235" lon="7.36952">
        <ele>235.121277</ele>
        <time>2010-05-29T14:29:22Z</time>
      </trkpt>
      <trkpt lat="48.70244" lon="7.36947">
        <ele>235.250183</ele>
        <time>2010-05-29T14:29:25Z</time>
      </trkpt>
      <trkpt lat="48.70254" lon="7.36939">
        <ele>235.254089</ele>
        <time>2010-05-29T14:29:29Z</time>
      </trkpt>
      <trkpt lat="48.70264" lon="7.36932">
        <ele>235.191589</ele>
        <time>2010-05-29T14:29:33Z</time>
      </trkpt>
      <trkpt lat="48.70272" lon="7.36926">
        <ele>235.047058</ele>
        <time>2010-05-29T14:29:36Z</time>
      </trkpt>
      <trkpt lat="48.70284" lon="7.36918">
        <ele>234.699402</ele>
        <time>2010-05-29T14:29:39Z</time>
      </trkpt>
      <trkpt lat="48.70292" lon="7.36911">
        <ele>234.230652</ele>
        <time>2010-05-29T14:29:41Z</time>
      </trkpt>
      <trkpt lat="48.70301" lon="7.36905">
        <ele>233.871277</ele>
        <time>2010-05-29T14:29:43Z</time>
      </trkpt>
      <trkpt lat="48.7031" lon="7.36899">
        <ele>233.836121</ele>
        <time>2010-05-29T14:29:45Z</time>
      </trkpt>
      <trkpt lat="48.7032" lon="7.36893">
        <ele>233.824402</ele>
        <time>2010-05-29T14:29:47Z</time>
      </trkpt>
      <trkpt lat="48.70329" lon="7.36887">
        <ele>233.750183</ele>
        <time>2010-05-29T14:29:49Z</time>
      </trkpt>
      <trkpt lat="48.70338" lon="7.36881">
        <ele>233.793152</ele>
        <time>2010-05-29T14:29:51Z</time>
      </trkpt>
      <trkpt lat="48.70347" lon="7.36874">
        <ele>233.777527</ele>
        <time>2010-05-29T14:29:53Z</time>
      </trkpt>
      <trkpt lat="48.70356" lon="7.36868">
        <ele>233.660339</ele>
        <time>2010-05-29T14:29:55Z</time>
      </trkpt>
      <trkpt lat="48.70366" lon="7.36862">
        <ele>233.691589</ele>
        <time>2010-05-29T14:29:57Z</time>
      </trkpt>
      <trkpt lat="48.70374" lon="7.36856">
        <ele>233.855652</ele>
        <time>2010-05-29T14:29:59Z</time>
      </trkpt>
      <trkpt lat="48.70386" lon="7.36848">
        <ele>234.461121</ele>
        <time>2010-05-29T14:30:02Z</time>
      </trkpt>
      <trkpt lat="48.70397" lon="7.36841">
        <ele>234.882996</ele>
        <time>2010-05-29T14:30:05Z</time>
      </trkpt>
      <trkpt lat="48.70408" lon="7.36833">
        <ele>235.433777</ele>
        <time>2010-05-29T14:30:08Z</time>
      </trkpt>
      <trkpt lat="48.70419" lon="7.36826">
        <ele>236.031433</ele>
        <time>2010-05-29T14:30:11Z</time>
      </trkpt>
      <trkpt lat="48.70428" lon="7.3682">
        <ele>236.535339</ele>
        <time>2010-05-29T14:30:14Z</time>
      </trkpt>
      <trkpt lat="48.70437" lon="7.36814">
        <ele>237.453308</ele>
        <time>2010-05-29T14:30:17Z</time>
      </trkpt>
      <trkpt lat="48.70445" lon="7.36808">
        <ele>238.812683</ele>
        <time>2010-05-29T14:30:20Z</time>
      </trkpt>
      <trkpt lat="48.70455" lon="7.36801">
        <ele>239.922058</ele>
        <time>2010-05-29T14:30:24Z</time>
      </trkpt>
      <trkpt lat="48.70465" lon="7.36794">
        <ele>240.769714</ele>
        <time>2010-05-29T14:30:28Z</time>
      </trkpt>
      <trkpt lat="48.70474" lon="7.36788">
        <ele>242.543152</ele>
        <time>2010-05-29T14:30:34Z</time>
      </trkpt>
      <trkpt lat="48.70483" lon="7.36782">
        <ele>244.078308</ele>
        <time>2010-05-29T14:30:54Z</time>
      </trkpt>
      <trkpt lat="48.70491" lon="7.36775">
        <ele>243.246277</ele>
        <time>2010-05-29T14:30:58Z</time>
      </trkpt>
      <trkpt lat="48.705" lon="7.36768">
        <ele>242.953308</ele>
        <time>2010-05-29T14:31:01Z</time>
      </trkpt>
      <trkpt lat="48.70509" lon="7.36761">
        <ele>243.011902</ele>
        <time>2010-05-29T14:31:04Z</time>
      </trkpt>
      <trkpt lat="48.70519" lon="7.36754">
        <ele>243.058777</ele>
        <time>2010-05-29T14:31:07Z</time>
      </trkpt>
      <trkpt lat="48.70528" lon="7.36746">
        <ele>242.625183</ele>
        <time>2010-05-29T14:31:10Z</time>
      </trkpt>
      <trkpt lat="48.70538" lon="7.36737">
        <ele>241.988464</ele>
        <time>2010-05-29T14:31:13Z</time>
      </trkpt>
      <trkpt lat="48.70549" lon="7.36728">
        <ele>241.277527</ele>
        <time>2010-05-29T14:31:16Z</time>
      </trkpt>
      <trkpt lat="48.7056" lon="7.36718">
        <ele>240.800964</ele>
        <time>2010-05-29T14:31:19Z</time>
      </trkpt>
      <trkpt lat="48.70571" lon="7.36708">
        <ele>240.535339</ele>
        <time>2010-05-29T14:31:22Z</time>
      </trkpt>
      <trkpt lat="48.70583" lon="7.36699">
        <ele>240.062683</ele>
        <time>2010-05-29T14:31:25Z</time>
      </trkpt>
      <trkpt lat="48.70594" lon="7.3669">
        <ele>239.957214</ele>
        <time>2010-05-29T14:31:28Z</time>
      </trkpt>
      <trkpt lat="48.70602" lon="7.36683">
        <ele>239.543152</ele>
        <time>2010-05-29T14:31:30Z</time>
      </trkpt>
      <trkpt lat="48.7061" lon="7.36677">
        <ele>239.386902</ele>
        <time>2010-05-29T14:31:32Z</time>
      </trkpt>
      <trkpt lat="48.70618" lon="7.3667">
        <ele>239.109558</ele>
        <time>2010-05-29T14:31:34Z</time>
      </trkpt>
      <trkpt lat="48.70626" lon="7.36662">
        <ele>238.668152</ele>
        <time>2010-05-29T14:31:36Z</time>
      </trkpt>
      <trkpt lat="48.70635" lon="7.36656">
        <ele>238.519714</ele>
        <time>2010-05-29T14:31:38Z</time>
      </trkpt>
      <trkpt lat="48.70645" lon="7.36648">
        <ele>237.945496</ele>
        <time>2010-05-29T14:31:41Z</time>
      </trkpt>
      <trkpt lat="48.70653" lon="7.36641">
        <ele>237.125183</ele>
        <time>2010-05-29T14:31:58Z</time>
      </trkpt>
      <trkpt lat="48.70663" lon="7.36631">
        <ele>235.515808</ele>
        <time>2010-05-29T14:32:03Z</time>
      </trkpt>
      <trkpt lat="48.70674" lon="7.36622">
        <ele>234.800964</ele>
        <time>2010-05-29T14:32:06Z</time>
      </trkpt>
      <trkpt lat="48.70683" lon="7.36615">
        <ele>234.324402</ele>
        <time>2010-05-29T14:32:08Z</time>
      </trkpt>
      <trkpt lat="48.70692" lon="7.36608">
        <ele>233.558777</ele>
        <time>2010-05-29T14:32:10Z</time>
      </trkpt>
      <trkpt lat="48.70702" lon="7.36599">
        <ele>233.101746</ele>
        <time>2010-05-29T14:32:12Z</time>
      </trkpt>
      <trkpt lat="48.70711" lon="7.36591">
        <ele>232.679871</ele>
        <time>2010-05-29T14:32:14Z</time>
      </trkpt>
      <trkpt lat="48.70721" lon="7.36582">
        <ele>232.027527</ele>
        <time>2010-05-29T14:32:16Z</time>
      </trkpt>
      <trkpt lat="48.70731" lon="7.36574">
        <ele>231.507996</ele>
        <time>2010-05-29T14:32:18Z</time>
      </trkpt>
      <trkpt lat="48.70742" lon="7.36565">
        <ele>230.914246</ele>
        <time>2010-05-29T14:32:20Z</time>
      </trkpt>
      <trkpt lat="48.70754" lon="7.36555">
        <ele>230.215027</ele>
        <time>2010-05-29T14:32:22Z</time>
      </trkpt>
      <trkpt lat="48.70765" lon="7.36545">
        <ele>229.742371</ele>
        <time>2010-05-29T14:32:24Z</time>
      </trkpt>
      <trkpt lat="48.70777" lon="7.36535">
        <ele>229.250183</ele>
        <time>2010-05-29T14:32:26Z</time>
      </trkpt>
      <trkpt lat="48.70789" lon="7.36525">
        <ele>228.351746</ele>
        <time>2010-05-29T14:32:28Z</time>
      </trkpt>
      <trkpt lat="48.708" lon="7.36516">
        <ele>227.879089</ele>
        <time>2010-05-29T14:32:30Z</time>
      </trkpt>
      <trkpt lat="48.70812" lon="7.36506">
        <ele>227.343933</ele>
        <time>2010-05-29T14:32:32Z</time>
      </trkpt>
      <trkpt lat="48.70823" lon="7.36496">
        <ele>226.582214</ele>
        <time>2010-05-29T14:32:34Z</time>
      </trkpt>
      <trkpt lat="48.70834" lon="7.36487">
        <ele>226.129089</ele>
        <time>2010-05-29T14:32:36Z</time>
      </trkpt>
      <trkpt lat="48.70845" lon="7.36478">
        <ele>225.808777</ele>
        <time>2010-05-29T14:32:38Z</time>
      </trkpt>
      <trkpt lat="48.70854" lon="7.36469">
        <ele>225.304871</ele>
        <time>2010-05-29T14:32:40Z</time>
      </trkpt>
      <trkpt lat="48.70862" lon="7.36461">
        <ele>225.175964</ele>
        <time>2010-05-29T14:32:42Z</time>
      </trkpt>
      <trkpt lat="48.70871" lon="7.36454">
        <ele>224.996277</ele>
        <time>2010-05-29T14:32:44Z</time>
      </trkpt>
      <trkpt lat="48.70879" lon="7.36447">
        <ele>224.750183</ele>
        <time>2010-05-29T14:32:46Z</time>
      </trkpt>
      <trkpt lat="48.70888" lon="7.3644">
        <ele>224.738464</ele>
        <time>2010-05-29T14:32:48Z</time>
      </trkpt>
      <trkpt lat="48.70897" lon="7.36432">
        <ele>224.527527</ele>
        <time>2010-05-29T14:32:50Z</time>
      </trkpt>
      <trkpt lat="48.70905" lon="7.36425">
        <ele>224.402527</ele>
        <time>2010-05-29T14:32:52Z</time>
      </trkpt>
      <trkpt lat="48.70913" lon="7.36419">
        <ele>224.465027</ele>
        <time>2010-05-29T14:32:54Z</time>
      </trkpt>
      <trkpt lat="48.70922" lon="7.36413">
        <ele>224.382996</ele>
        <time>2010-05-29T14:32:56Z</time>
      </trkpt>
      <trkpt lat="48.70932" lon="7.36409">
        <ele>224.105652</ele>
        <time>2010-05-29T14:32:58Z</time>
      </trkpt>
      <trkpt lat="48.70942" lon="7.36406">
        <ele>224.187683</ele>
        <time>2010-05-29T14:33:00Z</time>
      </trkpt>
      <trkpt lat="48.70951" lon="7.36404">
        <ele>224.254089</ele>
        <time>2010-05-29T14:33:02Z</time>
      </trkpt>
      <trkpt lat="48.7096" lon="7.36403">
        <ele>224.300964</ele>
        <time>2010-05-29T14:33:04Z</time>
      </trkpt>
      <trkpt lat="48.70972" lon="7.36405">
        <ele>224.129089</ele>
        <time>2010-05-29T14:33:07Z</time>
      </trkpt>
      <trkpt lat="48.70984" lon="7.36407">
        <ele>224.023621</ele>
        <time>2010-05-29T14:33:10Z</time>
      </trkpt>
      <trkpt lat="48.70996" lon="7.3641">
        <ele>224.027527</ele>
        <time>2010-05-29T14:33:13Z</time>
      </trkpt>
      <trkpt lat="48.71007" lon="7.36407">
        <ele>224.507996</ele>
        <time>2010-05-29T14:33:16Z</time>
      </trkpt>
      <trkpt lat="48.71019" lon="7.36403">
        <ele>224.586121</ele>
        <time>2010-05-29T14:33:19Z</time>
      </trkpt>
      <trkpt lat="48.71032" lon="7.36403">
        <ele>224.488464</ele>
        <time>2010-05-29T14:33:22Z</time>
      </trkpt>
      <trkpt lat="48.71041" lon="7.36403">
        <ele>223.996277</ele>
        <time>2010-05-29T14:33:24Z</time>
      </trkpt>
      <trkpt lat="48.71051" lon="7.36403">
        <ele>224.156433</ele>
        <time>2010-05-29T14:33:26Z</time>
      </trkpt>
      <trkpt lat="48.7106" lon="7.36404">
        <ele>224.007996</ele>
        <time>2010-05-29T14:33:28Z</time>
      </trkpt>
      <trkpt lat="48.71069" lon="7.36404">
        <ele>223.851746</ele>
        <time>2010-05-29T14:33:30Z</time>
      </trkpt>
      <trkpt lat="48.71079" lon="7.36404">
        <ele>223.656433</ele>
        <time>2010-05-29T14:33:32Z</time>
      </trkpt>
      <trkpt lat="48.71088" lon="7.36405">
        <ele>223.726746</ele>
        <time>2010-05-29T14:33:34Z</time>
      </trkpt>
      <trkpt lat="48.71098" lon="7.36405">
        <ele>223.566589</ele>
        <time>2010-05-29T14:33:36Z</time>
      </trkpt>
      <trkpt lat="48.71111" lon="7.36406">
        <ele>222.902527</ele>
        <time>2010-05-29T14:33:39Z</time>
      </trkpt>
      <trkpt lat="48.7112" lon="7.36406">
        <ele>222.593933</ele>
        <time>2010-05-29T14:33:41Z</time>
      </trkpt>
      <trkpt lat="48.71129" lon="7.36407">
        <ele>222.367371</ele>
        <time>2010-05-29T14:33:43Z</time>
      </trkpt>
      <trkpt lat="48.71138" lon="7.36407">
        <ele>222.379089</ele>
        <time>2010-05-29T14:33:45Z</time>
      </trkpt>
      <trkpt lat="48.71148" lon="7.36407">
        <ele>222.269714</ele>
        <time>2010-05-29T14:33:47Z</time>
      </trkpt>
      <trkpt lat="48.71159" lon="7.36407">
        <ele>222.058777</ele>
        <time>2010-05-29T14:33:49Z</time>
      </trkpt>
      <trkpt lat="48.71169" lon="7.36406">
        <ele>222.144714</ele>
        <time>2010-05-29T14:33:51Z</time>
      </trkpt>
      <trkpt lat="48.71179" lon="7.36407">
        <ele>221.996277</ele>
        <time>2010-05-29T14:33:53Z</time>
      </trkpt>
      <trkpt lat="48.7119" lon="7.36407">
        <ele>221.515808</ele>
        <time>2010-05-29T14:33:55Z</time>
      </trkpt>
      <trkpt lat="48.712" lon="7.36406">
        <ele>221.148621</ele>
        <time>2010-05-29T14:33:57Z</time>
      </trkpt>
      <trkpt lat="48.71211" lon="7.36406">
        <ele>221.011902</ele>
        <time>2010-05-29T14:33:59Z</time>
      </trkpt>
      <trkpt lat="48.71222" lon="7.36407">
        <ele>220.840027</ele>
        <time>2010-05-29T14:34:01Z</time>
      </trkpt>
      <trkpt lat="48.71232" lon="7.36407">
        <ele>220.797058</ele>
        <time>2010-05-29T14:34:03Z</time>
      </trkpt>
      <trkpt lat="48.71243" lon="7.36407">
        <ele>220.332214</ele>
        <time>2010-05-29T14:34:05Z</time>
      </trkpt>
      <trkpt lat="48.71254" lon="7.36407">
        <ele>220.222839</ele>
        <time>2010-05-29T14:34:07Z</time>
      </trkpt>
      <trkpt lat="48.71265" lon="7.36407">
        <ele>219.941589</ele>
        <time>2010-05-29T14:34:09Z</time>
      </trkpt>
      <trkpt lat="48.71277" lon="7.36408">
        <ele>219.672058</ele>
        <time>2010-05-29T14:34:11Z</time>
      </trkpt>
      <trkpt lat="48.71289" lon="7.36407">
        <ele>218.941589</ele>
        <time>2010-05-29T14:34:13Z</time>
      </trkpt>
      <trkpt lat="48.71301" lon="7.36409">
        <ele>218.351746</ele>
        <time>2010-05-29T14:34:15Z</time>
      </trkpt>
      <trkpt lat="48.71311" lon="7.36409">
        <ele>217.882996</ele>
        <time>2010-05-29T14:34:17Z</time>
      </trkpt>
      <trkpt lat="48.71322" lon="7.36409">
        <ele>217.371277</ele>
        <time>2010-05-29T14:34:19Z</time>
      </trkpt>
      <trkpt lat="48.71334" lon="7.36409">
        <ele>215.886902</ele>
        <time>2010-05-29T14:34:22Z</time>
      </trkpt>
      <trkpt lat="48.71343" lon="7.36408">
        <ele>215.539246</ele>
        <time>2010-05-29T14:34:24Z</time>
      </trkpt>
      <trkpt lat="48.71354" lon="7.36406">
        <ele>215.246277</ele>
        <time>2010-05-29T14:34:26Z</time>
      </trkpt>
      <trkpt lat="48.71366" lon="7.36404">
        <ele>214.797058</ele>
        <time>2010-05-29T14:34:28Z</time>
      </trkpt>
      <trkpt lat="48.71377" lon="7.36402">
        <ele>214.457214</ele>
        <time>2010-05-29T14:34:30Z</time>
      </trkpt>
      <trkpt lat="48.71389" lon="7.36399">
        <ele>214.043152</ele>
        <time>2010-05-29T14:34:32Z</time>
      </trkpt>
      <trkpt lat="48.71401" lon="7.36395">
        <ele>213.476746</ele>
        <time>2010-05-29T14:34:34Z</time>
      </trkpt>
      <trkpt lat="48.71414" lon="7.36392">
        <ele>212.914246</ele>
        <time>2010-05-29T14:34:36Z</time>
      </trkpt>
      <trkpt lat="48.71428" lon="7.36387">
        <ele>211.972839</ele>
        <time>2010-05-29T14:34:38Z</time>
      </trkpt>
      <trkpt lat="48.71442" lon="7.36382">
        <ele>211.062683</ele>
        <time>2010-05-29T14:34:40Z</time>
      </trkpt>
      <trkpt lat="48.71457" lon="7.36375">
        <ele>210.140808</ele>
        <time>2010-05-29T14:34:42Z</time>
      </trkpt>
      <trkpt lat="48.71473" lon="7.36368">
        <ele>209.199402</ele>
        <time>2010-05-29T14:34:44Z</time>
      </trkpt>
      <trkpt lat="48.71488" lon="7.3636">
        <ele>208.211121</ele>
        <time>2010-05-29T14:34:46Z</time>
      </trkpt>
      <trkpt lat="48.71502" lon="7.36353">
        <ele>206.929871</ele>
        <time>2010-05-29T14:34:48Z</time>
      </trkpt>
      <trkpt lat="48.71517" lon="7.36347">
        <ele>205.644714</ele>
        <time>2010-05-29T14:34:50Z</time>
      </trkpt>
      <trkpt lat="48.71532" lon="7.36339">
        <ele>204.593933</ele>
        <time>2010-05-29T14:34:52Z</time>
      </trkpt>
      <trkpt lat="48.71547" lon="7.36331">
        <ele>203.257996</ele>
        <time>2010-05-29T14:34:54Z</time>
      </trkpt>
      <trkpt lat="48.71564" lon="7.36324">
        <ele>201.929871</ele>
        <time>2010-05-29T14:34:56Z</time>
      </trkpt>
      <trkpt lat="48.71581" lon="7.36317">
        <ele>200.632996</ele>
        <time>2010-05-29T14:34:58Z</time>
      </trkpt>
      <trkpt lat="48.7159" lon="7.36314">
        <ele>199.765808</ele>
        <time>2010-05-29T14:34:59Z</time>
      </trkpt>
      <trkpt lat="48.71607" lon="7.36308">
        <ele>198.394714</ele>
        <time>2010-05-29T14:35:01Z</time>
      </trkpt>
      <trkpt lat="48.71625" lon="7.36301">
        <ele>197.297058</ele>
        <time>2010-05-29T14:35:03Z</time>
      </trkpt>
      <trkpt lat="48.71634" lon="7.36297">
        <ele>196.750183</ele>
        <time>2010-05-29T14:35:04Z</time>
      </trkpt>
      <trkpt lat="48.71642" lon="7.36294">
        <ele>196.312683</ele>
        <time>2010-05-29T14:35:05Z</time>
      </trkpt>
      <trkpt lat="48.71652" lon="7.3629">
        <ele>195.902527</ele>
        <time>2010-05-29T14:35:06Z</time>
      </trkpt>
      <trkpt lat="48.71669" lon="7.36283">
        <ele>195.543152</ele>
        <time>2010-05-29T14:35:08Z</time>
      </trkpt>
      <trkpt lat="48.71685" lon="7.36275">
        <ele>195.617371</ele>
        <time>2010-05-29T14:35:10Z</time>
      </trkpt>
      <trkpt lat="48.717" lon="7.36267">
        <ele>195.000183</ele>
        <time>2010-05-29T14:35:12Z</time>
      </trkpt>
      <trkpt lat="48.71715" lon="7.36259">
        <ele>194.172058</ele>
        <time>2010-05-29T14:35:14Z</time>
      </trkpt>
      <trkpt lat="48.7173" lon="7.3625">
        <ele>193.965027</ele>
        <time>2010-05-29T14:35:16Z</time>
      </trkpt>
      <trkpt lat="48.71744" lon="7.36243">
        <ele>193.840027</ele>
        <time>2010-05-29T14:35:18Z</time>
      </trkpt>
      <trkpt lat="48.71757" lon="7.36237">
        <ele>194.078308</ele>
        <time>2010-05-29T14:35:20Z</time>
      </trkpt>
      <trkpt lat="48.71769" lon="7.36231">
        <ele>194.246277</ele>
        <time>2010-05-29T14:35:22Z</time>
      </trkpt>
      <trkpt lat="48.71781" lon="7.36225">
        <ele>194.160339</ele>
        <time>2010-05-29T14:35:24Z</time>
      </trkpt>
      <trkpt lat="48.71791" lon="7.3622">
        <ele>193.722839</ele>
        <time>2010-05-29T14:35:26Z</time>
      </trkpt>
      <trkpt lat="48.718" lon="7.36213">
        <ele>193.449402</ele>
        <time>2010-05-29T14:35:28Z</time>
      </trkpt>
      <trkpt lat="48.71805" lon="7.36197">
        <ele>193.777527</ele>
        <time>2010-05-29T14:35:31Z</time>
      </trkpt>
      <trkpt lat="48.71801" lon="7.36181">
        <ele>194.644714</ele>
        <time>2010-05-29T14:35:34Z</time>
      </trkpt>
      <trkpt lat="48.71798" lon="7.36168">
        <ele>194.840027</ele>
        <time>2010-05-29T14:35:40Z</time>
      </trkpt>
      <trkpt lat="48.71796" lon="7.36155">
        <ele>196.523621</ele>
        <time>2010-05-29T14:35:50Z</time>
      </trkpt>
      <trkpt lat="48.71796" lon="7.36139">
        <ele>196.965027</ele>
        <time>2010-05-29T14:36:31Z</time>
      </trkpt>
      <trkpt lat="48.71794" lon="7.36125">
        <ele>197.500183</ele>
        <time>2010-05-29T14:36:35Z</time>
      </trkpt>
      <trkpt lat="48.71793" lon="7.36112">
        <ele>197.879089</ele>
        <time>2010-05-29T14:36:39Z</time>
      </trkpt>
      <trkpt lat="48.71792" lon="7.36097">
        <ele>199.484558</ele>
        <time>2010-05-29T14:36:44Z</time>
      </trkpt>
      <trkpt lat="48.71791" lon="7.36083">
        <ele>200.359558</ele>
        <time>2010-05-29T14:36:49Z</time>
      </trkpt>
      <trkpt lat="48.71789" lon="7.36067">
        <ele>201.039246</ele>
        <time>2010-05-29T14:36:54Z</time>
      </trkpt>
      <trkpt lat="48.71795" lon="7.36056">
        <ele>200.504089</ele>
        <time>2010-05-29T14:37:02Z</time>
      </trkpt>
      <trkpt lat="48.71804" lon="7.36054">
        <ele>200.238464</ele>
        <time>2010-05-29T14:37:09Z</time>
      </trkpt>
      <trkpt lat="48.71813" lon="7.36051">
        <ele>199.961121</ele>
        <time>2010-05-29T14:37:15Z</time>
      </trkpt>
      <trkpt lat="48.71822" lon="7.36045">
        <ele>199.703308</ele>
        <time>2010-05-29T14:37:20Z</time>
      </trkpt>
      <trkpt lat="48.71832" lon="7.3604">
        <ele>199.773621</ele>
        <time>2010-05-29T14:37:24Z</time>
      </trkpt>
      <trkpt lat="48.71841" lon="7.36034">
        <ele>199.836121</ele>
        <time>2010-05-29T14:37:29Z</time>
      </trkpt>
      <trkpt lat="48.71851" lon="7.36028">
        <ele>200.273621</ele>
        <time>2010-05-29T14:37:33Z</time>
      </trkpt>
      <trkpt lat="48.71862" lon="7.3602">
        <ele>200.652527</ele>
        <time>2010-05-29T14:37:37Z</time>
      </trkpt>
      <trkpt lat="48.71871" lon="7.36014">
        <ele>200.488464</ele>
        <time>2010-05-29T14:37:40Z</time>
      </trkpt>
      <trkpt lat="48.7188" lon="7.36008">
        <ele>199.742371</ele>
        <time>2010-05-29T14:37:43Z</time>
      </trkpt>
      <trkpt lat="48.7189" lon="7.36">
        <ele>199.187683</ele>
        <time>2010-05-29T14:37:46Z</time>
      </trkpt>
      <trkpt lat="48.71901" lon="7.35992">
        <ele>198.652527</ele>
        <time>2010-05-29T14:37:49Z</time>
      </trkpt>
      <trkpt lat="48.71911" lon="7.35983">
        <ele>198.297058</ele>
        <time>2010-05-29T14:37:52Z</time>
      </trkpt>
      <trkpt lat="48.71919" lon="7.35977">
        <ele>198.906433</ele>
        <time>2010-05-29T14:37:56Z</time>
      </trkpt>
      <trkpt lat="48.7193" lon="7.35971">
        <ele>200.148621</ele>
        <time>2010-05-29T14:38:02Z</time>
      </trkpt>
      <trkpt lat="48.71939" lon="7.35966">
        <ele>200.660339</ele>
        <time>2010-05-29T14:38:06Z</time>
      </trkpt>
      <trkpt lat="48.71949" lon="7.3596">
        <ele>201.156433</ele>
        <time>2010-05-29T14:38:10Z</time>
      </trkpt>
      <trkpt lat="48.71957" lon="7.35951">
        <ele>202.039246</ele>
        <time>2010-05-29T14:38:15Z</time>
      </trkpt>
      <trkpt lat="48.71965" lon="7.35947">
        <ele>202.570496</ele>
        <time>2010-05-29T14:38:20Z</time>
      </trkpt>
      <trkpt lat="48.71974" lon="7.35939">
        <ele>202.914246</ele>
        <time>2010-05-29T14:38:26Z</time>
      </trkpt>
      <trkpt lat="48.71983" lon="7.35932">
        <ele>203.777527</ele>
        <time>2010-05-29T14:38:34Z</time>
      </trkpt>
      <trkpt lat="48.71993" lon="7.35928">
        <ele>205.218933</ele>
        <time>2010-05-29T14:38:42Z</time>
      </trkpt>
      <trkpt lat="48.72002" lon="7.35922">
        <ele>206.582214</ele>
        <time>2010-05-29T14:38:50Z</time>
      </trkpt>
      <trkpt lat="48.72011" lon="7.35922">
        <ele>206.847839</ele>
        <time>2010-05-29T14:39:30Z</time>
      </trkpt>
      <trkpt lat="48.72021" lon="7.35917">
        <ele>207.195496</ele>
        <time>2010-05-29T14:39:37Z</time>
      </trkpt>
      <trkpt lat="48.7203" lon="7.35911">
        <ele>207.773621</ele>
        <time>2010-05-29T14:39:42Z</time>
      </trkpt>
      <trkpt lat="48.72039" lon="7.35904">
        <ele>208.562683</ele>
        <time>2010-05-29T14:39:48Z</time>
      </trkpt>
      <trkpt lat="48.72048" lon="7.35899">
        <ele>208.738464</ele>
        <time>2010-05-29T14:39:54Z</time>
      </trkpt>
      <trkpt lat="48.72057" lon="7.35895">
        <ele>209.613464</ele>
        <time>2010-05-29T14:40:00Z</time>
      </trkpt>
      <trkpt lat="48.72066" lon="7.3589">
        <ele>210.629089</ele>
        <time>2010-05-29T14:40:06Z</time>
      </trkpt>
      <trkpt lat="48.72075" lon="7.35884">
        <ele>211.254089</ele>
        <time>2010-05-29T14:40:12Z</time>
      </trkpt>
      <trkpt lat="48.72084" lon="7.35881">
        <ele>212.269714</ele>
        <time>2010-05-29T14:40:18Z</time>
      </trkpt>
      <trkpt lat="48.72094" lon="7.35876">
        <ele>213.105652</ele>
        <time>2010-05-29T14:40:24Z</time>
      </trkpt>
      <trkpt lat="48.72103" lon="7.35873">
        <ele>214.386902</ele>
        <time>2010-05-29T14:40:30Z</time>
      </trkpt>
      <trkpt lat="48.72113" lon="7.35867">
        <ele>215.250183</ele>
        <time>2010-05-29T14:40:38Z</time>
      </trkpt>
      <trkpt lat="48.72121" lon="7.35863">
        <ele>215.828308</ele>
        <time>2010-05-29T14:40:45Z</time>
      </trkpt>
      <trkpt lat="48.7213" lon="7.35859">
        <ele>216.715027</ele>
        <time>2010-05-29T14:40:53Z</time>
      </trkpt>
      <trkpt lat="48.72139" lon="7.35854">
        <ele>217.300964</ele>
        <time>2010-05-29T14:41:01Z</time>
      </trkpt>
      <trkpt lat="48.72148" lon="7.3585">
        <ele>217.640808</ele>
        <time>2010-05-29T14:41:07Z</time>
      </trkpt>
      <trkpt lat="48.72158" lon="7.35845">
        <ele>218.718933</ele>
        <time>2010-05-29T14:41:14Z</time>
      </trkpt>
      <trkpt lat="48.72167" lon="7.3584">
        <ele>219.340027</ele>
        <time>2010-05-29T14:41:20Z</time>
      </trkpt>
      <trkpt lat="48.72176" lon="7.35834">
        <ele>219.168152</ele>
        <time>2010-05-29T14:41:25Z</time>
      </trkpt>
      <trkpt lat="48.72187" lon="7.35828">
        <ele>218.949402</ele>
        <time>2010-05-29T14:41:29Z</time>
      </trkpt>
      <trkpt lat="48.72197" lon="7.35825">
        <ele>218.863464</ele>
        <time>2010-05-29T14:41:32Z</time>
      </trkpt>
      <trkpt lat="48.72207" lon="7.3582">
        <ele>218.797058</ele>
        <time>2010-05-29T14:41:35Z</time>
      </trkpt>
      <trkpt lat="48.72218" lon="7.35815">
        <ele>218.699402</ele>
        <time>2010-05-29T14:41:38Z</time>
      </trkpt>
      <trkpt lat="48.72228" lon="7.35808">
        <ele>218.593933</ele>
        <time>2010-05-29T14:41:41Z</time>
      </trkpt>
      <trkpt lat="48.72238" lon="7.35796">
        <ele>218.183777</ele>
        <time>2010-05-29T14:41:44Z</time>
      </trkpt>
      <trkpt lat="48.72247" lon="7.35786">
        <ele>217.949402</ele>
        <time>2010-05-29T14:41:47Z</time>
      </trkpt>
      <trkpt lat="48.72257" lon="7.35775">
        <ele>217.730652</ele>
        <time>2010-05-29T14:41:50Z</time>
      </trkpt>
      <trkpt lat="48.72266" lon="7.35765">
        <ele>217.847839</ele>
        <time>2010-05-29T14:41:53Z</time>
      </trkpt>
      <trkpt lat="48.72275" lon="7.35756">
        <ele>217.902527</ele>
        <time>2010-05-29T14:41:56Z</time>
      </trkpt>
      <trkpt lat="48.72285" lon="7.35747">
        <ele>217.918152</ele>
        <time>2010-05-29T14:41:59Z</time>
      </trkpt>
      <trkpt lat="48.72293" lon="7.35738">
        <ele>217.933777</ele>
        <time>2010-05-29T14:42:02Z</time>
      </trkpt>
      <trkpt lat="48.72301" lon="7.3573">
        <ele>217.890808</ele>
        <time>2010-05-29T14:42:05Z</time>
      </trkpt>
      <trkpt lat="48.72309" lon="7.35722">
        <ele>218.140808</ele>
        <time>2010-05-29T14:42:08Z</time>
      </trkpt>
      <trkpt lat="48.72319" lon="7.35711">
        <ele>218.172058</ele>
        <time>2010-05-29T14:42:12Z</time>
      </trkpt>
      <trkpt lat="48.72327" lon="7.35701">
        <ele>218.449402</ele>
        <time>2010-05-29T14:42:16Z</time>
      </trkpt>
      <trkpt lat="48.72334" lon="7.35692">
        <ele>218.832214</ele>
        <time>2010-05-29T14:42:20Z</time>
      </trkpt>
      <trkpt lat="48.72343" lon="7.35683">
        <ele>219.761902</ele>
        <time>2010-05-29T14:42:25Z</time>
      </trkpt>
      <trkpt lat="48.72352" lon="7.35674">
        <ele>220.254089</ele>
        <time>2010-05-29T14:42:30Z</time>
      </trkpt>
      <trkpt lat="48.7236" lon="7.35666">
        <ele>220.754089</ele>
        <time>2010-05-29T14:42:35Z</time>
      </trkpt>
      <trkpt lat="48.72368" lon="7.35657">
        <ele>221.609558</ele>
        <time>2010-05-29T14:42:40Z</time>
      </trkpt>
      <trkpt lat="48.72376" lon="7.35649">
        <ele>222.136902</ele>
        <time>2010-05-29T14:42:44Z</time>
      </trkpt>
      <trkpt lat="48.72384" lon="7.35641">
        <ele>222.238464</ele>
        <time>2010-05-29T14:42:48Z</time>
      </trkpt>
      <trkpt lat="48.72392" lon="7.35633">
        <ele>223.035339</ele>
        <time>2010-05-29T14:42:53Z</time>
      </trkpt>
      <trkpt lat="48.724" lon="7.35626">
        <ele>223.429871</ele>
        <time>2010-05-29T14:42:57Z</time>
      </trkpt>
      <trkpt lat="48.72408" lon="7.35618">
        <ele>223.820496</ele>
        <time>2010-05-29T14:43:01Z</time>
      </trkpt>
      <trkpt lat="48.72416" lon="7.35611">
        <ele>224.539246</ele>
        <time>2010-05-29T14:43:05Z</time>
      </trkpt>
      <trkpt lat="48.72425" lon="7.35604">
        <ele>225.152527</ele>
        <time>2010-05-29T14:43:10Z</time>
      </trkpt>
      <trkpt lat="48.72434" lon="7.35597">
        <ele>225.234558</ele>
        <time>2010-05-29T14:43:15Z</time>
      </trkpt>
      <trkpt lat="48.72442" lon="7.3559">
        <ele>225.668152</ele>
        <time>2010-05-29T14:43:19Z</time>
      </trkpt>
      <trkpt lat="48.7245" lon="7.35579">
        <ele>226.394714</ele>
        <time>2010-05-29T14:43:24Z</time>
      </trkpt>
      <trkpt lat="48.72459" lon="7.3557">
        <ele>226.472839</ele>
        <time>2010-05-29T14:43:29Z</time>
      </trkpt>
      <trkpt lat="48.72466" lon="7.35562">
        <ele>226.144714</ele>
        <time>2010-05-29T14:43:33Z</time>
      </trkpt>
      <trkpt lat="48.72474" lon="7.35554">
        <ele>225.941589</ele>
        <time>2010-05-29T14:43:37Z</time>
      </trkpt>
      <trkpt lat="48.72482" lon="7.35545">
        <ele>225.867371</ele>
        <time>2010-05-29T14:43:41Z</time>
      </trkpt>
      <trkpt lat="48.7249" lon="7.35536">
        <ele>225.882996</ele>
        <time>2010-05-29T14:43:45Z</time>
      </trkpt>
      <trkpt lat="48.72499" lon="7.35526">
        <ele>225.605652</ele>
        <time>2010-05-29T14:43:49Z</time>
      </trkpt>
      <trkpt lat="48.72507" lon="7.35517">
        <ele>225.246277</ele>
        <time>2010-05-29T14:43:53Z</time>
      </trkpt>
      <trkpt lat="48.72516" lon="7.35507">
        <ele>225.132996</ele>
        <time>2010-05-29T14:43:57Z</time>
      </trkpt>
      <trkpt lat="48.72524" lon="7.35498">
        <ele>224.925964</ele>
        <time>2010-05-29T14:44:00Z</time>
      </trkpt>
      <trkpt lat="48.72532" lon="7.35489">
        <ele>224.765808</ele>
        <time>2010-05-29T14:44:03Z</time>
      </trkpt>
      <trkpt lat="48.72539" lon="7.3548">
        <ele>224.781433</ele>
        <time>2010-05-29T14:44:06Z</time>
      </trkpt>
      <trkpt lat="48.72546" lon="7.35471">
        <ele>224.527527</ele>
        <time>2010-05-29T14:44:09Z</time>
      </trkpt>
      <trkpt lat="48.72556" lon="7.35462">
        <ele>224.304871</ele>
        <time>2010-05-29T14:44:13Z</time>
      </trkpt>
      <trkpt lat="48.72565" lon="7.35451">
        <ele>224.175964</ele>
        <time>2010-05-29T14:44:17Z</time>
      </trkpt>
      <trkpt lat="48.72573" lon="7.35439">
        <ele>224.484558</ele>
        <time>2010-05-29T14:44:21Z</time>
      </trkpt>
      <trkpt lat="48.72582" lon="7.35429">
        <ele>224.300964</ele>
        <time>2010-05-29T14:44:25Z</time>
      </trkpt>
      <trkpt lat="48.72591" lon="7.35419">
        <ele>224.367371</ele>
        <time>2010-05-29T14:44:29Z</time>
      </trkpt>
      <trkpt lat="48.72601" lon="7.35408">
        <ele>223.953308</ele>
        <time>2010-05-29T14:44:33Z</time>
      </trkpt>
      <trkpt lat="48.72608" lon="7.354">
        <ele>224.039246</ele>
        <time>2010-05-29T14:44:36Z</time>
      </trkpt>
      <trkpt lat="48.72616" lon="7.35392">
        <ele>223.953308</ele>
        <time>2010-05-29T14:44:39Z</time>
      </trkpt>
      <trkpt lat="48.72624" lon="7.35382">
        <ele>224.160339</ele>
        <time>2010-05-29T14:44:43Z</time>
      </trkpt>
      <trkpt lat="48.72633" lon="7.35373">
        <ele>223.918152</ele>
        <time>2010-05-29T14:44:47Z</time>
      </trkpt>
      <trkpt lat="48.72642" lon="7.35364">
        <ele>224.172058</ele>
        <time>2010-05-29T14:44:51Z</time>
      </trkpt>
      <trkpt lat="48.72651" lon="7.35355">
        <ele>224.511902</ele>
        <time>2010-05-29T14:44:55Z</time>
      </trkpt>
      <trkpt lat="48.72659" lon="7.35345">
        <ele>224.113464</ele>
        <time>2010-05-29T14:45:00Z</time>
      </trkpt>
      <trkpt lat="48.72667" lon="7.35335">
        <ele>223.738464</ele>
        <time>2010-05-29T14:45:04Z</time>
      </trkpt>
      <trkpt lat="48.72675" lon="7.35326">
        <ele>224.035339</ele>
        <time>2010-05-29T14:45:08Z</time>
      </trkpt>
      <trkpt lat="48.72683" lon="7.35316">
        <ele>224.324402</ele>
        <time>2010-05-29T14:45:12Z</time>
      </trkpt>
      <trkpt lat="48.72692" lon="7.35307">
        <ele>225.222839</ele>
        <time>2010-05-29T14:45:16Z</time>
      </trkpt>
      <trkpt lat="48.727" lon="7.35299">
        <ele>225.742371</ele>
        <time>2010-05-29T14:45:20Z</time>
      </trkpt>
      <trkpt lat="48.72708" lon="7.35292">
        <ele>227.039246</ele>
        <time>2010-05-29T14:46:52Z</time>
      </trkpt>
      <trkpt lat="48.72715" lon="7.35282">
        <ele>226.925964</ele>
        <time>2010-05-29T14:47:18Z</time>
      </trkpt>
      <trkpt lat="48.72723" lon="7.35274">
        <ele>227.250183</ele>
        <time>2010-05-29T14:47:22Z</time>
      </trkpt>
      <trkpt lat="48.72733" lon="7.35284">
        <ele>226.558777</ele>
        <time>2010-05-29T14:47:26Z</time>
      </trkpt>
      <trkpt lat="48.7274" lon="7.35296">
        <ele>225.879089</ele>
        <time>2010-05-29T14:47:29Z</time>
      </trkpt>
      <trkpt lat="48.72747" lon="7.35309">
        <ele>225.340027</ele>
        <time>2010-05-29T14:47:32Z</time>
      </trkpt>
      <trkpt lat="48.72754" lon="7.35322">
        <ele>225.000183</ele>
        <time>2010-05-29T14:47:36Z</time>
      </trkpt>
      <trkpt lat="48.72764" lon="7.35325">
        <ele>225.941589</ele>
        <time>2010-05-29T14:47:41Z</time>
      </trkpt>
      <trkpt lat="48.72772" lon="7.35315">
        <ele>227.039246</ele>
        <time>2010-05-29T14:47:46Z</time>
      </trkpt>
      <trkpt lat="48.7278" lon="7.35306">
        <ele>227.359558</ele>
        <time>2010-05-29T14:47:50Z</time>
      </trkpt>
      <trkpt lat="48.72786" lon="7.35296">
        <ele>227.828308</ele>
        <time>2010-05-29T14:47:54Z</time>
      </trkpt>
      <trkpt lat="48.72795" lon="7.35285">
        <ele>228.152527</ele>
        <time>2010-05-29T14:47:59Z</time>
      </trkpt>
      <trkpt lat="48.72802" lon="7.35276">
        <ele>229.000183</ele>
        <time>2010-05-29T14:48:04Z</time>
      </trkpt>
      <trkpt lat="48.7281" lon="7.35267">
        <ele>229.562683</ele>
        <time>2010-05-29T14:48:09Z</time>
      </trkpt>
      <trkpt lat="48.72817" lon="7.35257">
        <ele>228.976746</ele>
        <time>2010-05-29T14:48:15Z</time>
      </trkpt>
      <trkpt lat="48.72825" lon="7.35248">
        <ele>228.742371</ele>
        <time>2010-05-29T14:48:21Z</time>
      </trkpt>
      <trkpt lat="48.72832" lon="7.35237">
        <ele>231.504089</ele>
        <time>2010-05-29T14:48:28Z</time>
      </trkpt>
      <trkpt lat="48.7284" lon="7.35229">
        <ele>233.386902</ele>
        <time>2010-05-29T14:48:34Z</time>
      </trkpt>
      <trkpt lat="48.72847" lon="7.35219">
        <ele>234.375183</ele>
        <time>2010-05-29T14:48:42Z</time>
      </trkpt>
      <trkpt lat="48.72855" lon="7.35211">
        <ele>235.222839</ele>
        <time>2010-05-29T14:48:49Z</time>
      </trkpt>
      <trkpt lat="48.7286" lon="7.35198">
        <ele>235.531433</ele>
        <time>2010-05-29T14:48:56Z</time>
      </trkpt>
      <trkpt lat="48.72868" lon="7.35189">
        <ele>235.632996</ele>
        <time>2010-05-29T14:49:02Z</time>
      </trkpt>
      <trkpt lat="48.72875" lon="7.3518">
        <ele>236.902527</ele>
        <time>2010-05-29T14:49:08Z</time>
      </trkpt>
      <trkpt lat="48.72882" lon="7.35171">
        <ele>235.488464</ele>
        <time>2010-05-29T14:49:13Z</time>
      </trkpt>
      <trkpt lat="48.72889" lon="7.35163">
        <ele>235.105652</ele>
        <time>2010-05-29T14:49:18Z</time>
      </trkpt>
      <trkpt lat="48.72897" lon="7.35156">
        <ele>235.773621</ele>
        <time>2010-05-29T14:49:23Z</time>
      </trkpt>
      <trkpt lat="48.72904" lon="7.35145">
        <ele>236.586121</ele>
        <time>2010-05-29T14:49:29Z</time>
      </trkpt>
      <trkpt lat="48.72912" lon="7.35135">
        <ele>237.476746</ele>
        <time>2010-05-29T14:49:35Z</time>
      </trkpt>
      <trkpt lat="48.72918" lon="7.35125">
        <ele>237.886902</ele>
        <time>2010-05-29T14:49:42Z</time>
      </trkpt>
      <trkpt lat="48.72926" lon="7.35116">
        <ele>238.750183</ele>
        <time>2010-05-29T14:49:48Z</time>
      </trkpt>
      <trkpt lat="48.72934" lon="7.35109">
        <ele>239.695496</ele>
        <time>2010-05-29T14:49:55Z</time>
      </trkpt>
      <trkpt lat="48.72944" lon="7.3511">
        <ele>239.203308</ele>
        <time>2010-05-29T14:50:02Z</time>
      </trkpt>
      <trkpt lat="48.72949" lon="7.35121">
        <ele>237.867371</ele>
        <time>2010-05-29T14:50:05Z</time>
      </trkpt>
      <trkpt lat="48.72956" lon="7.35134">
        <ele>237.187683</ele>
        <time>2010-05-29T14:50:08Z</time>
      </trkpt>
      <trkpt lat="48.72966" lon="7.35148">
        <ele>236.734558</ele>
        <time>2010-05-29T14:50:11Z</time>
      </trkpt>
      <trkpt lat="48.72972" lon="7.3516">
        <ele>236.101746</ele>
        <time>2010-05-29T14:50:13Z</time>
      </trkpt>
      <trkpt lat="48.72979" lon="7.35172">
        <ele>235.593933</ele>
        <time>2010-05-29T14:50:15Z</time>
      </trkpt>
      <trkpt lat="48.72986" lon="7.35183">
        <ele>235.429871</ele>
        <time>2010-05-29T14:50:17Z</time>
      </trkpt>
      <trkpt lat="48.72993" lon="7.35192">
        <ele>235.129089</ele>
        <time>2010-05-29T14:50:19Z</time>
      </trkpt>
      <trkpt lat="48.73" lon="7.35201">
        <ele>234.890808</ele>
        <time>2010-05-29T14:50:21Z</time>
      </trkpt>
      <trkpt lat="48.7301" lon="7.35215">
        <ele>234.488464</ele>
        <time>2010-05-29T14:50:24Z</time>
      </trkpt>
      <trkpt lat="48.73015" lon="7.35227">
        <ele>234.160339</ele>
        <time>2010-05-29T14:50:26Z</time>
      </trkpt>
      <trkpt lat="48.73024" lon="7.35242">
        <ele>234.363464</ele>
        <time>2010-05-29T14:50:29Z</time>
      </trkpt>
      <trkpt lat="48.73034" lon="7.35255">
        <ele>234.254089</ele>
        <time>2010-05-29T14:50:32Z</time>
      </trkpt>
      <trkpt lat="48.73043" lon="7.35265">
        <ele>233.941589</ele>
        <time>2010-05-29T14:50:35Z</time>
      </trkpt>
      <trkpt lat="48.73052" lon="7.35269">
        <ele>233.582214</ele>
        <time>2010-05-29T14:50:38Z</time>
      </trkpt>
      <trkpt lat="48.73063" lon="7.35274">
        <ele>233.449402</ele>
        <time>2010-05-29T14:50:42Z</time>
      </trkpt>
      <trkpt lat="48.73075" lon="7.35276">
        <ele>233.519714</ele>
        <time>2010-05-29T14:50:46Z</time>
      </trkpt>
      <trkpt lat="48.73084" lon="7.35276">
        <ele>233.461121</ele>
        <time>2010-05-29T14:50:49Z</time>
      </trkpt>
      <trkpt lat="48.73095" lon="7.35273">
        <ele>234.886902</ele>
        <time>2010-05-29T14:50:53Z</time>
      </trkpt>
      <trkpt lat="48.73107" lon="7.3527">
        <ele>235.953308</ele>
        <time>2010-05-29T14:50:57Z</time>
      </trkpt>
      <trkpt lat="48.73115" lon="7.35262">
        <ele>236.215027</ele>
        <time>2010-05-29T14:51:01Z</time>
      </trkpt>
      <trkpt lat="48.73122" lon="7.3525">
        <ele>236.050964</ele>
        <time>2010-05-29T14:51:07Z</time>
      </trkpt>
      <trkpt lat="48.73119" lon="7.35237">
        <ele>239.242371</ele>
        <time>2010-05-29T14:53:13Z</time>
      </trkpt>
    </trkseg>
  </trk>
</gpx>